<?xml version="1.0" encoding="UTF-8" standalone="no" ?>
<gpx xmlns="http://www.topografix.com/GPX/1/1" xmlns:xsi="http://www.w3.org/2001/XMLSchema-instance" xsi:schemaLocation="http://www.topografix.com/GPX/1/1 http://www.topografix.com/GPX/1/1/gpx.xsd" version="1.1" creator="VisuGPX - https://www.visugpx.com">
  <metadata>
    <name>Routes Roubaix 78Km</name>
  </metadata>
  <trk>
    <name><![CDATA[Routes Roubaix 78Km]]></name>
    <extensions>
      <line xmlns="http://www.topografix.com/GPX/gpx_style/0/2">
        <color>0000ff</color>
        <width>4</width>
          <extensions>
            <sens>1</sens>
          </extensions>
      </line>
    </extensions>
    <trkseg>
      <trkpt lat="50.43116" lon="2.98725">
        <ele>28</ele>
        <time>2022-11-11T19:47:48.150Z</time>
      </trkpt>
      <trkpt lat="50.43116" lon="2.98725">
        <ele>28</ele>
        <time>2022-11-11T19:48:03.641Z</time>
      </trkpt>
      <trkpt lat="50.43116" lon="2.98725">
        <ele>28</ele>
        <time>2022-11-11T19:48:19.132Z</time>
      </trkpt>
      <trkpt lat="50.43131" lon="2.9874">
        <ele>28</ele>
        <time>2022-11-11T19:48:34.626Z</time>
      </trkpt>
      <trkpt lat="50.43178" lon="2.98796">
        <ele>28</ele>
        <time>2022-11-11T19:48:50.128Z</time>
      </trkpt>
      <trkpt lat="50.43199" lon="2.98822">
        <ele>28</ele>
        <time>2022-11-11T19:49:05.634Z</time>
      </trkpt>
      <trkpt lat="50.43199" lon="2.98822">
        <ele>28</ele>
        <time>2022-11-11T19:49:21.140Z</time>
      </trkpt>
      <trkpt lat="50.43209" lon="2.98839">
        <ele>28</ele>
        <time>2022-11-11T19:49:36.648Z</time>
      </trkpt>
      <trkpt lat="50.43237" lon="2.98796">
        <ele>28</ele>
        <time>2022-11-11T19:49:52.162Z</time>
      </trkpt>
      <trkpt lat="50.43244" lon="2.98783">
        <ele>28</ele>
        <time>2022-11-11T19:50:07.677Z</time>
      </trkpt>
      <trkpt lat="50.43295" lon="2.98669">
        <ele>28</ele>
        <time>2022-11-11T19:51:09.759Z</time>
      </trkpt>
      <trkpt lat="50.43302" lon="2.98665">
        <ele>28</ele>
        <time>2022-11-11T19:51:25.288Z</time>
      </trkpt>
      <trkpt lat="50.4332" lon="2.98669">
        <ele>28</ele>
        <time>2022-11-11T19:51:40.820Z</time>
      </trkpt>
      <trkpt lat="50.4332" lon="2.98669">
        <ele>28</ele>
        <time>2022-11-11T19:51:56.352Z</time>
      </trkpt>
      <trkpt lat="50.43336" lon="2.98674">
        <ele>28</ele>
        <time>2022-11-11T19:52:11.886Z</time>
      </trkpt>
      <trkpt lat="50.43337" lon="2.98674">
        <ele>28</ele>
        <time>2022-11-11T19:52:27.420Z</time>
      </trkpt>
      <trkpt lat="50.43337" lon="2.98675">
        <ele>28</ele>
        <time>2022-11-11T19:52:42.954Z</time>
      </trkpt>
      <trkpt lat="50.43338" lon="2.98675">
        <ele>28</ele>
        <time>2022-11-11T19:52:58.488Z</time>
      </trkpt>
      <trkpt lat="50.43338" lon="2.98675">
        <ele>28</ele>
        <time>2022-11-11T19:53:14.022Z</time>
      </trkpt>
      <trkpt lat="50.43366" lon="2.98683">
        <ele>28</ele>
        <time>2022-11-11T19:53:29.560Z</time>
      </trkpt>
      <trkpt lat="50.43372" lon="2.98683">
        <ele>28</ele>
        <time>2022-11-11T19:53:45.099Z</time>
      </trkpt>
      <trkpt lat="50.43379" lon="2.98677">
        <ele>28</ele>
        <time>2022-11-11T19:54:00.639Z</time>
      </trkpt>
      <trkpt lat="50.43385" lon="2.98669">
        <ele>28</ele>
        <time>2022-11-11T19:54:16.180Z</time>
      </trkpt>
      <trkpt lat="50.43385" lon="2.98669">
        <ele>28</ele>
        <time>2022-11-11T19:54:31.721Z</time>
      </trkpt>
      <trkpt lat="50.43385" lon="2.98668">
        <ele>28</ele>
        <time>2022-11-11T19:54:47.262Z</time>
      </trkpt>
      <trkpt lat="50.43385" lon="2.98668">
        <ele>28</ele>
        <time>2022-11-11T19:55:02.803Z</time>
      </trkpt>
      <trkpt lat="50.43386" lon="2.98668">
        <ele>28</ele>
        <time>2022-11-11T19:55:18.344Z</time>
      </trkpt>
      <trkpt lat="50.43379" lon="2.98677">
        <ele>28</ele>
        <time>2022-11-11T19:55:33.887Z</time>
      </trkpt>
      <trkpt lat="50.43372" lon="2.98683">
        <ele>28</ele>
        <time>2022-11-11T19:55:49.431Z</time>
      </trkpt>
      <trkpt lat="50.43366" lon="2.98683">
        <ele>28</ele>
        <time>2022-11-11T19:56:04.976Z</time>
      </trkpt>
      <trkpt lat="50.4332" lon="2.98669">
        <ele>28</ele>
        <time>2022-11-11T19:56:20.527Z</time>
      </trkpt>
      <trkpt lat="50.4332" lon="2.98669">
        <ele>28</ele>
        <time>2022-11-11T19:56:36.078Z</time>
      </trkpt>
      <trkpt lat="50.43302" lon="2.98665">
        <ele>28</ele>
        <time>2022-11-11T19:56:51.632Z</time>
      </trkpt>
      <trkpt lat="50.43295" lon="2.98669">
        <ele>28</ele>
        <time>2022-11-11T19:57:07.187Z</time>
      </trkpt>
      <trkpt lat="50.43244" lon="2.98783">
        <ele>28</ele>
        <time>2022-11-11T19:59:11.744Z</time>
      </trkpt>
      <trkpt lat="50.43237" lon="2.98796">
        <ele>28</ele>
        <time>2022-11-11T19:59:27.320Z</time>
      </trkpt>
      <trkpt lat="50.43209" lon="2.98839">
        <ele>28</ele>
        <time>2022-11-11T19:59:42.902Z</time>
      </trkpt>
      <trkpt lat="50.43199" lon="2.98822">
        <ele>28</ele>
        <time>2022-11-11T19:59:58.486Z</time>
      </trkpt>
      <trkpt lat="50.43199" lon="2.98822">
        <ele>28</ele>
        <time>2022-11-11T20:00:14.070Z</time>
      </trkpt>
      <trkpt lat="50.43178" lon="2.98796">
        <ele>28</ele>
        <time>2022-11-11T20:00:29.658Z</time>
      </trkpt>
      <trkpt lat="50.4315" lon="2.98762">
        <ele>28</ele>
        <time>2022-11-11T20:00:45.251Z</time>
      </trkpt>
      <trkpt lat="50.4315" lon="2.98762">
        <ele>28</ele>
        <time>2022-11-11T20:01:00.844Z</time>
      </trkpt>
      <trkpt lat="50.43149" lon="2.98761">
        <ele>28</ele>
        <time>2022-11-11T20:01:16.437Z</time>
      </trkpt>
      <trkpt lat="50.43149" lon="2.98761">
        <ele>28</ele>
        <time>2022-11-11T20:01:32.030Z</time>
      </trkpt>
      <trkpt lat="50.43149" lon="2.98761">
        <ele>28</ele>
        <time>2022-11-11T20:01:47.623Z</time>
      </trkpt>
      <trkpt lat="50.43149" lon="2.98761">
        <ele>28</ele>
        <time>2022-11-11T20:02:03.216Z</time>
      </trkpt>
      <trkpt lat="50.43148" lon="2.98761">
        <ele>28</ele>
        <time>2022-11-11T20:02:18.809Z</time>
      </trkpt>
      <trkpt lat="50.43148" lon="2.9876">
        <ele>28</ele>
        <time>2022-11-11T20:02:34.402Z</time>
      </trkpt>
      <trkpt lat="50.43148" lon="2.9876">
        <ele>28</ele>
        <time>2022-11-11T20:02:49.995Z</time>
      </trkpt>
      <trkpt lat="50.43148" lon="2.9876">
        <ele>28</ele>
        <time>2022-11-11T20:03:05.588Z</time>
      </trkpt>
      <trkpt lat="50.43137" lon="2.98747">
        <ele>29</ele>
        <time>2022-11-11T20:03:21.183Z</time>
        <extensions>
          <visugpx:TrkExtension xmlns:visugpx="https://www.visugpx.com/editgpx/">
            <visugpx:node>2</visugpx:node>
            </visugpx:TrkExtension>
        </extensions>
      </trkpt>
      <trkpt lat="50.43131" lon="2.9874">
        <ele>28</ele>
        <time>2022-11-11T14:18:25.004Z</time>
      </trkpt>
      <trkpt lat="50.43108" lon="2.98717">
        <ele>28</ele>
        <time>2022-11-11T14:18:25.000Z</time>
      </trkpt>
      <trkpt lat="50.43131" lon="2.9874">
        <ele>28</ele>
        <time>2022-11-11T14:18:25.004Z</time>
      </trkpt>
      <trkpt lat="50.43178" lon="2.98796">
        <ele>28</ele>
        <time>2022-11-11T14:18:25.016Z</time>
      </trkpt>
      <trkpt lat="50.43199" lon="2.98822">
        <ele>28</ele>
        <time>2022-11-11T14:18:25.032Z</time>
      </trkpt>
      <trkpt lat="50.43199" lon="2.98822">
        <ele>28</ele>
        <time>2022-11-11T14:18:25.048Z</time>
      </trkpt>
      <trkpt lat="50.43209" lon="2.98839">
        <ele>28</ele>
        <time>2022-11-11T14:18:25.066Z</time>
      </trkpt>
      <trkpt lat="50.43237" lon="2.98796">
        <ele>28</ele>
        <time>2022-11-11T14:18:25.090Z</time>
      </trkpt>
      <trkpt lat="50.43244" lon="2.98783">
        <ele>28</ele>
        <time>2022-11-11T14:18:25.115Z</time>
      </trkpt>
      <trkpt lat="50.43295" lon="2.98669">
        <ele>28</ele>
        <time>2022-11-11T14:18:25.237Z</time>
      </trkpt>
      <trkpt lat="50.43302" lon="2.98665">
        <ele>28</ele>
        <time>2022-11-11T14:18:25.276Z</time>
      </trkpt>
      <trkpt lat="50.4332" lon="2.98669">
        <ele>28</ele>
        <time>2022-11-11T14:18:25.318Z</time>
      </trkpt>
      <trkpt lat="50.4332" lon="2.98669">
        <ele>28</ele>
        <time>2022-11-11T14:18:25.360Z</time>
      </trkpt>
      <trkpt lat="50.43366" lon="2.98683">
        <ele>28</ele>
        <time>2022-11-11T14:18:25.408Z</time>
      </trkpt>
      <trkpt lat="50.43372" lon="2.98683">
        <ele>28</ele>
        <time>2022-11-11T14:18:25.457Z</time>
      </trkpt>
      <trkpt lat="50.43379" lon="2.98677">
        <ele>28</ele>
        <time>2022-11-11T14:18:25.507Z</time>
      </trkpt>
      <trkpt lat="50.43386" lon="2.98668">
        <ele>28</ele>
        <time>2022-11-11T14:18:25.558Z</time>
      </trkpt>
      <trkpt lat="50.43412" lon="2.98691">
        <ele>28</ele>
        <time>2022-11-11T14:18:25.614Z</time>
      </trkpt>
      <trkpt lat="50.43464" lon="2.98718">
        <ele>28</ele>
        <time>2022-11-11T14:18:25.677Z</time>
      </trkpt>
      <trkpt lat="50.43474" lon="2.98723">
        <ele>28</ele>
        <time>2022-11-11T14:18:25.742Z</time>
      </trkpt>
      <trkpt lat="50.4348" lon="2.98726">
        <ele>28</ele>
        <time>2022-11-11T14:18:25.808Z</time>
      </trkpt>
      <trkpt lat="50.4348" lon="2.98726">
        <ele>28</ele>
        <time>2022-11-11T14:18:25.874Z</time>
      </trkpt>
      <trkpt lat="50.43557" lon="2.98776">
        <ele>28</ele>
        <time>2022-11-11T14:18:25.952Z</time>
      </trkpt>
      <trkpt lat="50.43601" lon="2.98815">
        <ele>28</ele>
        <time>2022-11-11T14:18:26.037Z</time>
      </trkpt>
      <trkpt lat="50.43647" lon="2.98866">
        <ele>28</ele>
        <time>2022-11-11T14:18:26.130Z</time>
      </trkpt>
      <trkpt lat="50.43705" lon="2.98938">
        <ele>27</ele>
        <time>2022-11-11T14:18:26.233Z</time>
      </trkpt>
      <trkpt lat="50.43777" lon="2.99026">
        <ele>27</ele>
        <time>2022-11-11T14:18:26.349Z</time>
      </trkpt>
      <trkpt lat="50.43783" lon="2.9905">
        <ele>27</ele>
        <time>2022-11-11T14:18:26.468Z</time>
      </trkpt>
      <trkpt lat="50.43788" lon="2.99073">
        <ele>27</ele>
        <time>2022-11-11T14:18:26.589Z</time>
      </trkpt>
      <trkpt lat="50.438" lon="2.99101">
        <ele>27</ele>
        <time>2022-11-11T14:18:26.713Z</time>
      </trkpt>
      <trkpt lat="50.4381" lon="2.9912">
        <ele>27</ele>
        <time>2022-11-11T14:18:26.839Z</time>
      </trkpt>
      <trkpt lat="50.43861" lon="2.99183">
        <ele>26</ele>
        <time>2022-11-11T14:18:26.974Z</time>
      </trkpt>
      <trkpt lat="50.43876" lon="2.99204">
        <ele>26</ele>
        <time>2022-11-11T14:18:27.112Z</time>
      </trkpt>
      <trkpt lat="50.43888" lon="2.99227">
        <ele>26</ele>
        <time>2022-11-11T14:18:27.253Z</time>
      </trkpt>
      <trkpt lat="50.43884" lon="2.99238">
        <ele>26</ele>
        <time>2022-11-11T14:18:27.395Z</time>
      </trkpt>
      <trkpt lat="50.43886" lon="2.99251">
        <ele>26</ele>
        <time>2022-11-11T14:18:27.538Z</time>
      </trkpt>
      <trkpt lat="50.43889" lon="2.99255">
        <ele>26</ele>
        <time>2022-11-11T14:18:27.682Z</time>
      </trkpt>
      <trkpt lat="50.43897" lon="2.99257">
        <ele>26</ele>
        <time>2022-11-11T14:18:27.827Z</time>
      </trkpt>
      <trkpt lat="50.43901" lon="2.99254">
        <ele>26</ele>
        <time>2022-11-11T14:18:27.973Z</time>
      </trkpt>
      <trkpt lat="50.43926" lon="2.99312">
        <ele>26</ele>
        <time>2022-11-11T14:18:28.125Z</time>
      </trkpt>
      <trkpt lat="50.43961" lon="2.99387">
        <ele>26</ele>
        <time>2022-11-11T14:18:28.285Z</time>
      </trkpt>
      <trkpt lat="50.43979" lon="2.99428">
        <ele>26</ele>
        <time>2022-11-11T14:18:28.450Z</time>
      </trkpt>
      <trkpt lat="50.43979" lon="2.99428">
        <ele>26</ele>
        <time>2022-11-11T14:18:28.615Z</time>
      </trkpt>
      <trkpt lat="50.4399" lon="2.99455">
        <ele>26</ele>
        <time>2022-11-11T14:18:28.783Z</time>
      </trkpt>
      <trkpt lat="50.44014" lon="2.99497">
        <ele>26</ele>
        <time>2022-11-11T14:18:28.956Z</time>
      </trkpt>
      <trkpt lat="50.44086" lon="2.99568">
        <ele>26</ele>
        <time>2022-11-11T14:18:29.141Z</time>
      </trkpt>
      <trkpt lat="50.44118" lon="2.99629">
        <ele>26</ele>
        <time>2022-11-11T14:18:29.333Z</time>
      </trkpt>
      <trkpt lat="50.44122" lon="2.99639">
        <ele>26</ele>
        <time>2022-11-11T14:18:29.526Z</time>
      </trkpt>
      <trkpt lat="50.44134" lon="2.99673">
        <ele>27</ele>
        <time>2022-11-11T14:18:29.723Z</time>
      </trkpt>
      <trkpt lat="50.44147" lon="2.99719">
        <ele>27</ele>
        <time>2022-11-11T14:18:29.924Z</time>
      </trkpt>
      <trkpt lat="50.44181" lon="2.99865">
        <ele>27</ele>
        <time>2022-11-11T14:18:30.139Z</time>
      </trkpt>
      <trkpt lat="50.44181" lon="2.99865">
        <ele>27</ele>
        <time>2022-11-11T14:18:30.354Z</time>
      </trkpt>
      <trkpt lat="50.44211" lon="2.99991">
        <ele>27</ele>
        <time>2022-11-11T14:18:30.582Z</time>
      </trkpt>
      <trkpt lat="50.44269" lon="3.00252">
        <ele>27</ele>
        <time>2022-11-11T14:18:30.835Z</time>
      </trkpt>
      <trkpt lat="50.44275" lon="3.00304">
        <ele>27</ele>
        <time>2022-11-11T14:18:31.092Z</time>
      </trkpt>
      <trkpt lat="50.44262" lon="3.00314">
        <ele>27</ele>
        <time>2022-11-11T14:18:31.351Z</time>
      </trkpt>
      <trkpt lat="50.44258" lon="3.00337">
        <ele>27</ele>
        <time>2022-11-11T14:18:31.613Z</time>
      </trkpt>
      <trkpt lat="50.44257" lon="3.00367">
        <ele>27</ele>
        <time>2022-11-11T14:18:31.877Z</time>
      </trkpt>
      <trkpt lat="50.44246" lon="3.00398">
        <ele>27</ele>
        <time>2022-11-11T14:18:32.145Z</time>
      </trkpt>
      <trkpt lat="50.44236" lon="3.00416">
        <ele>27</ele>
        <time>2022-11-11T14:18:32.415Z</time>
      </trkpt>
      <trkpt lat="50.44236" lon="3.00416">
        <ele>27</ele>
        <time>2022-11-11T14:18:32.685Z</time>
      </trkpt>
      <trkpt lat="50.44228" lon="3.0043">
        <ele>27</ele>
        <time>2022-11-11T14:18:32.956Z</time>
      </trkpt>
      <trkpt lat="50.44215" lon="3.00461">
        <ele>27</ele>
        <time>2022-11-11T14:18:33.231Z</time>
      </trkpt>
      <trkpt lat="50.44198" lon="3.00515">
        <ele>27</ele>
        <time>2022-11-11T14:18:33.511Z</time>
      </trkpt>
      <trkpt lat="50.44184" lon="3.00581">
        <ele>27</ele>
        <time>2022-11-11T14:18:33.798Z</time>
      </trkpt>
      <trkpt lat="50.44179" lon="3.00643">
        <ele>27</ele>
        <time>2022-11-11T14:18:34.090Z</time>
      </trkpt>
      <trkpt lat="50.44181" lon="3.00692">
        <ele>27</ele>
        <time>2022-11-11T14:18:34.387Z</time>
      </trkpt>
      <trkpt lat="50.44188" lon="3.00754">
        <ele>27</ele>
        <time>2022-11-11T14:18:34.689Z</time>
      </trkpt>
      <trkpt lat="50.44198" lon="3.00801">
        <ele>27</ele>
        <time>2022-11-11T14:18:34.996Z</time>
      </trkpt>
      <trkpt lat="50.44217" lon="3.00855">
        <ele>27</ele>
        <time>2022-11-11T14:18:35.308Z</time>
      </trkpt>
      <trkpt lat="50.4425" lon="3.00937">
        <ele>27</ele>
        <time>2022-11-11T14:18:35.629Z</time>
      </trkpt>
      <trkpt lat="50.44274" lon="3.00999">
        <ele>27</ele>
        <time>2022-11-11T14:18:35.957Z</time>
      </trkpt>
      <trkpt lat="50.443" lon="3.01055">
        <ele>27</ele>
        <time>2022-11-11T14:18:36.291Z</time>
      </trkpt>
      <trkpt lat="50.4432" lon="3.01087">
        <ele>28</ele>
        <time>2022-11-11T14:18:36.629Z</time>
      </trkpt>
      <trkpt lat="50.44322" lon="3.01095">
        <ele>28</ele>
        <time>2022-11-11T14:18:36.968Z</time>
      </trkpt>
      <trkpt lat="50.44311" lon="3.01125">
        <ele>28</ele>
        <time>2022-11-11T14:18:37.310Z</time>
      </trkpt>
      <trkpt lat="50.44313" lon="3.0113">
        <ele>28</ele>
        <time>2022-11-11T14:18:37.653Z</time>
      </trkpt>
      <trkpt lat="50.44308" lon="3.01139">
        <ele>28</ele>
        <time>2022-11-11T14:18:37.997Z</time>
      </trkpt>
      <trkpt lat="50.44291" lon="3.01176">
        <ele>28</ele>
        <time>2022-11-11T14:18:38.345Z</time>
      </trkpt>
      <trkpt lat="50.44261" lon="3.01241">
        <ele>28</ele>
        <time>2022-11-11T14:18:38.700Z</time>
      </trkpt>
      <trkpt lat="50.4425" lon="3.01274">
        <ele>28</ele>
        <time>2022-11-11T14:18:39.058Z</time>
      </trkpt>
      <trkpt lat="50.44246" lon="3.01308">
        <ele>28</ele>
        <time>2022-11-11T14:18:39.420Z</time>
      </trkpt>
      <trkpt lat="50.44236" lon="3.01493">
        <ele>28</ele>
        <time>2022-11-11T14:18:39.798Z</time>
      </trkpt>
      <trkpt lat="50.44233" lon="3.01514">
        <ele>28</ele>
        <time>2022-11-11T14:18:40.178Z</time>
      </trkpt>
      <trkpt lat="50.4423" lon="3.01541">
        <ele>28</ele>
        <time>2022-11-11T14:18:40.561Z</time>
      </trkpt>
      <trkpt lat="50.44207" lon="3.01643">
        <ele>28</ele>
        <time>2022-11-11T14:18:40.954Z</time>
      </trkpt>
      <trkpt lat="50.44188" lon="3.01702">
        <ele>28</ele>
        <time>2022-11-11T14:18:41.353Z</time>
      </trkpt>
      <trkpt lat="50.44141" lon="3.01827">
        <ele>28</ele>
        <time>2022-11-11T14:18:41.765Z</time>
      </trkpt>
      <trkpt lat="50.4405" lon="3.02067">
        <ele>28</ele>
        <time>2022-11-11T14:18:42.202Z</time>
      </trkpt>
      <trkpt lat="50.44028" lon="3.02155">
        <ele>28</ele>
        <time>2022-11-11T14:18:42.648Z</time>
      </trkpt>
      <trkpt lat="50.4396" lon="3.02435">
        <ele>28</ele>
        <time>2022-11-11T14:18:43.121Z</time>
      </trkpt>
      <trkpt lat="50.43945" lon="3.02496">
        <ele>28</ele>
        <time>2022-11-11T14:18:43.600Z</time>
      </trkpt>
      <trkpt lat="50.43919" lon="3.02604">
        <ele>27</ele>
        <time>2022-11-11T14:18:44.089Z</time>
      </trkpt>
      <trkpt lat="50.43893" lon="3.02709">
        <ele>27</ele>
        <time>2022-11-11T14:18:44.588Z</time>
      </trkpt>
      <trkpt lat="50.43884" lon="3.02744">
        <ele>27</ele>
        <time>2022-11-11T14:18:45.091Z</time>
      </trkpt>
      <trkpt lat="50.43882" lon="3.02811">
        <ele>27</ele>
        <time>2022-11-11T14:18:45.600Z</time>
      </trkpt>
      <trkpt lat="50.43879" lon="3.02939">
        <ele>27</ele>
        <time>2022-11-11T14:18:46.121Z</time>
      </trkpt>
      <trkpt lat="50.43878" lon="3.02986">
        <ele>27</ele>
        <time>2022-11-11T14:18:46.646Z</time>
      </trkpt>
      <trkpt lat="50.43878" lon="3.02986">
        <ele>27</ele>
        <time>2022-11-11T14:18:47.171Z</time>
      </trkpt>
      <trkpt lat="50.43874" lon="3.03009">
        <ele>26</ele>
        <time>2022-11-11T14:18:47.698Z</time>
      </trkpt>
      <trkpt lat="50.43872" lon="3.03021">
        <ele>26</ele>
        <time>2022-11-11T14:18:48.226Z</time>
      </trkpt>
      <trkpt lat="50.43857" lon="3.03057">
        <ele>26</ele>
        <time>2022-11-11T14:18:48.758Z</time>
      </trkpt>
      <trkpt lat="50.43837" lon="3.03093">
        <ele>26</ele>
        <time>2022-11-11T14:18:49.294Z</time>
      </trkpt>
      <trkpt lat="50.43829" lon="3.03124">
        <ele>26</ele>
        <time>2022-11-11T14:18:49.833Z</time>
      </trkpt>
      <trkpt lat="50.43825" lon="3.03151">
        <ele>26</ele>
        <time>2022-11-11T14:18:50.375Z</time>
      </trkpt>
      <trkpt lat="50.43825" lon="3.03191">
        <ele>26</ele>
        <time>2022-11-11T14:18:50.920Z</time>
      </trkpt>
      <trkpt lat="50.43825" lon="3.03204">
        <ele>26</ele>
        <time>2022-11-11T14:18:51.467Z</time>
      </trkpt>
      <trkpt lat="50.4383" lon="3.03261">
        <ele>26</ele>
        <time>2022-11-11T14:18:52.019Z</time>
      </trkpt>
      <trkpt lat="50.43834" lon="3.03329">
        <ele>26</ele>
        <time>2022-11-11T14:18:52.577Z</time>
      </trkpt>
      <trkpt lat="50.43834" lon="3.03415">
        <ele>26</ele>
        <time>2022-11-11T14:18:53.143Z</time>
      </trkpt>
      <trkpt lat="50.43834" lon="3.0343">
        <ele>25</ele>
        <time>2022-11-11T14:18:53.710Z</time>
      </trkpt>
      <trkpt lat="50.43832" lon="3.03467">
        <ele>25</ele>
        <time>2022-11-11T14:18:54.281Z</time>
      </trkpt>
      <trkpt lat="50.43823" lon="3.03498">
        <ele>25</ele>
        <time>2022-11-11T14:18:54.855Z</time>
      </trkpt>
      <trkpt lat="50.43796" lon="3.03601">
        <ele>25</ele>
        <time>2022-11-11T14:18:55.439Z</time>
      </trkpt>
      <trkpt lat="50.43795" lon="3.0362">
        <ele>25</ele>
        <time>2022-11-11T14:18:56.024Z</time>
      </trkpt>
      <trkpt lat="50.43796" lon="3.03639">
        <ele>25</ele>
        <time>2022-11-11T14:18:56.611Z</time>
      </trkpt>
      <trkpt lat="50.43798" lon="3.03663">
        <ele>25</ele>
        <time>2022-11-11T14:18:57.200Z</time>
      </trkpt>
      <trkpt lat="50.43805" lon="3.03744">
        <ele>24</ele>
        <time>2022-11-11T14:18:57.797Z</time>
      </trkpt>
      <trkpt lat="50.43796" lon="3.03807">
        <ele>24</ele>
        <time>2022-11-11T14:18:58.400Z</time>
      </trkpt>
      <trkpt lat="50.43796" lon="3.03854">
        <ele>24</ele>
        <time>2022-11-11T14:18:59.007Z</time>
      </trkpt>
      <trkpt lat="50.438" lon="3.03885">
        <ele>24</ele>
        <time>2022-11-11T14:18:59.617Z</time>
      </trkpt>
      <trkpt lat="50.43804" lon="3.03914">
        <ele>24</ele>
        <time>2022-11-11T14:19:00.229Z</time>
      </trkpt>
      <trkpt lat="50.43813" lon="3.03947">
        <ele>24</ele>
        <time>2022-11-11T14:19:00.845Z</time>
      </trkpt>
      <trkpt lat="50.43821" lon="3.03963">
        <ele>24</ele>
        <time>2022-11-11T14:19:01.463Z</time>
      </trkpt>
      <trkpt lat="50.43839" lon="3.03991">
        <ele>24</ele>
        <time>2022-11-11T14:19:02.084Z</time>
      </trkpt>
      <trkpt lat="50.43861" lon="3.04025">
        <ele>24</ele>
        <time>2022-11-11T14:19:02.710Z</time>
      </trkpt>
      <trkpt lat="50.43887" lon="3.04045">
        <ele>24</ele>
        <time>2022-11-11T14:19:03.340Z</time>
      </trkpt>
      <trkpt lat="50.43894" lon="3.04057">
        <ele>24</ele>
        <time>2022-11-11T14:19:03.971Z</time>
      </trkpt>
      <trkpt lat="50.43935" lon="3.04153">
        <ele>24</ele>
        <time>2022-11-11T14:19:04.613Z</time>
      </trkpt>
      <trkpt lat="50.43935" lon="3.04161">
        <ele>24</ele>
        <time>2022-11-11T14:19:05.255Z</time>
      </trkpt>
      <trkpt lat="50.43897" lon="3.04262">
        <ele>24</ele>
        <time>2022-11-11T14:19:05.908Z</time>
      </trkpt>
      <trkpt lat="50.43895" lon="3.04281">
        <ele>24</ele>
        <time>2022-11-11T14:19:06.563Z</time>
      </trkpt>
      <trkpt lat="50.43894" lon="3.04302">
        <ele>24</ele>
        <time>2022-11-11T14:19:07.220Z</time>
      </trkpt>
      <trkpt lat="50.43897" lon="3.04337">
        <ele>24</ele>
        <time>2022-11-11T14:19:07.880Z</time>
      </trkpt>
      <trkpt lat="50.43901" lon="3.04358">
        <ele>24</ele>
        <time>2022-11-11T14:19:08.542Z</time>
      </trkpt>
      <trkpt lat="50.43908" lon="3.04386">
        <ele>24</ele>
        <time>2022-11-11T14:19:09.207Z</time>
      </trkpt>
      <trkpt lat="50.43945" lon="3.04513">
        <ele>24</ele>
        <time>2022-11-11T14:19:09.884Z</time>
      </trkpt>
      <trkpt lat="50.43947" lon="3.04524">
        <ele>24</ele>
        <time>2022-11-11T14:19:10.562Z</time>
      </trkpt>
      <trkpt lat="50.43964" lon="3.04622">
        <ele>24</ele>
        <time>2022-11-11T14:19:11.249Z</time>
      </trkpt>
      <trkpt lat="50.43966" lon="3.04638">
        <ele>24</ele>
        <time>2022-11-11T14:19:11.938Z</time>
      </trkpt>
      <trkpt lat="50.43973" lon="3.04668">
        <ele>24</ele>
        <time>2022-11-11T14:19:12.630Z</time>
      </trkpt>
      <trkpt lat="50.43975" lon="3.04684">
        <ele>24</ele>
        <time>2022-11-11T14:19:13.323Z</time>
      </trkpt>
      <trkpt lat="50.43973" lon="3.04705">
        <ele>24</ele>
        <time>2022-11-11T14:19:14.018Z</time>
      </trkpt>
      <trkpt lat="50.43967" lon="3.04718">
        <ele>24</ele>
        <time>2022-11-11T14:19:14.715Z</time>
      </trkpt>
      <trkpt lat="50.43966" lon="3.04728">
        <ele>24</ele>
        <time>2022-11-11T14:19:15.413Z</time>
      </trkpt>
      <trkpt lat="50.43968" lon="3.04741">
        <ele>24</ele>
        <time>2022-11-11T14:19:16.112Z</time>
      </trkpt>
      <trkpt lat="50.43971" lon="3.04749">
        <ele>24</ele>
        <time>2022-11-11T14:19:16.812Z</time>
      </trkpt>
      <trkpt lat="50.43981" lon="3.04757">
        <ele>24</ele>
        <time>2022-11-11T14:19:17.513Z</time>
      </trkpt>
      <trkpt lat="50.43983" lon="3.04764">
        <ele>24</ele>
        <time>2022-11-11T14:19:18.215Z</time>
      </trkpt>
      <trkpt lat="50.43985" lon="3.04821">
        <ele>24</ele>
        <time>2022-11-11T14:19:18.922Z</time>
      </trkpt>
      <trkpt lat="50.43991" lon="3.04857">
        <ele>24</ele>
        <time>2022-11-11T14:19:19.632Z</time>
      </trkpt>
      <trkpt lat="50.43992" lon="3.04917">
        <ele>24</ele>
        <time>2022-11-11T14:19:20.348Z</time>
      </trkpt>
      <trkpt lat="50.43978" lon="3.05116">
        <ele>24</ele>
        <time>2022-11-11T14:19:21.082Z</time>
      </trkpt>
      <trkpt lat="50.43977" lon="3.05169">
        <ele>24</ele>
        <time>2022-11-11T14:19:21.821Z</time>
      </trkpt>
      <trkpt lat="50.43978" lon="3.05211">
        <ele>24</ele>
        <time>2022-11-11T14:19:22.564Z</time>
      </trkpt>
      <trkpt lat="50.43995" lon="3.05402">
        <ele>24</ele>
        <time>2022-11-11T14:19:23.324Z</time>
      </trkpt>
      <trkpt lat="50.43995" lon="3.05402">
        <ele>24</ele>
        <time>2022-11-11T14:19:24.084Z</time>
      </trkpt>
      <trkpt lat="50.43997" lon="3.05429">
        <ele>24</ele>
        <time>2022-11-11T14:19:24.847Z</time>
      </trkpt>
      <trkpt lat="50.44004" lon="3.05508">
        <ele>25</ele>
        <time>2022-11-11T14:19:25.617Z</time>
      </trkpt>
      <trkpt lat="50.44006" lon="3.05563">
        <ele>25</ele>
        <time>2022-11-11T14:19:26.392Z</time>
      </trkpt>
      <trkpt lat="50.44004" lon="3.05723">
        <ele>25</ele>
        <time>2022-11-11T14:19:27.181Z</time>
      </trkpt>
      <trkpt lat="50.44" lon="3.05729">
        <ele>25</ele>
        <time>2022-11-11T14:19:27.971Z</time>
      </trkpt>
      <trkpt lat="50.44002" lon="3.05734">
        <ele>25</ele>
        <time>2022-11-11T14:19:28.762Z</time>
      </trkpt>
      <trkpt lat="50.44004" lon="3.05735">
        <ele>25</ele>
        <time>2022-11-11T14:19:29.553Z</time>
      </trkpt>
      <trkpt lat="50.44009" lon="3.05734">
        <ele>25</ele>
        <time>2022-11-11T14:19:30.345Z</time>
      </trkpt>
      <trkpt lat="50.4401" lon="3.05739">
        <ele>25</ele>
        <time>2022-11-11T14:19:31.137Z</time>
      </trkpt>
      <trkpt lat="50.44025" lon="3.05755">
        <ele>25</ele>
        <time>2022-11-11T14:19:31.932Z</time>
      </trkpt>
      <trkpt lat="50.4411" lon="3.05844">
        <ele>25</ele>
        <time>2022-11-11T14:19:32.741Z</time>
      </trkpt>
      <trkpt lat="50.44105" lon="3.0585">
        <ele>25</ele>
        <time>2022-11-11T14:19:33.551Z</time>
      </trkpt>
      <trkpt lat="50.44105" lon="3.05857">
        <ele>25</ele>
        <time>2022-11-11T14:19:34.362Z</time>
      </trkpt>
      <trkpt lat="50.44109" lon="3.05867">
        <ele>25</ele>
        <time>2022-11-11T14:19:35.174Z</time>
      </trkpt>
      <trkpt lat="50.44116" lon="3.05873">
        <ele>25</ele>
        <time>2022-11-11T14:19:35.987Z</time>
      </trkpt>
      <trkpt lat="50.4412" lon="3.05871">
        <ele>25</ele>
        <time>2022-11-11T14:19:36.800Z</time>
      </trkpt>
      <trkpt lat="50.4413" lon="3.05888">
        <ele>25</ele>
        <time>2022-11-11T14:19:37.615Z</time>
      </trkpt>
      <trkpt lat="50.44222" lon="3.06004">
        <ele>25</ele>
        <time>2022-11-11T14:19:38.447Z</time>
      </trkpt>
      <trkpt lat="50.44271" lon="3.06069">
        <ele>25</ele>
        <time>2022-11-11T14:19:39.288Z</time>
      </trkpt>
      <trkpt lat="50.44303" lon="3.06107">
        <ele>25</ele>
        <time>2022-11-11T14:19:40.135Z</time>
      </trkpt>
      <trkpt lat="50.4431" lon="3.06123">
        <ele>25</ele>
        <time>2022-11-11T14:19:40.984Z</time>
      </trkpt>
      <trkpt lat="50.44311" lon="3.06132">
        <ele>25</ele>
        <time>2022-11-11T14:19:41.834Z</time>
      </trkpt>
      <trkpt lat="50.44313" lon="3.06141">
        <ele>25</ele>
        <time>2022-11-11T14:19:42.685Z</time>
      </trkpt>
      <trkpt lat="50.44311" lon="3.0616">
        <ele>25</ele>
        <time>2022-11-11T14:19:43.537Z</time>
      </trkpt>
      <trkpt lat="50.44308" lon="3.06177">
        <ele>25</ele>
        <time>2022-11-11T14:19:44.391Z</time>
      </trkpt>
      <trkpt lat="50.44279" lon="3.06243">
        <ele>25</ele>
        <time>2022-11-11T14:19:45.252Z</time>
      </trkpt>
      <trkpt lat="50.44272" lon="3.06263">
        <ele>26</ele>
        <time>2022-11-11T14:19:46.115Z</time>
      </trkpt>
      <trkpt lat="50.4426" lon="3.06307">
        <ele>26</ele>
        <time>2022-11-11T14:19:46.983Z</time>
      </trkpt>
      <trkpt lat="50.44257" lon="3.06308">
        <ele>26</ele>
        <time>2022-11-11T14:19:47.851Z</time>
      </trkpt>
      <trkpt lat="50.44254" lon="3.0631">
        <ele>26</ele>
        <time>2022-11-11T14:19:48.720Z</time>
      </trkpt>
      <trkpt lat="50.44252" lon="3.06316">
        <ele>26</ele>
        <time>2022-11-11T14:19:49.589Z</time>
      </trkpt>
      <trkpt lat="50.44252" lon="3.06321">
        <ele>27</ele>
        <time>2022-11-11T14:19:50.459Z</time>
      </trkpt>
      <trkpt lat="50.44257" lon="3.06329">
        <ele>27</ele>
        <time>2022-11-11T14:19:51.329Z</time>
      </trkpt>
      <trkpt lat="50.4426" lon="3.06329">
        <ele>28</ele>
        <time>2022-11-11T14:19:52.200Z</time>
      </trkpt>
      <trkpt lat="50.44263" lon="3.06325">
        <ele>29</ele>
        <time>2022-11-11T14:19:53.071Z</time>
      </trkpt>
      <trkpt lat="50.44265" lon="3.0632">
        <ele>30</ele>
        <time>2022-11-11T14:19:53.943Z</time>
      </trkpt>
      <trkpt lat="50.44277" lon="3.06325">
        <ele>30</ele>
        <time>2022-11-11T14:19:54.817Z</time>
      </trkpt>
      <trkpt lat="50.44291" lon="3.06332">
        <ele>32</ele>
        <time>2022-11-11T14:19:55.693Z</time>
      </trkpt>
      <trkpt lat="50.44304" lon="3.06347">
        <ele>33</ele>
        <time>2022-11-11T14:19:56.571Z</time>
      </trkpt>
      <trkpt lat="50.44369" lon="3.0643">
        <ele>34</ele>
        <time>2022-11-11T14:19:57.461Z</time>
      </trkpt>
      <trkpt lat="50.44373" lon="3.06433">
        <ele>36</ele>
        <time>2022-11-11T14:19:58.352Z</time>
      </trkpt>
      <trkpt lat="50.44525" lon="3.06636">
        <ele>38</ele>
        <time>2022-11-11T14:19:59.271Z</time>
      </trkpt>
      <trkpt lat="50.4454" lon="3.06667">
        <ele>39</ele>
        <time>2022-11-11T14:20:00.194Z</time>
      </trkpt>
      <trkpt lat="50.4457" lon="3.06743">
        <ele>41</ele>
        <time>2022-11-11T14:20:01.125Z</time>
      </trkpt>
      <trkpt lat="50.44643" lon="3.06933">
        <ele>44</ele>
        <time>2022-11-11T14:20:02.076Z</time>
      </trkpt>
      <trkpt lat="50.44646" lon="3.06938">
        <ele>46</ele>
        <time>2022-11-11T14:20:03.027Z</time>
      </trkpt>
      <trkpt lat="50.44663" lon="3.06981">
        <ele>48</ele>
        <time>2022-11-11T14:20:03.983Z</time>
      </trkpt>
      <trkpt lat="50.44711" lon="3.07067">
        <ele>50</ele>
        <time>2022-11-11T14:20:04.949Z</time>
      </trkpt>
      <trkpt lat="50.44711" lon="3.07067">
        <ele>52</ele>
        <time>2022-11-11T14:20:05.915Z</time>
      </trkpt>
      <trkpt lat="50.44732" lon="3.07097">
        <ele>54</ele>
        <time>2022-11-11T14:20:06.885Z</time>
      </trkpt>
      <trkpt lat="50.4474" lon="3.07115">
        <ele>56</ele>
        <time>2022-11-11T14:20:07.857Z</time>
      </trkpt>
      <trkpt lat="50.44851" lon="3.07298">
        <ele>59</ele>
        <time>2022-11-11T14:20:08.852Z</time>
      </trkpt>
      <trkpt lat="50.44902" lon="3.07387">
        <ele>61</ele>
        <time>2022-11-11T14:20:09.858Z</time>
      </trkpt>
      <trkpt lat="50.44911" lon="3.07401">
        <ele>62</ele>
        <time>2022-11-11T14:20:10.866Z</time>
      </trkpt>
      <trkpt lat="50.4492" lon="3.07403">
        <ele>64</ele>
        <time>2022-11-11T14:20:11.875Z</time>
      </trkpt>
      <trkpt lat="50.44928" lon="3.07401">
        <ele>66</ele>
        <time>2022-11-11T14:20:12.885Z</time>
      </trkpt>
      <trkpt lat="50.44946" lon="3.07397">
        <ele>67</ele>
        <time>2022-11-11T14:20:13.898Z</time>
      </trkpt>
      <trkpt lat="50.44955" lon="3.07401">
        <ele>69</ele>
        <time>2022-11-11T14:20:14.912Z</time>
      </trkpt>
      <trkpt lat="50.44964" lon="3.07408">
        <ele>70</ele>
        <time>2022-11-11T14:20:15.928Z</time>
      </trkpt>
      <trkpt lat="50.45018" lon="3.0749">
        <ele>71</ele>
        <time>2022-11-11T14:20:16.954Z</time>
      </trkpt>
      <trkpt lat="50.45042" lon="3.07534">
        <ele>73</ele>
        <time>2022-11-11T14:20:17.986Z</time>
      </trkpt>
      <trkpt lat="50.45065" lon="3.07559">
        <ele>74</ele>
        <time>2022-11-11T14:20:19.022Z</time>
      </trkpt>
      <trkpt lat="50.45091" lon="3.07567">
        <ele>74</ele>
        <time>2022-11-11T14:20:20.061Z</time>
      </trkpt>
      <trkpt lat="50.45117" lon="3.07569">
        <ele>75</ele>
        <time>2022-11-11T14:20:21.104Z</time>
      </trkpt>
      <trkpt lat="50.45147" lon="3.07566">
        <ele>76</ele>
        <time>2022-11-11T14:20:22.151Z</time>
      </trkpt>
      <trkpt lat="50.45165" lon="3.0757">
        <ele>76</ele>
        <time>2022-11-11T14:20:23.201Z</time>
      </trkpt>
      <trkpt lat="50.45184" lon="3.0759">
        <ele>76</ele>
        <time>2022-11-11T14:20:24.254Z</time>
      </trkpt>
      <trkpt lat="50.45201" lon="3.0762">
        <ele>77</ele>
        <time>2022-11-11T14:20:25.311Z</time>
      </trkpt>
      <trkpt lat="50.45201" lon="3.0762">
        <ele>77</ele>
        <time>2022-11-11T14:20:26.368Z</time>
      </trkpt>
      <trkpt lat="50.4524" lon="3.07688">
        <ele>77</ele>
        <time>2022-11-11T14:20:27.433Z</time>
      </trkpt>
      <trkpt lat="50.45276" lon="3.07748">
        <ele>76</ele>
        <time>2022-11-11T14:20:28.506Z</time>
      </trkpt>
      <trkpt lat="50.45301" lon="3.07805">
        <ele>76</ele>
        <time>2022-11-11T14:20:29.585Z</time>
      </trkpt>
      <trkpt lat="50.45346" lon="3.07922">
        <ele>76</ele>
        <time>2022-11-11T14:20:30.676Z</time>
      </trkpt>
      <trkpt lat="50.45349" lon="3.07928">
        <ele>76</ele>
        <time>2022-11-11T14:20:31.768Z</time>
      </trkpt>
      <trkpt lat="50.45359" lon="3.07958">
        <ele>76</ele>
        <time>2022-11-11T14:20:32.863Z</time>
      </trkpt>
      <trkpt lat="50.45373" lon="3.08018">
        <ele>76</ele>
        <time>2022-11-11T14:20:33.964Z</time>
      </trkpt>
      <trkpt lat="50.45406" lon="3.08093">
        <ele>76</ele>
        <time>2022-11-11T14:20:35.073Z</time>
      </trkpt>
      <trkpt lat="50.45442" lon="3.08211">
        <ele>75</ele>
        <time>2022-11-11T14:20:36.194Z</time>
      </trkpt>
      <trkpt lat="50.45454" lon="3.0824">
        <ele>75</ele>
        <time>2022-11-11T14:20:37.318Z</time>
      </trkpt>
      <trkpt lat="50.45458" lon="3.08247">
        <ele>75</ele>
        <time>2022-11-11T14:20:38.443Z</time>
      </trkpt>
      <trkpt lat="50.45458" lon="3.08247">
        <ele>75</ele>
        <time>2022-11-11T14:20:39.568Z</time>
      </trkpt>
      <trkpt lat="50.45458" lon="3.08247">
        <ele>74</ele>
        <time>2022-11-11T14:20:40.693Z</time>
      </trkpt>
      <trkpt lat="50.45463" lon="3.08255">
        <ele>74</ele>
        <time>2022-11-11T14:20:41.819Z</time>
      </trkpt>
      <trkpt lat="50.45472" lon="3.08267">
        <ele>73</ele>
        <time>2022-11-11T14:20:42.947Z</time>
      </trkpt>
      <trkpt lat="50.45486" lon="3.08285">
        <ele>73</ele>
        <time>2022-11-11T14:20:44.077Z</time>
      </trkpt>
      <trkpt lat="50.45502" lon="3.08308">
        <ele>73</ele>
        <time>2022-11-11T14:20:45.210Z</time>
      </trkpt>
      <trkpt lat="50.45511" lon="3.08324">
        <ele>73</ele>
        <time>2022-11-11T14:20:46.345Z</time>
      </trkpt>
      <trkpt lat="50.45552" lon="3.08434">
        <ele>72</ele>
        <time>2022-11-11T14:20:47.492Z</time>
      </trkpt>
      <trkpt lat="50.45558" lon="3.08447">
        <ele>72</ele>
        <time>2022-11-11T14:20:48.640Z</time>
      </trkpt>
      <trkpt lat="50.45568" lon="3.08461">
        <ele>72</ele>
        <time>2022-11-11T14:20:49.790Z</time>
      </trkpt>
      <trkpt lat="50.45602" lon="3.08503">
        <ele>71</ele>
        <time>2022-11-11T14:20:50.946Z</time>
      </trkpt>
      <trkpt lat="50.45655" lon="3.08588">
        <ele>71</ele>
        <time>2022-11-11T14:20:52.113Z</time>
      </trkpt>
      <trkpt lat="50.45661" lon="3.08596">
        <ele>70</ele>
        <time>2022-11-11T14:20:53.281Z</time>
      </trkpt>
      <trkpt lat="50.4568" lon="3.08611">
        <ele>70</ele>
        <time>2022-11-11T14:20:54.452Z</time>
      </trkpt>
      <trkpt lat="50.4569" lon="3.08614">
        <ele>69</ele>
        <time>2022-11-11T14:20:55.625Z</time>
      </trkpt>
      <trkpt lat="50.45698" lon="3.08621">
        <ele>69</ele>
        <time>2022-11-11T14:20:56.799Z</time>
      </trkpt>
      <trkpt lat="50.45718" lon="3.08634">
        <ele>68</ele>
        <time>2022-11-11T14:20:57.976Z</time>
      </trkpt>
      <trkpt lat="50.45735" lon="3.0865">
        <ele>67</ele>
        <time>2022-11-11T14:20:59.156Z</time>
      </trkpt>
      <trkpt lat="50.45768" lon="3.08687">
        <ele>66</ele>
        <time>2022-11-11T14:21:00.342Z</time>
      </trkpt>
      <trkpt lat="50.45792" lon="3.08724">
        <ele>65</ele>
        <time>2022-11-11T14:21:01.532Z</time>
      </trkpt>
      <trkpt lat="50.45821" lon="3.08754">
        <ele>64</ele>
        <time>2022-11-11T14:21:02.727Z</time>
      </trkpt>
      <trkpt lat="50.45905" lon="3.08818">
        <ele>63</ele>
        <time>2022-11-11T14:21:03.935Z</time>
      </trkpt>
      <trkpt lat="50.45923" lon="3.08827">
        <ele>61</ele>
        <time>2022-11-11T14:21:05.146Z</time>
      </trkpt>
      <trkpt lat="50.45958" lon="3.08845">
        <ele>60</ele>
        <time>2022-11-11T14:21:06.362Z</time>
      </trkpt>
      <trkpt lat="50.46068" lon="3.09017">
        <ele>57</ele>
        <time>2022-11-11T14:21:08.827Z</time>
      </trkpt>
      <trkpt lat="50.46109" lon="3.0912">
        <ele>56</ele>
        <time>2022-11-11T14:21:10.077Z</time>
      </trkpt>
      <trkpt lat="50.46145" lon="3.09214">
        <ele>54</ele>
        <time>2022-11-11T14:21:11.337Z</time>
      </trkpt>
      <trkpt lat="50.46193" lon="3.09341">
        <ele>53</ele>
        <time>2022-11-11T14:21:12.610Z</time>
      </trkpt>
      <trkpt lat="50.46242" lon="3.09507">
        <ele>51</ele>
        <time>2022-11-11T14:21:13.899Z</time>
      </trkpt>
      <trkpt lat="50.46247" lon="3.09521">
        <ele>50</ele>
        <time>2022-11-11T14:21:15.190Z</time>
      </trkpt>
      <trkpt lat="50.46273" lon="3.09583">
        <ele>49</ele>
        <time>2022-11-11T14:21:16.488Z</time>
      </trkpt>
      <trkpt lat="50.46347" lon="3.09686">
        <ele>47</ele>
        <time>2022-11-11T14:21:17.800Z</time>
      </trkpt>
      <trkpt lat="50.46368" lon="3.09717">
        <ele>46</ele>
        <time>2022-11-11T14:21:19.116Z</time>
      </trkpt>
      <trkpt lat="50.46399" lon="3.09747">
        <ele>45</ele>
        <time>2022-11-11T14:21:20.437Z</time>
      </trkpt>
      <trkpt lat="50.46459" lon="3.09815">
        <ele>45</ele>
        <time>2022-11-11T14:21:21.769Z</time>
      </trkpt>
      <trkpt lat="50.46587" lon="3.0996">
        <ele>44</ele>
        <time>2022-11-11T14:21:23.123Z</time>
      </trkpt>
      <trkpt lat="50.46677" lon="3.10051">
        <ele>43</ele>
        <time>2022-11-11T14:21:24.492Z</time>
      </trkpt>
      <trkpt lat="50.46706" lon="3.10075">
        <ele>43</ele>
        <time>2022-11-11T14:21:25.866Z</time>
      </trkpt>
      <trkpt lat="50.46735" lon="3.10097">
        <ele>43</ele>
        <time>2022-11-11T14:21:27.244Z</time>
      </trkpt>
      <trkpt lat="50.46748" lon="3.10104">
        <ele>43</ele>
        <time>2022-11-11T14:21:28.624Z</time>
      </trkpt>
      <trkpt lat="50.46753" lon="3.10107">
        <ele>44</ele>
        <time>2022-11-11T14:21:30.005Z</time>
      </trkpt>
      <trkpt lat="50.46802" lon="3.10131">
        <ele>44</ele>
        <time>2022-11-11T14:21:31.393Z</time>
      </trkpt>
      <trkpt lat="50.46851" lon="3.10146">
        <ele>45</ele>
        <time>2022-11-11T14:21:32.789Z</time>
      </trkpt>
      <trkpt lat="50.46988" lon="3.10178">
        <ele>46</ele>
        <time>2022-11-11T14:21:34.204Z</time>
      </trkpt>
      <trkpt lat="50.47103" lon="3.10206">
        <ele>48</ele>
        <time>2022-11-11T14:21:35.636Z</time>
      </trkpt>
      <trkpt lat="50.47279" lon="3.10285">
        <ele>49</ele>
        <time>2022-11-11T14:21:37.094Z</time>
      </trkpt>
      <trkpt lat="50.47279" lon="3.10285">
        <ele>51</ele>
        <time>2022-11-11T14:21:38.552Z</time>
      </trkpt>
      <trkpt lat="50.47358" lon="3.1032">
        <ele>52</ele>
        <time>2022-11-11T14:21:40.021Z</time>
      </trkpt>
      <trkpt lat="50.47401" lon="3.10329">
        <ele>54</ele>
        <time>2022-11-11T14:21:41.497Z</time>
      </trkpt>
      <trkpt lat="50.4743" lon="3.10334">
        <ele>56</ele>
        <time>2022-11-11T14:21:42.977Z</time>
      </trkpt>
      <trkpt lat="50.47451" lon="3.10333">
        <ele>58</ele>
        <time>2022-11-11T14:21:44.460Z</time>
      </trkpt>
      <trkpt lat="50.4749" lon="3.10332">
        <ele>60</ele>
        <time>2022-11-11T14:21:45.948Z</time>
      </trkpt>
      <trkpt lat="50.47526" lon="3.10324">
        <ele>62</ele>
        <time>2022-11-11T14:21:47.441Z</time>
      </trkpt>
      <trkpt lat="50.47529" lon="3.10323">
        <ele>64</ele>
        <time>2022-11-11T14:21:48.935Z</time>
      </trkpt>
      <trkpt lat="50.47593" lon="3.1031">
        <ele>66</ele>
        <time>2022-11-11T14:21:50.438Z</time>
      </trkpt>
      <trkpt lat="50.47665" lon="3.10296">
        <ele>68</ele>
        <time>2022-11-11T14:21:51.951Z</time>
      </trkpt>
      <trkpt lat="50.47705" lon="3.10307">
        <ele>70</ele>
        <time>2022-11-11T14:21:53.470Z</time>
      </trkpt>
      <trkpt lat="50.47738" lon="3.10322">
        <ele>71</ele>
        <time>2022-11-11T14:21:54.994Z</time>
      </trkpt>
      <trkpt lat="50.4777" lon="3.10348">
        <ele>73</ele>
        <time>2022-11-11T14:21:56.523Z</time>
      </trkpt>
      <trkpt lat="50.47777" lon="3.10352">
        <ele>74</ele>
        <time>2022-11-11T14:21:58.053Z</time>
      </trkpt>
      <trkpt lat="50.47892" lon="3.10438">
        <ele>75</ele>
        <time>2022-11-11T14:21:59.601Z</time>
      </trkpt>
      <trkpt lat="50.47931" lon="3.10459">
        <ele>76</ele>
        <time>2022-11-11T14:22:01.155Z</time>
      </trkpt>
      <trkpt lat="50.47932" lon="3.10466">
        <ele>76</ele>
        <time>2022-11-11T14:22:02.710Z</time>
      </trkpt>
      <trkpt lat="50.47937" lon="3.10471">
        <ele>76</ele>
        <time>2022-11-11T14:22:04.265Z</time>
      </trkpt>
      <trkpt lat="50.47942" lon="3.1047">
        <ele>77</ele>
        <time>2022-11-11T14:22:05.821Z</time>
      </trkpt>
      <trkpt lat="50.47957" lon="3.10501">
        <ele>76</ele>
        <time>2022-11-11T14:22:07.381Z</time>
        <extensions>
          <visugpx:TrkExtension xmlns:visugpx="https://www.visugpx.com/editgpx/">
            <visugpx:node>1</visugpx:node>
            </visugpx:TrkExtension>
        </extensions>
      </trkpt>
      <trkpt lat="50.47957" lon="3.10501">
        <ele>76</ele>
        <time>2022-11-11T14:22:07.381Z</time>
      </trkpt>
      <trkpt lat="50.47957" lon="3.10501">
        <ele>76</ele>
        <time>2022-11-11T14:24:11.535Z</time>
      </trkpt>
      <trkpt lat="50.47942" lon="3.1047">
        <ele>77</ele>
        <time>2022-11-11T14:24:13.571Z</time>
      </trkpt>
      <trkpt lat="50.47942" lon="3.1047">
        <ele>77</ele>
        <time>2022-11-11T14:24:15.607Z</time>
      </trkpt>
      <trkpt lat="50.47945" lon="3.10466">
        <ele>77</ele>
        <time>2022-11-11T14:24:17.643Z</time>
      </trkpt>
      <trkpt lat="50.47946" lon="3.10459">
        <ele>77</ele>
        <time>2022-11-11T14:24:19.680Z</time>
      </trkpt>
      <trkpt lat="50.47959" lon="3.1046">
        <ele>77</ele>
        <time>2022-11-11T14:24:21.719Z</time>
      </trkpt>
      <trkpt lat="50.4799" lon="3.10457">
        <ele>76</ele>
        <time>2022-11-11T14:24:23.762Z</time>
      </trkpt>
      <trkpt lat="50.4799" lon="3.10457">
        <ele>76</ele>
        <time>2022-11-11T14:24:25.805Z</time>
      </trkpt>
      <trkpt lat="50.48327" lon="3.10406">
        <ele>75</ele>
        <time>2022-11-11T14:24:27.896Z</time>
      </trkpt>
      <trkpt lat="50.48327" lon="3.10406">
        <ele>74</ele>
        <time>2022-11-11T14:24:29.987Z</time>
      </trkpt>
      <trkpt lat="50.48523" lon="3.10384">
        <ele>73</ele>
        <time>2022-11-11T14:24:32.106Z</time>
      </trkpt>
      <trkpt lat="50.48604" lon="3.10377">
        <ele>72</ele>
        <time>2022-11-11T14:24:34.236Z</time>
      </trkpt>
      <trkpt lat="50.48643" lon="3.10372">
        <ele>70</ele>
        <time>2022-11-11T14:24:36.372Z</time>
      </trkpt>
      <trkpt lat="50.48706" lon="3.1036">
        <ele>69</ele>
        <time>2022-11-11T14:24:38.517Z</time>
      </trkpt>
      <trkpt lat="50.49055" lon="3.10252">
        <ele>67</ele>
        <time>2022-11-11T14:24:42.899Z</time>
      </trkpt>
      <trkpt lat="50.49109" lon="3.10245">
        <ele>65</ele>
        <time>2022-11-11T14:24:45.102Z</time>
      </trkpt>
      <trkpt lat="50.4912" lon="3.10246">
        <ele>64</ele>
        <time>2022-11-11T14:24:47.307Z</time>
      </trkpt>
      <trkpt lat="50.4912" lon="3.10246">
        <ele>62</ele>
        <time>2022-11-11T14:24:49.512Z</time>
      </trkpt>
      <trkpt lat="50.4912" lon="3.10246">
        <ele>64</ele>
        <time>2022-11-11T14:24:51.717Z</time>
      </trkpt>
      <trkpt lat="50.49175" lon="3.10251">
        <ele>59</ele>
        <time>2022-11-11T14:24:53.930Z</time>
      </trkpt>
      <trkpt lat="50.49352" lon="3.10323">
        <ele>57</ele>
        <time>2022-11-11T14:24:56.169Z</time>
      </trkpt>
      <trkpt lat="50.49432" lon="3.10357">
        <ele>55</ele>
        <time>2022-11-11T14:24:58.419Z</time>
      </trkpt>
      <trkpt lat="50.49564" lon="3.10451">
        <ele>54</ele>
        <time>2022-11-11T14:25:00.690Z</time>
      </trkpt>
      <trkpt lat="50.49603" lon="3.10476">
        <ele>52</ele>
        <time>2022-11-11T14:25:02.967Z</time>
      </trkpt>
      <trkpt lat="50.49778" lon="3.10597">
        <ele>51</ele>
        <time>2022-11-11T14:25:05.271Z</time>
      </trkpt>
      <trkpt lat="50.49778" lon="3.10597">
        <ele>50</ele>
        <time>2022-11-11T14:25:07.575Z</time>
      </trkpt>
      <trkpt lat="50.4986" lon="3.10653">
        <ele>49</ele>
        <time>2022-11-11T14:25:09.892Z</time>
      </trkpt>
      <trkpt lat="50.49978" lon="3.1073">
        <ele>48</ele>
        <time>2022-11-11T14:25:12.227Z</time>
      </trkpt>
      <trkpt lat="50.49978" lon="3.1073">
        <ele>47</ele>
        <time>2022-11-11T14:25:14.562Z</time>
      </trkpt>
      <trkpt lat="50.50004" lon="3.10746">
        <ele>46</ele>
        <time>2022-11-11T14:25:16.901Z</time>
      </trkpt>
      <trkpt lat="50.50043" lon="3.10761">
        <ele>45</ele>
        <time>2022-11-11T14:25:19.246Z</time>
      </trkpt>
      <trkpt lat="50.50073" lon="3.10767">
        <ele>45</ele>
        <time>2022-11-11T14:25:21.595Z</time>
      </trkpt>
      <trkpt lat="50.50208" lon="3.10777">
        <ele>44</ele>
        <time>2022-11-11T14:25:23.963Z</time>
      </trkpt>
      <trkpt lat="50.5025" lon="3.10789">
        <ele>44</ele>
        <time>2022-11-11T14:25:26.337Z</time>
      </trkpt>
      <trkpt lat="50.50298" lon="3.10812">
        <ele>43</ele>
        <time>2022-11-11T14:25:28.718Z</time>
      </trkpt>
      <trkpt lat="50.5035" lon="3.10843">
        <ele>43</ele>
        <time>2022-11-11T14:25:31.107Z</time>
      </trkpt>
      <trkpt lat="50.50399" lon="3.10877">
        <ele>43</ele>
        <time>2022-11-11T14:25:33.504Z</time>
      </trkpt>
      <trkpt lat="50.50429" lon="3.109">
        <ele>42</ele>
        <time>2022-11-11T14:25:35.906Z</time>
      </trkpt>
      <trkpt lat="50.50443" lon="3.10911">
        <ele>42</ele>
        <time>2022-11-11T14:25:38.310Z</time>
      </trkpt>
      <trkpt lat="50.50466" lon="3.10928">
        <ele>42</ele>
        <time>2022-11-11T14:25:40.717Z</time>
      </trkpt>
      <trkpt lat="50.50481" lon="3.10942">
        <ele>42</ele>
        <time>2022-11-11T14:25:43.127Z</time>
      </trkpt>
      <trkpt lat="50.50497" lon="3.10961">
        <ele>42</ele>
        <time>2022-11-11T14:25:45.540Z</time>
      </trkpt>
      <trkpt lat="50.50511" lon="3.10976">
        <ele>42</ele>
        <time>2022-11-11T14:25:47.955Z</time>
      </trkpt>
      <trkpt lat="50.50543" lon="3.10974">
        <ele>42</ele>
        <time>2022-11-11T14:25:50.375Z</time>
      </trkpt>
      <trkpt lat="50.50641" lon="3.11008">
        <ele>42</ele>
        <time>2022-11-11T14:25:52.809Z</time>
      </trkpt>
      <trkpt lat="50.50692" lon="3.10798">
        <ele>41</ele>
        <time>2022-11-11T14:25:55.263Z</time>
      </trkpt>
      <trkpt lat="50.50719" lon="3.1069">
        <ele>41</ele>
        <time>2022-11-11T14:25:57.728Z</time>
      </trkpt>
      <trkpt lat="50.50725" lon="3.1067">
        <ele>41</ele>
        <time>2022-11-11T14:26:00.195Z</time>
      </trkpt>
      <trkpt lat="50.5079" lon="3.10665">
        <ele>41</ele>
        <time>2022-11-11T14:26:02.671Z</time>
      </trkpt>
      <trkpt lat="50.50813" lon="3.10659">
        <ele>41</ele>
        <time>2022-11-11T14:26:05.150Z</time>
      </trkpt>
      <trkpt lat="50.50945" lon="3.10594">
        <ele>41</ele>
        <time>2022-11-11T14:26:07.649Z</time>
      </trkpt>
      <trkpt lat="50.50945" lon="3.10594">
        <ele>41</ele>
        <time>2022-11-11T14:26:10.148Z</time>
      </trkpt>
      <trkpt lat="50.50945" lon="3.10594">
        <ele>41</ele>
        <time>2022-11-11T14:26:12.647Z</time>
      </trkpt>
      <trkpt lat="50.50996" lon="3.10569">
        <ele>40</ele>
        <time>2022-11-11T14:26:15.154Z</time>
      </trkpt>
      <trkpt lat="50.51016" lon="3.10564">
        <ele>40</ele>
        <time>2022-11-11T14:26:17.663Z</time>
      </trkpt>
      <trkpt lat="50.51087" lon="3.10578">
        <ele>40</ele>
        <time>2022-11-11T14:26:20.183Z</time>
      </trkpt>
      <trkpt lat="50.51117" lon="3.10576">
        <ele>39</ele>
        <time>2022-11-11T14:26:22.707Z</time>
      </trkpt>
      <trkpt lat="50.51132" lon="3.1057">
        <ele>39</ele>
        <time>2022-11-11T14:26:25.233Z</time>
      </trkpt>
      <trkpt lat="50.51132" lon="3.1057">
        <ele>39</ele>
        <time>2022-11-11T14:26:27.759Z</time>
      </trkpt>
      <trkpt lat="50.51226" lon="3.10485">
        <ele>38</ele>
        <time>2022-11-11T14:26:30.301Z</time>
      </trkpt>
      <trkpt lat="50.51468" lon="3.10258">
        <ele>38</ele>
        <time>2022-11-11T14:26:32.883Z</time>
      </trkpt>
      <trkpt lat="50.51488" lon="3.10235">
        <ele>37</ele>
        <time>2022-11-11T14:26:35.468Z</time>
      </trkpt>
      <trkpt lat="50.51511" lon="3.10219">
        <ele>37</ele>
        <time>2022-11-11T14:26:38.057Z</time>
      </trkpt>
      <trkpt lat="50.51534" lon="3.10213">
        <ele>36</ele>
        <time>2022-11-11T14:26:40.649Z</time>
      </trkpt>
      <trkpt lat="50.51609" lon="3.10202">
        <ele>36</ele>
        <time>2022-11-11T14:26:43.252Z</time>
      </trkpt>
      <trkpt lat="50.51609" lon="3.10202">
        <ele>36</ele>
        <time>2022-11-11T14:26:45.855Z</time>
      </trkpt>
      <trkpt lat="50.51609" lon="3.10202">
        <ele>36</ele>
        <time>2022-11-11T14:26:48.458Z</time>
      </trkpt>
      <trkpt lat="50.51656" lon="3.10195">
        <ele>35</ele>
        <time>2022-11-11T14:26:51.067Z</time>
      </trkpt>
      <trkpt lat="50.51755" lon="3.10141">
        <ele>35</ele>
        <time>2022-11-11T14:26:53.691Z</time>
      </trkpt>
      <trkpt lat="50.51822" lon="3.10357">
        <ele>34</ele>
        <time>2022-11-11T14:26:56.337Z</time>
      </trkpt>
      <trkpt lat="50.5183" lon="3.10485">
        <ele>34</ele>
        <time>2022-11-11T14:26:58.995Z</time>
      </trkpt>
      <trkpt lat="50.5183" lon="3.10485">
        <ele>34</ele>
        <time>2022-11-11T14:27:01.653Z</time>
      </trkpt>
      <trkpt lat="50.5183" lon="3.10485">
        <ele>34</ele>
        <time>2022-11-11T14:27:04.311Z</time>
      </trkpt>
      <trkpt lat="50.51835" lon="3.10548">
        <ele>34</ele>
        <time>2022-11-11T14:27:06.974Z</time>
      </trkpt>
      <trkpt lat="50.51846" lon="3.10594">
        <ele>33</ele>
        <time>2022-11-11T14:27:09.642Z</time>
      </trkpt>
      <trkpt lat="50.51879" lon="3.10629">
        <ele>33</ele>
        <time>2022-11-11T14:27:12.316Z</time>
      </trkpt>
      <trkpt lat="50.51977" lon="3.10775">
        <ele>33</ele>
        <time>2022-11-11T14:27:15.009Z</time>
      </trkpt>
      <trkpt lat="50.52003" lon="3.10785">
        <ele>33</ele>
        <time>2022-11-11T14:27:17.706Z</time>
      </trkpt>
      <trkpt lat="50.52037" lon="3.10775">
        <ele>33</ele>
        <time>2022-11-11T14:27:20.408Z</time>
      </trkpt>
      <trkpt lat="50.5212" lon="3.1072">
        <ele>33</ele>
        <time>2022-11-11T14:27:23.122Z</time>
      </trkpt>
      <trkpt lat="50.52223" lon="3.10665">
        <ele>33</ele>
        <time>2022-11-11T14:27:25.852Z</time>
      </trkpt>
      <trkpt lat="50.52255" lon="3.10671">
        <ele>33</ele>
        <time>2022-11-11T14:27:28.586Z</time>
      </trkpt>
      <trkpt lat="50.52287" lon="3.10774">
        <ele>33</ele>
        <time>2022-11-11T14:27:31.331Z</time>
      </trkpt>
      <trkpt lat="50.52287" lon="3.10774">
        <ele>34</ele>
        <time>2022-11-11T14:27:34.076Z</time>
      </trkpt>
      <trkpt lat="50.52293" lon="3.10849">
        <ele>34</ele>
        <time>2022-11-11T14:27:36.828Z</time>
      </trkpt>
      <trkpt lat="50.52312" lon="3.10898">
        <ele>34</ele>
        <time>2022-11-11T14:27:39.585Z</time>
      </trkpt>
      <trkpt lat="50.52316" lon="3.10908">
        <ele>34</ele>
        <time>2022-11-11T14:27:42.343Z</time>
      </trkpt>
      <trkpt lat="50.52328" lon="3.10938">
        <ele>35</ele>
        <time>2022-11-11T14:27:45.104Z</time>
      </trkpt>
      <trkpt lat="50.5233" lon="3.10941">
        <ele>35</ele>
        <time>2022-11-11T14:27:47.865Z</time>
      </trkpt>
      <trkpt lat="50.52339" lon="3.10954">
        <ele>35</ele>
        <time>2022-11-11T14:27:50.628Z</time>
      </trkpt>
      <trkpt lat="50.52342" lon="3.1096">
        <ele>35</ele>
        <time>2022-11-11T14:27:53.392Z</time>
      </trkpt>
      <trkpt lat="50.52362" lon="3.11026">
        <ele>36</ele>
        <time>2022-11-11T14:27:56.162Z</time>
      </trkpt>
      <trkpt lat="50.52395" lon="3.11149">
        <ele>36</ele>
        <time>2022-11-11T14:27:58.945Z</time>
      </trkpt>
      <trkpt lat="50.52429" lon="3.11209">
        <ele>36</ele>
        <time>2022-11-11T14:28:01.735Z</time>
      </trkpt>
      <trkpt lat="50.52437" lon="3.11205">
        <ele>36</ele>
        <time>2022-11-11T14:28:04.526Z</time>
      </trkpt>
      <trkpt lat="50.52481" lon="3.11166">
        <ele>37</ele>
        <time>2022-11-11T14:28:07.324Z</time>
      </trkpt>
      <trkpt lat="50.52488" lon="3.11152">
        <ele>37</ele>
        <time>2022-11-11T14:28:10.124Z</time>
      </trkpt>
      <trkpt lat="50.52499" lon="3.11153">
        <ele>37</ele>
        <time>2022-11-11T14:28:12.925Z</time>
      </trkpt>
      <trkpt lat="50.52506" lon="3.11148">
        <ele>37</ele>
        <time>2022-11-11T14:28:15.728Z</time>
      </trkpt>
      <trkpt lat="50.52538" lon="3.11118">
        <ele>37</ele>
        <time>2022-11-11T14:28:18.536Z</time>
      </trkpt>
      <trkpt lat="50.52582" lon="3.11068">
        <ele>38</ele>
        <time>2022-11-11T14:28:21.352Z</time>
      </trkpt>
      <trkpt lat="50.52582" lon="3.11068">
        <ele>38</ele>
        <time>2022-11-11T14:28:24.168Z</time>
      </trkpt>
      <trkpt lat="50.52627" lon="3.11016">
        <ele>38</ele>
        <time>2022-11-11T14:28:26.992Z</time>
      </trkpt>
      <trkpt lat="50.52662" lon="3.10978">
        <ele>38</ele>
        <time>2022-11-11T14:28:29.822Z</time>
      </trkpt>
      <trkpt lat="50.52692" lon="3.10942">
        <ele>38</ele>
        <time>2022-11-11T14:28:32.657Z</time>
      </trkpt>
      <trkpt lat="50.52719" lon="3.10913">
        <ele>37</ele>
        <time>2022-11-11T14:28:35.496Z</time>
      </trkpt>
      <trkpt lat="50.52761" lon="3.10865">
        <ele>37</ele>
        <time>2022-11-11T14:28:38.343Z</time>
      </trkpt>
      <trkpt lat="50.52778" lon="3.10846">
        <ele>37</ele>
        <time>2022-11-11T14:28:41.193Z</time>
      </trkpt>
      <trkpt lat="50.52823" lon="3.108">
        <ele>36</ele>
        <time>2022-11-11T14:28:44.050Z</time>
      </trkpt>
      <trkpt lat="50.52886" lon="3.10756">
        <ele>36</ele>
        <time>2022-11-11T14:28:46.917Z</time>
      </trkpt>
      <trkpt lat="50.52954" lon="3.10702">
        <ele>35</ele>
        <time>2022-11-11T14:28:49.795Z</time>
      </trkpt>
      <trkpt lat="50.52971" lon="3.10687">
        <ele>35</ele>
        <time>2022-11-11T14:28:52.676Z</time>
      </trkpt>
      <trkpt lat="50.52981" lon="3.10685">
        <ele>34</ele>
        <time>2022-11-11T14:28:55.558Z</time>
      </trkpt>
      <trkpt lat="50.52998" lon="3.10681">
        <ele>34</ele>
        <time>2022-11-11T14:28:58.443Z</time>
      </trkpt>
      <trkpt lat="50.53004" lon="3.10689">
        <ele>34</ele>
        <time>2022-11-11T14:29:01.329Z</time>
      </trkpt>
      <trkpt lat="50.53014" lon="3.1069">
        <ele>33</ele>
        <time>2022-11-11T14:29:04.216Z</time>
      </trkpt>
      <trkpt lat="50.53021" lon="3.10682">
        <ele>33</ele>
        <time>2022-11-11T14:29:07.104Z</time>
      </trkpt>
      <trkpt lat="50.53024" lon="3.10676">
        <ele>32</ele>
        <time>2022-11-11T14:29:09.993Z</time>
      </trkpt>
      <trkpt lat="50.53024" lon="3.10661">
        <ele>32</ele>
        <time>2022-11-11T14:29:12.884Z</time>
      </trkpt>
      <trkpt lat="50.53035" lon="3.10651">
        <ele>32</ele>
        <time>2022-11-11T14:29:15.776Z</time>
      </trkpt>
      <trkpt lat="50.53051" lon="3.10636">
        <ele>31</ele>
        <time>2022-11-11T14:29:18.671Z</time>
      </trkpt>
      <trkpt lat="50.53066" lon="3.10627">
        <ele>31</ele>
        <time>2022-11-11T14:29:21.568Z</time>
      </trkpt>
      <trkpt lat="50.53066" lon="3.10627">
        <ele>31</ele>
        <time>2022-11-11T14:29:24.465Z</time>
      </trkpt>
      <trkpt lat="50.53101" lon="3.10601">
        <ele>30</ele>
        <time>2022-11-11T14:29:27.368Z</time>
      </trkpt>
      <trkpt lat="50.53148" lon="3.10587">
        <ele>30</ele>
        <time>2022-11-11T14:29:30.278Z</time>
      </trkpt>
      <trkpt lat="50.53215" lon="3.10587">
        <ele>30</ele>
        <time>2022-11-11T14:29:33.197Z</time>
      </trkpt>
      <trkpt lat="50.53224" lon="3.10594">
        <ele>30</ele>
        <time>2022-11-11T14:29:36.118Z</time>
      </trkpt>
      <trkpt lat="50.53264" lon="3.10597">
        <ele>30</ele>
        <time>2022-11-11T14:29:39.044Z</time>
      </trkpt>
      <trkpt lat="50.53278" lon="3.10593">
        <ele>29</ele>
        <time>2022-11-11T14:29:41.972Z</time>
      </trkpt>
      <trkpt lat="50.5329" lon="3.10586">
        <ele>29</ele>
        <time>2022-11-11T14:29:44.902Z</time>
      </trkpt>
      <trkpt lat="50.53328" lon="3.10589">
        <ele>29</ele>
        <time>2022-11-11T14:29:47.837Z</time>
      </trkpt>
      <trkpt lat="50.53347" lon="3.10587">
        <ele>29</ele>
        <time>2022-11-11T14:29:50.775Z</time>
      </trkpt>
      <trkpt lat="50.53378" lon="3.10585">
        <ele>29</ele>
        <time>2022-11-11T14:29:53.718Z</time>
      </trkpt>
      <trkpt lat="50.53408" lon="3.10685">
        <ele>29</ele>
        <time>2022-11-11T14:29:56.671Z</time>
      </trkpt>
      <trkpt lat="50.53426" lon="3.10748">
        <ele>29</ele>
        <time>2022-11-11T14:29:59.630Z</time>
      </trkpt>
      <trkpt lat="50.53426" lon="3.10798">
        <ele>29</ele>
        <time>2022-11-11T14:30:02.593Z</time>
      </trkpt>
      <trkpt lat="50.53418" lon="3.10824">
        <ele>29</ele>
        <time>2022-11-11T14:30:05.559Z</time>
      </trkpt>
      <trkpt lat="50.53394" lon="3.10899">
        <ele>29</ele>
        <time>2022-11-11T14:30:08.533Z</time>
      </trkpt>
      <trkpt lat="50.53341" lon="3.11059">
        <ele>29</ele>
        <time>2022-11-11T14:30:11.523Z</time>
      </trkpt>
      <trkpt lat="50.53314" lon="3.11153">
        <ele>29</ele>
        <time>2022-11-11T14:30:14.522Z</time>
      </trkpt>
      <trkpt lat="50.53322" lon="3.11178">
        <ele>29</ele>
        <time>2022-11-11T14:30:17.524Z</time>
      </trkpt>
      <trkpt lat="50.53464" lon="3.11501">
        <ele>29</ele>
        <time>2022-11-11T14:30:20.561Z</time>
      </trkpt>
      <trkpt lat="50.53494" lon="3.11624">
        <ele>29</ele>
        <time>2022-11-11T14:30:23.610Z</time>
      </trkpt>
      <trkpt lat="50.53504" lon="3.11701">
        <ele>29</ele>
        <time>2022-11-11T14:30:26.666Z</time>
      </trkpt>
      <trkpt lat="50.53566" lon="3.11942">
        <ele>29</ele>
        <time>2022-11-11T14:30:29.746Z</time>
      </trkpt>
      <trkpt lat="50.53629" lon="3.12076">
        <ele>29</ele>
        <time>2022-11-11T14:30:32.841Z</time>
      </trkpt>
      <trkpt lat="50.53663" lon="3.12159">
        <ele>29</ele>
        <time>2022-11-11T14:30:35.945Z</time>
      </trkpt>
      <trkpt lat="50.53619" lon="3.12211">
        <ele>29</ele>
        <time>2022-11-11T14:30:39.057Z</time>
      </trkpt>
      <trkpt lat="50.53618" lon="3.12226">
        <ele>29</ele>
        <time>2022-11-11T14:30:42.170Z</time>
      </trkpt>
      <trkpt lat="50.53626" lon="3.12272">
        <ele>29</ele>
        <time>2022-11-11T14:30:45.287Z</time>
      </trkpt>
      <trkpt lat="50.53635" lon="3.12309">
        <ele>29</ele>
        <time>2022-11-11T14:30:48.408Z</time>
      </trkpt>
      <trkpt lat="50.53651" lon="3.12358">
        <ele>30</ele>
        <time>2022-11-11T14:30:51.534Z</time>
      </trkpt>
      <trkpt lat="50.53706" lon="3.12463">
        <ele>30</ele>
        <time>2022-11-11T14:30:54.672Z</time>
      </trkpt>
      <trkpt lat="50.53739" lon="3.12548">
        <ele>30</ele>
        <time>2022-11-11T14:30:57.819Z</time>
      </trkpt>
      <trkpt lat="50.53753" lon="3.12596">
        <ele>30</ele>
        <time>2022-11-11T14:31:00.971Z</time>
      </trkpt>
      <trkpt lat="50.53806" lon="3.12594">
        <ele>30</ele>
        <time>2022-11-11T14:31:04.131Z</time>
      </trkpt>
      <trkpt lat="50.53814" lon="3.12598">
        <ele>31</ele>
        <time>2022-11-11T14:31:07.292Z</time>
      </trkpt>
      <trkpt lat="50.5383" lon="3.12602">
        <ele>31</ele>
        <time>2022-11-11T14:31:10.455Z</time>
      </trkpt>
      <trkpt lat="50.53841" lon="3.1261">
        <ele>31</ele>
        <time>2022-11-11T14:31:13.620Z</time>
      </trkpt>
      <trkpt lat="50.539" lon="3.12724">
        <ele>31</ele>
        <time>2022-11-11T14:31:16.798Z</time>
      </trkpt>
      <trkpt lat="50.539" lon="3.12724">
        <ele>31</ele>
        <time>2022-11-11T14:31:19.976Z</time>
      </trkpt>
      <trkpt lat="50.53904" lon="3.12732">
        <ele>31</ele>
        <time>2022-11-11T14:31:23.155Z</time>
      </trkpt>
      <trkpt lat="50.5396" lon="3.1275">
        <ele>31</ele>
        <time>2022-11-11T14:31:26.342Z</time>
      </trkpt>
      <trkpt lat="50.54021" lon="3.12788">
        <ele>30.8</ele>
      </trkpt>
      <trkpt lat="50.53994" lon="3.1285">
        <ele>31</ele>
        <time>2022-11-11T14:32:14.496Z</time>
      </trkpt>
      <trkpt lat="50.53988" lon="3.12873">
        <ele>31</ele>
        <time>2022-11-11T14:32:17.725Z</time>
      </trkpt>
      <trkpt lat="50.53982" lon="3.12896">
        <ele>31</ele>
        <time>2022-11-11T14:32:20.956Z</time>
      </trkpt>
      <trkpt lat="50.53978" lon="3.12915">
        <ele>31</ele>
        <time>2022-11-11T14:32:24.189Z</time>
      </trkpt>
      <trkpt lat="50.5397" lon="3.13006">
        <ele>31</ele>
        <time>2022-11-11T14:32:27.430Z</time>
      </trkpt>
      <trkpt lat="50.5396" lon="3.13081">
        <ele>31</ele>
        <time>2022-11-11T14:32:30.678Z</time>
      </trkpt>
      <trkpt lat="50.53972" lon="3.13104">
        <ele>31</ele>
        <time>2022-11-11T14:32:33.929Z</time>
      </trkpt>
      <trkpt lat="50.54006" lon="3.13154">
        <ele>31</ele>
        <time>2022-11-11T14:32:37.186Z</time>
      </trkpt>
      <trkpt lat="50.54009" lon="3.13169">
        <ele>31</ele>
        <time>2022-11-11T14:32:40.445Z</time>
      </trkpt>
      <trkpt lat="50.54014" lon="3.13249">
        <ele>31</ele>
        <time>2022-11-11T14:32:43.711Z</time>
      </trkpt>
      <trkpt lat="50.54022" lon="3.13285">
        <ele>30</ele>
        <time>2022-11-11T14:32:46.981Z</time>
      </trkpt>
      <trkpt lat="50.54049" lon="3.13357">
        <ele>30</ele>
        <time>2022-11-11T14:32:50.258Z</time>
      </trkpt>
      <trkpt lat="50.54077" lon="3.13425">
        <ele>30</ele>
        <time>2022-11-11T14:32:53.542Z</time>
      </trkpt>
      <trkpt lat="50.54117" lon="3.13471">
        <ele>30</ele>
        <time>2022-11-11T14:32:56.833Z</time>
      </trkpt>
      <trkpt lat="50.54382" lon="3.13723">
        <ele>30</ele>
        <time>2022-11-11T14:33:00.168Z</time>
      </trkpt>
      <trkpt lat="50.54319" lon="3.13835">
        <ele>30</ele>
        <time>2022-11-11T14:33:03.517Z</time>
      </trkpt>
      <trkpt lat="50.54317" lon="3.13841">
        <ele>30</ele>
        <time>2022-11-11T14:33:06.867Z</time>
      </trkpt>
      <trkpt lat="50.54313" lon="3.13871">
        <ele>30</ele>
        <time>2022-11-11T14:33:10.219Z</time>
      </trkpt>
      <trkpt lat="50.54313" lon="3.13871">
        <ele>30</ele>
        <time>2022-11-11T14:33:13.571Z</time>
      </trkpt>
      <trkpt lat="50.54311" lon="3.13898">
        <ele>29</ele>
        <time>2022-11-11T14:33:16.926Z</time>
      </trkpt>
      <trkpt lat="50.54301" lon="3.13956">
        <ele>29</ele>
        <time>2022-11-11T14:33:20.286Z</time>
      </trkpt>
      <trkpt lat="50.54265" lon="3.14146">
        <ele>30</ele>
        <time>2022-11-11T14:33:23.664Z</time>
      </trkpt>
      <trkpt lat="50.54233" lon="3.14292">
        <ele>30</ele>
        <time>2022-11-11T14:33:27.056Z</time>
      </trkpt>
      <trkpt lat="50.5423" lon="3.14321">
        <ele>29</ele>
        <time>2022-11-11T14:33:30.451Z</time>
      </trkpt>
      <trkpt lat="50.54244" lon="3.14412">
        <ele>29</ele>
        <time>2022-11-11T14:33:33.854Z</time>
      </trkpt>
      <trkpt lat="50.54244" lon="3.14435">
        <ele>30</ele>
        <time>2022-11-11T14:33:37.259Z</time>
      </trkpt>
      <trkpt lat="50.54236" lon="3.14539">
        <ele>30</ele>
        <time>2022-11-11T14:33:40.674Z</time>
      </trkpt>
      <trkpt lat="50.54236" lon="3.14564">
        <ele>30</ele>
        <time>2022-11-11T14:33:44.091Z</time>
      </trkpt>
      <trkpt lat="50.54241" lon="3.14594">
        <ele>30</ele>
        <time>2022-11-11T14:33:47.511Z</time>
      </trkpt>
      <trkpt lat="50.54255" lon="3.14646">
        <ele>30</ele>
        <time>2022-11-11T14:33:50.936Z</time>
      </trkpt>
      <trkpt lat="50.54255" lon="3.14669">
        <ele>30</ele>
        <time>2022-11-11T14:33:54.363Z</time>
      </trkpt>
      <trkpt lat="50.54252" lon="3.14684">
        <ele>30</ele>
        <time>2022-11-11T14:33:57.792Z</time>
      </trkpt>
      <trkpt lat="50.54235" lon="3.14728">
        <ele>30</ele>
        <time>2022-11-11T14:34:01.225Z</time>
      </trkpt>
      <trkpt lat="50.5423" lon="3.14753">
        <ele>30</ele>
        <time>2022-11-11T14:34:04.661Z</time>
      </trkpt>
      <trkpt lat="50.54226" lon="3.14801">
        <ele>30</ele>
        <time>2022-11-11T14:34:08.101Z</time>
      </trkpt>
      <trkpt lat="50.54227" lon="3.14879">
        <ele>30</ele>
        <time>2022-11-11T14:34:11.548Z</time>
      </trkpt>
      <trkpt lat="50.54227" lon="3.14879">
        <ele>30</ele>
        <time>2022-11-11T14:34:14.995Z</time>
      </trkpt>
      <trkpt lat="50.54232" lon="3.14928">
        <ele>30</ele>
        <time>2022-11-11T14:34:18.446Z</time>
      </trkpt>
      <trkpt lat="50.54241" lon="3.1496">
        <ele>30</ele>
        <time>2022-11-11T14:34:21.901Z</time>
      </trkpt>
      <trkpt lat="50.54244" lon="3.14986">
        <ele>30</ele>
        <time>2022-11-11T14:34:25.358Z</time>
      </trkpt>
      <trkpt lat="50.54245" lon="3.15033">
        <ele>30</ele>
        <time>2022-11-11T14:34:28.819Z</time>
      </trkpt>
      <trkpt lat="50.5425" lon="3.15054">
        <ele>30</ele>
        <time>2022-11-11T14:34:32.282Z</time>
      </trkpt>
      <trkpt lat="50.54276" lon="3.15104">
        <ele>30</ele>
        <time>2022-11-11T14:34:35.751Z</time>
      </trkpt>
      <trkpt lat="50.54288" lon="3.15121">
        <ele>29</ele>
        <time>2022-11-11T14:34:39.222Z</time>
      </trkpt>
      <trkpt lat="50.54275" lon="3.15141">
        <ele>29</ele>
        <time>2022-11-11T14:34:42.696Z</time>
      </trkpt>
      <trkpt lat="50.54241" lon="3.15212">
        <ele>29</ele>
        <time>2022-11-11T14:34:46.178Z</time>
      </trkpt>
      <trkpt lat="50.54159" lon="3.15427">
        <ele>29</ele>
        <time>2022-11-11T14:34:49.683Z</time>
      </trkpt>
      <trkpt lat="50.54105" lon="3.15516">
        <ele>29</ele>
        <time>2022-11-11T14:34:53.199Z</time>
      </trkpt>
      <trkpt lat="50.54054" lon="3.15613">
        <ele>29</ele>
        <time>2022-11-11T14:34:56.726Z</time>
      </trkpt>
      <trkpt lat="50.54049" lon="3.15624">
        <ele>29</ele>
        <time>2022-11-11T14:35:00.255Z</time>
      </trkpt>
      <trkpt lat="50.54019" lon="3.15718">
        <ele>29</ele>
        <time>2022-11-11T14:35:03.793Z</time>
      </trkpt>
      <trkpt lat="50.53985" lon="3.15891">
        <ele>29</ele>
        <time>2022-11-11T14:35:07.347Z</time>
      </trkpt>
      <trkpt lat="50.53965" lon="3.15976">
        <ele>29</ele>
        <time>2022-11-11T14:35:10.910Z</time>
      </trkpt>
      <trkpt lat="50.53956" lon="3.16021">
        <ele>29</ele>
        <time>2022-11-11T14:35:14.477Z</time>
      </trkpt>
      <trkpt lat="50.53921" lon="3.16113">
        <ele>29</ele>
        <time>2022-11-11T14:35:18.054Z</time>
      </trkpt>
      <trkpt lat="50.53907" lon="3.1614">
        <ele>29</ele>
        <time>2022-11-11T14:35:21.634Z</time>
      </trkpt>
      <trkpt lat="50.53867" lon="3.162">
        <ele>29</ele>
        <time>2022-11-11T14:35:25.222Z</time>
      </trkpt>
      <trkpt lat="50.53813" lon="3.16274">
        <ele>29</ele>
        <time>2022-11-11T14:35:28.820Z</time>
      </trkpt>
      <trkpt lat="50.53801" lon="3.16289">
        <ele>29</ele>
        <time>2022-11-11T14:35:32.420Z</time>
      </trkpt>
      <trkpt lat="50.53765" lon="3.16332">
        <ele>29</ele>
        <time>2022-11-11T14:35:36.026Z</time>
      </trkpt>
      <trkpt lat="50.53744" lon="3.16351">
        <ele>29</ele>
        <time>2022-11-11T14:35:39.636Z</time>
      </trkpt>
      <trkpt lat="50.5373" lon="3.16358">
        <ele>29</ele>
        <time>2022-11-11T14:35:43.248Z</time>
      </trkpt>
      <trkpt lat="50.5371" lon="3.16367">
        <ele>29</ele>
        <time>2022-11-11T14:35:46.863Z</time>
      </trkpt>
      <trkpt lat="50.53691" lon="3.16377">
        <ele>30</ele>
        <time>2022-11-11T14:35:50.481Z</time>
      </trkpt>
      <trkpt lat="50.53685" lon="3.16371">
        <ele>30</ele>
        <time>2022-11-11T14:35:54.100Z</time>
      </trkpt>
      <trkpt lat="50.53678" lon="3.16371">
        <ele>30</ele>
        <time>2022-11-11T14:35:57.720Z</time>
      </trkpt>
      <trkpt lat="50.53675" lon="3.16374">
        <ele>30</ele>
        <time>2022-11-11T14:36:01.340Z</time>
      </trkpt>
      <trkpt lat="50.5367" lon="3.16383">
        <ele>30</ele>
        <time>2022-11-11T14:36:04.961Z</time>
      </trkpt>
      <trkpt lat="50.5367" lon="3.16394">
        <ele>31</ele>
        <time>2022-11-11T14:36:08.583Z</time>
      </trkpt>
      <trkpt lat="50.53671" lon="3.164">
        <ele>31</ele>
        <time>2022-11-11T14:36:12.206Z</time>
      </trkpt>
      <trkpt lat="50.53677" lon="3.16406">
        <ele>31</ele>
        <time>2022-11-11T14:36:15.830Z</time>
      </trkpt>
      <trkpt lat="50.53681" lon="3.16408">
        <ele>31</ele>
        <time>2022-11-11T14:36:19.454Z</time>
      </trkpt>
      <trkpt lat="50.53666" lon="3.16455">
        <ele>31</ele>
        <time>2022-11-11T14:36:23.083Z</time>
      </trkpt>
      <trkpt lat="50.53635" lon="3.1655">
        <ele>32</ele>
        <time>2022-11-11T14:36:26.722Z</time>
      </trkpt>
      <trkpt lat="50.53575" lon="3.1674">
        <ele>32</ele>
        <time>2022-11-11T14:36:30.380Z</time>
      </trkpt>
      <trkpt lat="50.53572" lon="3.16752">
        <ele>32</ele>
        <time>2022-11-11T14:36:34.039Z</time>
      </trkpt>
      <trkpt lat="50.53564" lon="3.16775">
        <ele>33</ele>
        <time>2022-11-11T14:36:37.701Z</time>
      </trkpt>
      <trkpt lat="50.53558" lon="3.16811">
        <ele>33</ele>
        <time>2022-11-11T14:36:41.366Z</time>
      </trkpt>
      <trkpt lat="50.53554" lon="3.16861">
        <ele>33</ele>
        <time>2022-11-11T14:36:45.036Z</time>
      </trkpt>
      <trkpt lat="50.53553" lon="3.16911">
        <ele>34</ele>
        <time>2022-11-11T14:36:48.710Z</time>
      </trkpt>
      <trkpt lat="50.53549" lon="3.16933">
        <ele>34</ele>
        <time>2022-11-11T14:36:52.386Z</time>
      </trkpt>
      <trkpt lat="50.53543" lon="3.16952">
        <ele>34</ele>
        <time>2022-11-11T14:36:56.064Z</time>
      </trkpt>
      <trkpt lat="50.53528" lon="3.16968">
        <ele>35</ele>
        <time>2022-11-11T14:36:59.745Z</time>
      </trkpt>
      <trkpt lat="50.53476" lon="3.1702">
        <ele>35</ele>
        <time>2022-11-11T14:37:03.434Z</time>
      </trkpt>
      <trkpt lat="50.53452" lon="3.17059">
        <ele>36</ele>
        <time>2022-11-11T14:37:07.128Z</time>
      </trkpt>
      <trkpt lat="50.53429" lon="3.17105">
        <ele>36</ele>
        <time>2022-11-11T14:37:10.828Z</time>
      </trkpt>
      <trkpt lat="50.53394" lon="3.17158">
        <ele>37</ele>
        <time>2022-11-11T14:37:14.534Z</time>
      </trkpt>
      <trkpt lat="50.53374" lon="3.17184">
        <ele>37</ele>
        <time>2022-11-11T14:37:18.244Z</time>
      </trkpt>
      <trkpt lat="50.53374" lon="3.17184">
        <ele>37</ele>
        <time>2022-11-11T14:37:21.954Z</time>
      </trkpt>
      <trkpt lat="50.53329" lon="3.17241">
        <ele>38</ele>
        <time>2022-11-11T14:37:25.672Z</time>
      </trkpt>
      <trkpt lat="50.53324" lon="3.17252">
        <ele>38</ele>
        <time>2022-11-11T14:37:29.392Z</time>
      </trkpt>
      <trkpt lat="50.5333" lon="3.1726">
        <ele>39</ele>
        <time>2022-11-11T14:37:33.113Z</time>
      </trkpt>
      <trkpt lat="50.5333" lon="3.1726">
        <ele>39</ele>
        <time>2022-11-11T14:37:36.834Z</time>
      </trkpt>
      <trkpt lat="50.5337" lon="3.17313">
        <ele>39</ele>
        <time>2022-11-11T14:37:40.562Z</time>
      </trkpt>
      <trkpt lat="50.53401" lon="3.17348">
        <ele>40</ele>
        <time>2022-11-11T14:37:44.296Z</time>
      </trkpt>
      <trkpt lat="50.53412" lon="3.17358">
        <ele>40</ele>
        <time>2022-11-11T14:37:48.031Z</time>
      </trkpt>
      <trkpt lat="50.53436" lon="3.1738">
        <ele>40</ele>
        <time>2022-11-11T14:37:51.770Z</time>
      </trkpt>
      <trkpt lat="50.53436" lon="3.1738">
        <ele>40</ele>
        <time>2022-11-11T14:37:55.509Z</time>
      </trkpt>
      <trkpt lat="50.5345" lon="3.17393">
        <ele>40</ele>
        <time>2022-11-11T14:37:59.251Z</time>
      </trkpt>
      <trkpt lat="50.53494" lon="3.17449">
        <ele>40</ele>
        <time>2022-11-11T14:38:03.001Z</time>
      </trkpt>
      <trkpt lat="50.53519" lon="3.17477">
        <ele>40</ele>
        <time>2022-11-11T14:38:06.755Z</time>
      </trkpt>
      <trkpt lat="50.53519" lon="3.17477">
        <ele>40</ele>
        <time>2022-11-11T14:38:10.509Z</time>
      </trkpt>
      <trkpt lat="50.53552" lon="3.17518">
        <ele>40</ele>
        <time>2022-11-11T14:38:14.269Z</time>
      </trkpt>
      <trkpt lat="50.53552" lon="3.1752">
        <ele>40</ele>
        <time>2022-11-11T14:38:18.029Z</time>
      </trkpt>
      <trkpt lat="50.53552" lon="3.1752">
        <ele>39</ele>
        <time>2022-11-11T14:38:21.789Z</time>
      </trkpt>
      <trkpt lat="50.53554" lon="3.17541">
        <ele>39</ele>
        <time>2022-11-11T14:38:25.551Z</time>
      </trkpt>
      <trkpt lat="50.53614" lon="3.17681">
        <ele>39</ele>
        <time>2022-11-11T14:38:29.329Z</time>
      </trkpt>
      <trkpt lat="50.53671" lon="3.17718">
        <ele>39</ele>
        <time>2022-11-11T14:38:33.115Z</time>
      </trkpt>
      <trkpt lat="50.5366" lon="3.17731">
        <ele>38</ele>
        <time>2022-11-11T14:38:36.903Z</time>
      </trkpt>
      <trkpt lat="50.5366" lon="3.17731">
        <ele>38</ele>
        <time>2022-11-11T14:38:40.691Z</time>
      </trkpt>
      <trkpt lat="50.5366" lon="3.17731">
        <ele>38</ele>
        <time>2022-11-11T14:38:44.479Z</time>
      </trkpt>
      <trkpt lat="50.5366" lon="3.17731">
        <ele>38</ele>
        <time>2022-11-11T14:38:48.267Z</time>
      </trkpt>
      <trkpt lat="50.53671" lon="3.17718">
        <ele>37</ele>
        <time>2022-11-11T14:38:52.057Z</time>
      </trkpt>
      <trkpt lat="50.53723" lon="3.17752">
        <ele>37</ele>
        <time>2022-11-11T14:38:55.855Z</time>
      </trkpt>
      <trkpt lat="50.53772" lon="3.17776">
        <ele>36</ele>
        <time>2022-11-11T14:38:59.660Z</time>
      </trkpt>
      <trkpt lat="50.53829" lon="3.17795">
        <ele>36</ele>
        <time>2022-11-11T14:39:03.474Z</time>
      </trkpt>
      <trkpt lat="50.53917" lon="3.17812">
        <ele>35</ele>
        <time>2022-11-11T14:39:07.300Z</time>
      </trkpt>
      <trkpt lat="50.53937" lon="3.17824">
        <ele>35</ele>
        <time>2022-11-11T14:39:11.129Z</time>
      </trkpt>
      <trkpt lat="50.53937" lon="3.17824">
        <ele>34</ele>
        <time>2022-11-11T14:39:14.958Z</time>
      </trkpt>
      <trkpt lat="50.53937" lon="3.17824">
        <ele>33</ele>
        <time>2022-11-11T14:39:18.787Z</time>
      </trkpt>
      <trkpt lat="50.54093" lon="3.17922">
        <ele>33</ele>
        <time>2022-11-11T14:39:22.640Z</time>
      </trkpt>
      <trkpt lat="50.54089" lon="3.17949">
        <ele>32</ele>
        <time>2022-11-11T14:39:26.496Z</time>
      </trkpt>
      <trkpt lat="50.54089" lon="3.17981">
        <ele>32</ele>
        <time>2022-11-11T14:39:30.355Z</time>
      </trkpt>
      <trkpt lat="50.54095" lon="3.18021">
        <ele>32</ele>
        <time>2022-11-11T14:39:34.217Z</time>
      </trkpt>
      <trkpt lat="50.54103" lon="3.18061">
        <ele>31</ele>
        <time>2022-11-11T14:39:38.083Z</time>
      </trkpt>
      <trkpt lat="50.54138" lon="3.18173">
        <ele>31</ele>
        <time>2022-11-11T14:39:41.960Z</time>
      </trkpt>
      <trkpt lat="50.54144" lon="3.18192">
        <ele>31</ele>
        <time>2022-11-11T14:39:45.839Z</time>
      </trkpt>
      <trkpt lat="50.54151" lon="3.18232">
        <ele>30</ele>
        <time>2022-11-11T14:39:49.722Z</time>
      </trkpt>
      <trkpt lat="50.54155" lon="3.18271">
        <ele>30</ele>
        <time>2022-11-11T14:39:53.609Z</time>
      </trkpt>
      <trkpt lat="50.54154" lon="3.1831">
        <ele>30</ele>
        <time>2022-11-11T14:39:57.499Z</time>
      </trkpt>
      <trkpt lat="50.54148" lon="3.18355">
        <ele>30</ele>
        <time>2022-11-11T14:40:01.393Z</time>
      </trkpt>
      <trkpt lat="50.54162" lon="3.18373">
        <ele>29</ele>
        <time>2022-11-11T14:40:05.290Z</time>
      </trkpt>
      <trkpt lat="50.54233" lon="3.18446">
        <ele>29</ele>
        <time>2022-11-11T14:40:09.199Z</time>
      </trkpt>
      <trkpt lat="50.54233" lon="3.18446">
        <ele>29</ele>
        <time>2022-11-11T14:40:13.108Z</time>
      </trkpt>
      <trkpt lat="50.54246" lon="3.1846">
        <ele>29</ele>
        <time>2022-11-11T14:40:17.019Z</time>
      </trkpt>
      <trkpt lat="50.54271" lon="3.18478">
        <ele>29</ele>
        <time>2022-11-11T14:40:20.934Z</time>
      </trkpt>
      <trkpt lat="50.54334" lon="3.18517">
        <ele>29</ele>
        <time>2022-11-11T14:40:24.859Z</time>
      </trkpt>
      <trkpt lat="50.5434" lon="3.18524">
        <ele>29</ele>
        <time>2022-11-11T14:40:28.785Z</time>
      </trkpt>
      <trkpt lat="50.5434" lon="3.18524">
        <ele>29</ele>
        <time>2022-11-11T14:40:32.711Z</time>
      </trkpt>
      <trkpt lat="50.54339" lon="3.18536">
        <ele>29</ele>
        <time>2022-11-11T14:40:36.638Z</time>
      </trkpt>
      <trkpt lat="50.5432" lon="3.18567">
        <ele>29</ele>
        <time>2022-11-11T14:40:40.569Z</time>
      </trkpt>
      <trkpt lat="50.54288" lon="3.18609">
        <ele>29</ele>
        <time>2022-11-11T14:40:44.506Z</time>
      </trkpt>
      <trkpt lat="50.54227" lon="3.18708">
        <ele>29</ele>
        <time>2022-11-11T14:40:48.455Z</time>
      </trkpt>
      <trkpt lat="50.54151" lon="3.18866">
        <ele>29</ele>
        <time>2022-11-11T14:40:52.422Z</time>
      </trkpt>
      <trkpt lat="50.54151" lon="3.18866">
        <ele>29</ele>
        <time>2022-11-11T14:40:56.389Z</time>
      </trkpt>
      <trkpt lat="50.54138" lon="3.18892">
        <ele>30</ele>
        <time>2022-11-11T14:41:00.359Z</time>
      </trkpt>
      <trkpt lat="50.5411" lon="3.18943">
        <ele>30</ele>
        <time>2022-11-11T14:41:04.335Z</time>
      </trkpt>
      <trkpt lat="50.54103" lon="3.18951">
        <ele>30</ele>
        <time>2022-11-11T14:41:08.312Z</time>
      </trkpt>
      <trkpt lat="50.54034" lon="3.19061">
        <ele>30</ele>
        <time>2022-11-11T14:41:12.303Z</time>
      </trkpt>
      <trkpt lat="50.53984" lon="3.19146">
        <ele>31</ele>
        <time>2022-11-11T14:41:16.305Z</time>
      </trkpt>
      <trkpt lat="50.53946" lon="3.19211">
        <ele>31</ele>
        <time>2022-11-11T14:41:20.315Z</time>
      </trkpt>
      <trkpt lat="50.53926" lon="3.19262">
        <ele>31</ele>
        <time>2022-11-11T14:41:24.330Z</time>
      </trkpt>
      <trkpt lat="50.53912" lon="3.19305">
        <ele>31</ele>
        <time>2022-11-11T14:41:28.350Z</time>
      </trkpt>
      <trkpt lat="50.53911" lon="3.19333">
        <ele>31</ele>
        <time>2022-11-11T14:41:32.372Z</time>
      </trkpt>
      <trkpt lat="50.53909" lon="3.1935">
        <ele>32</ele>
        <time>2022-11-11T14:41:36.396Z</time>
      </trkpt>
      <trkpt lat="50.53907" lon="3.19366">
        <ele>32</ele>
        <time>2022-11-11T14:41:40.421Z</time>
      </trkpt>
      <trkpt lat="50.53902" lon="3.1938">
        <ele>32</ele>
        <time>2022-11-11T14:41:44.448Z</time>
      </trkpt>
      <trkpt lat="50.53865" lon="3.19437">
        <ele>32</ele>
        <time>2022-11-11T14:41:48.482Z</time>
      </trkpt>
      <trkpt lat="50.53806" lon="3.19569">
        <ele>32</ele>
        <time>2022-11-11T14:41:52.531Z</time>
      </trkpt>
      <trkpt lat="50.53731" lon="3.19701">
        <ele>32</ele>
        <time>2022-11-11T14:41:56.596Z</time>
      </trkpt>
      <trkpt lat="50.53702" lon="3.19743">
        <ele>33</ele>
        <time>2022-11-11T14:42:00.666Z</time>
      </trkpt>
      <trkpt lat="50.53682" lon="3.19776">
        <ele>33</ele>
        <time>2022-11-11T14:42:04.740Z</time>
      </trkpt>
      <trkpt lat="50.53672" lon="3.19788">
        <ele>33</ele>
        <time>2022-11-11T14:42:08.816Z</time>
      </trkpt>
      <trkpt lat="50.53554" lon="3.19827">
        <ele>34</ele>
        <time>2022-11-11T14:42:12.909Z</time>
      </trkpt>
      <trkpt lat="50.53506" lon="3.19745">
        <ele>34</ele>
        <time>2022-11-11T14:42:17.012Z</time>
      </trkpt>
      <trkpt lat="50.53436" lon="3.19652">
        <ele>34</ele>
        <time>2022-11-11T14:42:21.128Z</time>
      </trkpt>
      <trkpt lat="50.53426" lon="3.19643">
        <ele>35</ele>
        <time>2022-11-11T14:42:25.246Z</time>
      </trkpt>
      <trkpt lat="50.53436" lon="3.19702">
        <ele>35</ele>
        <time>2022-11-11T14:42:29.370Z</time>
      </trkpt>
      <trkpt lat="50.53444" lon="3.19955">
        <ele>35</ele>
        <time>2022-11-11T14:42:33.516Z</time>
      </trkpt>
      <trkpt lat="50.53442" lon="3.20058">
        <ele>36</ele>
        <time>2022-11-11T14:42:37.672Z</time>
      </trkpt>
      <trkpt lat="50.53434" lon="3.20126">
        <ele>36</ele>
        <time>2022-11-11T14:42:41.834Z</time>
      </trkpt>
      <trkpt lat="50.53425" lon="3.20175">
        <ele>36</ele>
        <time>2022-11-11T14:42:46.001Z</time>
      </trkpt>
      <trkpt lat="50.53425" lon="3.20175">
        <ele>37</ele>
        <time>2022-11-11T14:42:50.168Z</time>
      </trkpt>
      <trkpt lat="50.53422" lon="3.20189">
        <ele>37</ele>
        <time>2022-11-11T14:42:54.336Z</time>
      </trkpt>
      <trkpt lat="50.53376" lon="3.20357">
        <ele>38</ele>
        <time>2022-11-11T14:42:58.520Z</time>
      </trkpt>
      <trkpt lat="50.53318" lon="3.20602">
        <ele>39</ele>
        <time>2022-11-11T14:43:02.728Z</time>
      </trkpt>
      <trkpt lat="50.53288" lon="3.20705">
        <ele>39</ele>
        <time>2022-11-11T14:43:06.946Z</time>
      </trkpt>
      <trkpt lat="50.53288" lon="3.20705">
        <ele>40</ele>
        <time>2022-11-11T14:43:11.164Z</time>
      </trkpt>
      <trkpt lat="50.53211" lon="3.20962">
        <ele>40</ele>
        <time>2022-11-11T14:43:15.408Z</time>
      </trkpt>
      <trkpt lat="50.53205" lon="3.2098">
        <ele>41</ele>
        <time>2022-11-11T14:43:19.654Z</time>
      </trkpt>
      <trkpt lat="50.53167" lon="3.21094">
        <ele>41</ele>
        <time>2022-11-11T14:43:23.912Z</time>
      </trkpt>
      <trkpt lat="50.53158" lon="3.2111">
        <ele>42</ele>
        <time>2022-11-11T14:43:28.172Z</time>
      </trkpt>
      <trkpt lat="50.53145" lon="3.21129">
        <ele>42</ele>
        <time>2022-11-11T14:43:32.434Z</time>
      </trkpt>
      <trkpt lat="50.53111" lon="3.21171">
        <ele>43</ele>
        <time>2022-11-11T14:43:36.702Z</time>
      </trkpt>
      <trkpt lat="50.53111" lon="3.21171">
        <ele>43</ele>
        <time>2022-11-11T14:43:40.970Z</time>
      </trkpt>
      <trkpt lat="50.53044" lon="3.21248">
        <ele>43</ele>
        <time>2022-11-11T14:43:45.250Z</time>
      </trkpt>
      <trkpt lat="50.5304" lon="3.21253">
        <ele>43</ele>
        <time>2022-11-11T14:43:49.531Z</time>
      </trkpt>
      <trkpt lat="50.53038" lon="3.21262">
        <ele>43</ele>
        <time>2022-11-11T14:43:53.813Z</time>
      </trkpt>
      <trkpt lat="50.53034" lon="3.21258">
        <ele>44</ele>
        <time>2022-11-11T14:43:58.095Z</time>
      </trkpt>
      <trkpt lat="50.53031" lon="3.2125">
        <ele>43</ele>
        <time>2022-11-11T14:44:02.378Z</time>
      </trkpt>
      <trkpt lat="50.5301" lon="3.21174">
        <ele>43</ele>
        <time>2022-11-11T14:44:06.669Z</time>
      </trkpt>
      <trkpt lat="50.5301" lon="3.21174">
        <ele>43</ele>
        <time>2022-11-11T14:44:10.960Z</time>
      </trkpt>
      <trkpt lat="50.52986" lon="3.21081">
        <ele>43</ele>
        <time>2022-11-11T14:44:15.260Z</time>
      </trkpt>
      <trkpt lat="50.52942" lon="3.21003">
        <ele>43</ele>
        <time>2022-11-11T14:44:19.569Z</time>
      </trkpt>
      <trkpt lat="50.52936" lon="3.20989">
        <ele>42</ele>
        <time>2022-11-11T14:44:23.880Z</time>
      </trkpt>
      <trkpt lat="50.52927" lon="3.2096">
        <ele>42</ele>
        <time>2022-11-11T14:44:28.194Z</time>
      </trkpt>
      <trkpt lat="50.52903" lon="3.20886">
        <ele>42</ele>
        <time>2022-11-11T14:44:32.515Z</time>
      </trkpt>
      <trkpt lat="50.52874" lon="3.20797">
        <ele>41</ele>
        <time>2022-11-11T14:44:36.845Z</time>
      </trkpt>
      <trkpt lat="50.52874" lon="3.20797">
        <ele>41</ele>
        <time>2022-11-11T14:44:41.175Z</time>
      </trkpt>
      <trkpt lat="50.52852" lon="3.20724">
        <ele>40</ele>
        <time>2022-11-11T14:44:45.513Z</time>
      </trkpt>
      <trkpt lat="50.52847" lon="3.2071">
        <ele>40</ele>
        <time>2022-11-11T14:44:49.852Z</time>
      </trkpt>
      <trkpt lat="50.52836" lon="3.20672">
        <ele>40</ele>
        <time>2022-11-11T14:44:54.195Z</time>
      </trkpt>
      <trkpt lat="50.52829" lon="3.20651">
        <ele>39</ele>
        <time>2022-11-11T14:44:58.540Z</time>
      </trkpt>
      <trkpt lat="50.52811" lon="3.20593">
        <ele>39</ele>
        <time>2022-11-11T14:45:02.891Z</time>
      </trkpt>
      <trkpt lat="50.5281" lon="3.20591">
        <ele>38</ele>
        <time>2022-11-11T14:45:07.242Z</time>
      </trkpt>
      <trkpt lat="50.52808" lon="3.20582">
        <ele>38</ele>
        <time>2022-11-11T14:45:11.594Z</time>
      </trkpt>
      <trkpt lat="50.52807" lon="3.20579">
        <ele>37</ele>
        <time>2022-11-11T14:45:15.946Z</time>
      </trkpt>
      <trkpt lat="50.52801" lon="3.20563">
        <ele>37</ele>
        <time>2022-11-11T14:45:20.300Z</time>
      </trkpt>
      <trkpt lat="50.52798" lon="3.20549">
        <ele>36</ele>
        <time>2022-11-11T14:45:24.655Z</time>
      </trkpt>
      <trkpt lat="50.52794" lon="3.20534">
        <ele>36</ele>
        <time>2022-11-11T14:45:29.012Z</time>
      </trkpt>
      <trkpt lat="50.52765" lon="3.20435">
        <ele>36</ele>
        <time>2022-11-11T14:45:33.378Z</time>
      </trkpt>
      <trkpt lat="50.52738" lon="3.20351">
        <ele>35</ele>
        <time>2022-11-11T14:45:37.753Z</time>
      </trkpt>
      <trkpt lat="50.52654" lon="3.204">
        <ele>35</ele>
        <time>2022-11-11T14:45:42.141Z</time>
      </trkpt>
      <trkpt lat="50.52654" lon="3.204">
        <ele>35</ele>
        <time>2022-11-11T14:45:46.529Z</time>
      </trkpt>
      <trkpt lat="50.52592" lon="3.2044">
        <ele>34</ele>
        <time>2022-11-11T14:45:50.926Z</time>
      </trkpt>
      <trkpt lat="50.52509" lon="3.20467">
        <ele>34</ele>
        <time>2022-11-11T14:45:55.335Z</time>
      </trkpt>
      <trkpt lat="50.52506" lon="3.20468">
        <ele>34</ele>
        <time>2022-11-11T14:45:59.745Z</time>
      </trkpt>
      <trkpt lat="50.5248" lon="3.20478">
        <ele>34</ele>
        <time>2022-11-11T14:46:04.158Z</time>
      </trkpt>
      <trkpt lat="50.5247" lon="3.20484">
        <ele>35</ele>
        <time>2022-11-11T14:46:08.573Z</time>
      </trkpt>
      <trkpt lat="50.52409" lon="3.20504">
        <ele>35</ele>
        <time>2022-11-11T14:46:12.997Z</time>
      </trkpt>
      <trkpt lat="50.52399" lon="3.20509">
        <ele>35</ele>
        <time>2022-11-11T14:46:17.422Z</time>
      </trkpt>
      <trkpt lat="50.52382" lon="3.20521">
        <ele>36</ele>
        <time>2022-11-11T14:46:21.850Z</time>
      </trkpt>
      <trkpt lat="50.52296" lon="3.20609">
        <ele>36</ele>
        <time>2022-11-11T14:46:26.293Z</time>
      </trkpt>
      <trkpt lat="50.52229" lon="3.20685">
        <ele>37</ele>
        <time>2022-11-11T14:46:30.747Z</time>
      </trkpt>
      <trkpt lat="50.52197" lon="3.20731">
        <ele>38</ele>
        <time>2022-11-11T14:46:35.207Z</time>
      </trkpt>
      <trkpt lat="50.52197" lon="3.20731">
        <ele>39</ele>
        <time>2022-11-11T14:46:39.667Z</time>
      </trkpt>
      <trkpt lat="50.52014" lon="3.20916">
        <ele>40</ele>
        <time>2022-11-11T14:46:44.158Z</time>
      </trkpt>
      <trkpt lat="50.5194" lon="3.20969">
        <ele>41</ele>
        <time>2022-11-11T14:46:48.661Z</time>
      </trkpt>
      <trkpt lat="50.51879" lon="3.21006">
        <ele>43</ele>
        <time>2022-11-11T14:46:53.173Z</time>
      </trkpt>
      <trkpt lat="50.51857" lon="3.21008">
        <ele>44</ele>
        <time>2022-11-11T14:46:57.688Z</time>
      </trkpt>
      <trkpt lat="50.51823" lon="3.21049">
        <ele>45</ele>
        <time>2022-11-11T14:47:02.209Z</time>
      </trkpt>
      <trkpt lat="50.51647" lon="3.21321">
        <ele>46</ele>
        <time>2022-11-11T14:47:06.766Z</time>
      </trkpt>
      <trkpt lat="50.51533" lon="3.21573">
        <ele>48</ele>
        <time>2022-11-11T14:47:11.350Z</time>
      </trkpt>
      <trkpt lat="50.51535" lon="3.21581">
        <ele>49</ele>
        <time>2022-11-11T14:47:15.935Z</time>
      </trkpt>
      <trkpt lat="50.51549" lon="3.21611">
        <ele>50</ele>
        <time>2022-11-11T14:47:20.524Z</time>
      </trkpt>
      <trkpt lat="50.5158" lon="3.21659">
        <ele>51</ele>
        <time>2022-11-11T14:47:25.119Z</time>
      </trkpt>
      <trkpt lat="50.5168" lon="3.218">
        <ele>53</ele>
        <time>2022-11-11T14:47:29.733Z</time>
      </trkpt>
      <trkpt lat="50.51745" lon="3.21934">
        <ele>53</ele>
        <time>2022-11-11T14:47:34.362Z</time>
      </trkpt>
      <trkpt lat="50.51792" lon="3.22013">
        <ele>54</ele>
        <time>2022-11-11T14:47:39.001Z</time>
      </trkpt>
      <trkpt lat="50.51809" lon="3.22052">
        <ele>55</ele>
        <time>2022-11-11T14:47:43.644Z</time>
      </trkpt>
      <trkpt lat="50.51867" lon="3.22205">
        <ele>56</ele>
        <time>2022-11-11T14:47:48.303Z</time>
      </trkpt>
      <trkpt lat="50.519" lon="3.22313">
        <ele>57</ele>
        <time>2022-11-11T14:47:52.973Z</time>
      </trkpt>
      <trkpt lat="50.51929" lon="3.22485">
        <ele>57</ele>
        <time>2022-11-11T14:47:57.659Z</time>
      </trkpt>
      <trkpt lat="50.51933" lon="3.22512">
        <ele>58</ele>
        <time>2022-11-11T14:48:02.348Z</time>
      </trkpt>
      <trkpt lat="50.51975" lon="3.22617">
        <ele>59</ele>
        <time>2022-11-11T14:48:07.048Z</time>
      </trkpt>
      <trkpt lat="50.51989" lon="3.22654">
        <ele>59</ele>
        <time>2022-11-11T14:48:11.752Z</time>
      </trkpt>
      <trkpt lat="50.51992" lon="3.22679">
        <ele>59</ele>
        <time>2022-11-11T14:48:16.458Z</time>
      </trkpt>
      <trkpt lat="50.52011" lon="3.22883">
        <ele>60</ele>
        <time>2022-11-11T14:48:21.183Z</time>
      </trkpt>
      <trkpt lat="50.52011" lon="3.22882">
        <ele>60</ele>
        <time>2022-11-11T14:48:25.908Z</time>
      </trkpt>
      <trkpt lat="50.52011" lon="3.22882">
        <ele>60</ele>
        <time>2022-11-11T14:48:30.633Z</time>
      </trkpt>
      <trkpt lat="50.52015" lon="3.22926">
        <ele>60</ele>
        <time>2022-11-11T14:48:35.362Z</time>
      </trkpt>
      <trkpt lat="50.52006" lon="3.22928">
        <ele>60</ele>
        <time>2022-11-11T14:48:40.092Z</time>
      </trkpt>
      <trkpt lat="50.52004" lon="3.22928">
        <ele>60</ele>
        <time>2022-11-11T14:48:44.822Z</time>
      </trkpt>
      <trkpt lat="50.51963" lon="3.22933">
        <ele>60</ele>
        <time>2022-11-11T14:48:49.558Z</time>
      </trkpt>
      <trkpt lat="50.51936" lon="3.22929">
        <ele>59</ele>
        <time>2022-11-11T14:48:54.298Z</time>
      </trkpt>
      <trkpt lat="50.51892" lon="3.22914">
        <ele>59</ele>
        <time>2022-11-11T14:48:59.044Z</time>
      </trkpt>
      <trkpt lat="50.51818" lon="3.22885">
        <ele>59</ele>
        <time>2022-11-11T14:49:03.801Z</time>
      </trkpt>
      <trkpt lat="50.51735" lon="3.22848">
        <ele>58</ele>
        <time>2022-11-11T14:49:08.571Z</time>
      </trkpt>
      <trkpt lat="50.51712" lon="3.22844">
        <ele>58</ele>
        <time>2022-11-11T14:49:13.344Z</time>
      </trkpt>
      <trkpt lat="50.51695" lon="3.22846">
        <ele>58</ele>
        <time>2022-11-11T14:49:18.119Z</time>
      </trkpt>
      <trkpt lat="50.51666" lon="3.22856">
        <ele>57</ele>
        <time>2022-11-11T14:49:22.899Z</time>
      </trkpt>
      <trkpt lat="50.51659" lon="3.22864">
        <ele>57</ele>
        <time>2022-11-11T14:49:27.680Z</time>
      </trkpt>
      <trkpt lat="50.51653" lon="3.22876">
        <ele>57</ele>
        <time>2022-11-11T14:49:32.462Z</time>
      </trkpt>
      <trkpt lat="50.51653" lon="3.22876">
        <ele>56</ele>
        <time>2022-11-11T14:49:37.244Z</time>
      </trkpt>
      <trkpt lat="50.51649" lon="3.22943">
        <ele>56</ele>
        <time>2022-11-11T14:49:42.032Z</time>
      </trkpt>
      <trkpt lat="50.51646" lon="3.22974">
        <ele>55</ele>
        <time>2022-11-11T14:49:46.823Z</time>
      </trkpt>
      <trkpt lat="50.5163" lon="3.23075">
        <ele>54</ele>
        <time>2022-11-11T14:49:51.624Z</time>
      </trkpt>
      <trkpt lat="50.51626" lon="3.23094">
        <ele>54</ele>
        <time>2022-11-11T14:49:56.426Z</time>
      </trkpt>
      <trkpt lat="50.51622" lon="3.23104">
        <ele>53</ele>
        <time>2022-11-11T14:50:01.229Z</time>
      </trkpt>
      <trkpt lat="50.51612" lon="3.23115">
        <ele>53</ele>
        <time>2022-11-11T14:50:06.034Z</time>
      </trkpt>
      <trkpt lat="50.5157" lon="3.23099">
        <ele>52</ele>
        <time>2022-11-11T14:50:10.845Z</time>
      </trkpt>
      <trkpt lat="50.51561" lon="3.23102">
        <ele>52</ele>
        <time>2022-11-11T14:50:15.658Z</time>
      </trkpt>
      <trkpt lat="50.51552" lon="3.2311">
        <ele>51</ele>
        <time>2022-11-11T14:50:20.472Z</time>
      </trkpt>
      <trkpt lat="50.51547" lon="3.23116">
        <ele>51</ele>
        <time>2022-11-11T14:50:25.287Z</time>
      </trkpt>
      <trkpt lat="50.51479" lon="3.23219">
        <ele>50</ele>
        <time>2022-11-11T14:50:30.115Z</time>
      </trkpt>
      <trkpt lat="50.51417" lon="3.23302">
        <ele>49</ele>
        <time>2022-11-11T14:50:34.955Z</time>
      </trkpt>
      <trkpt lat="50.51368" lon="3.23371">
        <ele>49</ele>
        <time>2022-11-11T14:50:39.804Z</time>
      </trkpt>
      <trkpt lat="50.5132" lon="3.2343">
        <ele>48</ele>
        <time>2022-11-11T14:50:44.662Z</time>
      </trkpt>
      <trkpt lat="50.51301" lon="3.23447">
        <ele>48</ele>
        <time>2022-11-11T14:50:49.523Z</time>
      </trkpt>
      <trkpt lat="50.51227" lon="3.23498">
        <ele>47</ele>
        <time>2022-11-11T14:50:54.395Z</time>
      </trkpt>
      <trkpt lat="50.51164" lon="3.23555">
        <ele>47</ele>
        <time>2022-11-11T14:50:59.278Z</time>
      </trkpt>
      <trkpt lat="50.51116" lon="3.23613">
        <ele>47</ele>
        <time>2022-11-11T14:51:04.169Z</time>
      </trkpt>
      <trkpt lat="50.51083" lon="3.23657">
        <ele>46</ele>
        <time>2022-11-11T14:51:09.067Z</time>
      </trkpt>
      <trkpt lat="50.51066" lon="3.23675">
        <ele>46</ele>
        <time>2022-11-11T14:51:13.967Z</time>
      </trkpt>
      <trkpt lat="50.51052" lon="3.23686">
        <ele>46</ele>
        <time>2022-11-11T14:51:18.870Z</time>
      </trkpt>
      <trkpt lat="50.50958" lon="3.23739">
        <ele>46</ele>
        <time>2022-11-11T14:51:23.787Z</time>
      </trkpt>
      <trkpt lat="50.50911" lon="3.23758">
        <ele>46</ele>
        <time>2022-11-11T14:51:28.711Z</time>
      </trkpt>
      <trkpt lat="50.50904" lon="3.23764">
        <ele>46</ele>
        <time>2022-11-11T14:51:33.636Z</time>
      </trkpt>
      <trkpt lat="50.50872" lon="3.23809">
        <ele>46</ele>
        <time>2022-11-11T14:51:38.567Z</time>
      </trkpt>
      <trkpt lat="50.50828" lon="3.23864">
        <ele>46</ele>
        <time>2022-11-11T14:51:43.506Z</time>
      </trkpt>
      <trkpt lat="50.50808" lon="3.23896">
        <ele>45</ele>
        <time>2022-11-11T14:51:48.449Z</time>
      </trkpt>
      <trkpt lat="50.508" lon="3.23915">
        <ele>45</ele>
        <time>2022-11-11T14:51:53.394Z</time>
      </trkpt>
      <trkpt lat="50.50792" lon="3.23943">
        <ele>45</ele>
        <time>2022-11-11T14:51:58.342Z</time>
      </trkpt>
      <trkpt lat="50.50766" lon="3.24039">
        <ele>45</ele>
        <time>2022-11-11T14:52:03.299Z</time>
      </trkpt>
      <trkpt lat="50.50766" lon="3.24039">
        <ele>45</ele>
        <time>2022-11-11T14:52:08.256Z</time>
      </trkpt>
      <trkpt lat="50.50761" lon="3.24059">
        <ele>45</ele>
        <time>2022-11-11T14:52:13.215Z</time>
      </trkpt>
      <trkpt lat="50.50752" lon="3.24113">
        <ele>45</ele>
        <time>2022-11-11T14:52:18.179Z</time>
      </trkpt>
      <trkpt lat="50.50746" lon="3.24159">
        <ele>45</ele>
        <time>2022-11-11T14:52:23.148Z</time>
      </trkpt>
      <trkpt lat="50.50742" lon="3.24205">
        <ele>45</ele>
        <time>2022-11-11T14:52:28.121Z</time>
      </trkpt>
      <trkpt lat="50.50737" lon="3.24239">
        <ele>45</ele>
        <time>2022-11-11T14:52:33.097Z</time>
      </trkpt>
      <trkpt lat="50.50732" lon="3.24267">
        <ele>45</ele>
        <time>2022-11-11T14:52:38.076Z</time>
      </trkpt>
      <trkpt lat="50.50726" lon="3.24284">
        <ele>45</ele>
        <time>2022-11-11T14:52:43.056Z</time>
      </trkpt>
      <trkpt lat="50.50722" lon="3.2429">
        <ele>45</ele>
        <time>2022-11-11T14:52:48.037Z</time>
      </trkpt>
      <trkpt lat="50.50719" lon="3.24294">
        <ele>45</ele>
        <time>2022-11-11T14:52:53.019Z</time>
      </trkpt>
      <trkpt lat="50.50685" lon="3.24308">
        <ele>45</ele>
        <time>2022-11-11T14:52:58.006Z</time>
      </trkpt>
      <trkpt lat="50.50676" lon="3.24316">
        <ele>45</ele>
        <time>2022-11-11T14:53:02.994Z</time>
      </trkpt>
      <trkpt lat="50.50666" lon="3.24327">
        <ele>45</ele>
        <time>2022-11-11T14:53:07.984Z</time>
      </trkpt>
      <trkpt lat="50.50625" lon="3.24348">
        <ele>45</ele>
        <time>2022-11-11T14:53:12.980Z</time>
      </trkpt>
      <trkpt lat="50.50614" lon="3.24362">
        <ele>45</ele>
        <time>2022-11-11T14:53:17.978Z</time>
      </trkpt>
      <trkpt lat="50.5061" lon="3.24371">
        <ele>45</ele>
        <time>2022-11-11T14:53:22.977Z</time>
      </trkpt>
      <trkpt lat="50.50607" lon="3.24381">
        <ele>45</ele>
        <time>2022-11-11T14:53:27.977Z</time>
      </trkpt>
      <trkpt lat="50.50611" lon="3.245">
        <ele>45</ele>
        <time>2022-11-11T14:53:32.988Z</time>
      </trkpt>
      <trkpt lat="50.50609" lon="3.24514">
        <ele>45</ele>
        <time>2022-11-11T14:53:38.000Z</time>
      </trkpt>
      <trkpt lat="50.50596" lon="3.24551">
        <ele>45</ele>
        <time>2022-11-11T14:53:43.016Z</time>
      </trkpt>
      <trkpt lat="50.50555" lon="3.24628">
        <ele>45</ele>
        <time>2022-11-11T14:53:48.041Z</time>
      </trkpt>
      <trkpt lat="50.50535" lon="3.24657">
        <ele>45</ele>
        <time>2022-11-11T14:53:53.070Z</time>
      </trkpt>
      <trkpt lat="50.5052" lon="3.24693">
        <ele>45</ele>
        <time>2022-11-11T14:53:58.103Z</time>
      </trkpt>
      <trkpt lat="50.50497" lon="3.24759">
        <ele>45</ele>
        <time>2022-11-11T14:54:03.143Z</time>
      </trkpt>
      <trkpt lat="50.50477" lon="3.24802">
        <ele>45</ele>
        <time>2022-11-11T14:54:08.187Z</time>
      </trkpt>
      <trkpt lat="50.50448" lon="3.24856">
        <ele>45</ele>
        <time>2022-11-11T14:54:13.238Z</time>
      </trkpt>
      <trkpt lat="50.50417" lon="3.24898">
        <ele>45</ele>
        <time>2022-11-11T14:54:18.295Z</time>
      </trkpt>
      <trkpt lat="50.50403" lon="3.24916">
        <ele>45</ele>
        <time>2022-11-11T14:54:23.354Z</time>
      </trkpt>
      <trkpt lat="50.50353" lon="3.24979">
        <ele>45</ele>
        <time>2022-11-11T14:54:28.422Z</time>
      </trkpt>
      <trkpt lat="50.50321" lon="3.2501">
        <ele>45</ele>
        <time>2022-11-11T14:54:33.496Z</time>
      </trkpt>
      <trkpt lat="50.5025" lon="3.25036">
        <ele>45</ele>
        <time>2022-11-11T14:54:38.580Z</time>
      </trkpt>
      <trkpt lat="50.50176" lon="3.25079">
        <ele>45</ele>
        <time>2022-11-11T14:54:43.675Z</time>
      </trkpt>
      <trkpt lat="50.5015" lon="3.25101">
        <ele>45</ele>
        <time>2022-11-11T14:54:48.775Z</time>
      </trkpt>
      <trkpt lat="50.50133" lon="3.25122">
        <ele>45</ele>
        <time>2022-11-11T14:54:53.878Z</time>
      </trkpt>
      <trkpt lat="50.50075" lon="3.25205">
        <ele>46</ele>
        <time>2022-11-11T14:54:58.992Z</time>
      </trkpt>
      <trkpt lat="50.50052" lon="3.25234">
        <ele>46</ele>
        <time>2022-11-11T14:55:04.110Z</time>
      </trkpt>
      <trkpt lat="50.5004" lon="3.25248">
        <ele>46</ele>
        <time>2022-11-11T14:55:09.230Z</time>
      </trkpt>
      <trkpt lat="50.50027" lon="3.25251">
        <ele>46</ele>
        <time>2022-11-11T14:55:14.352Z</time>
      </trkpt>
      <trkpt lat="50.50015" lon="3.25254">
        <ele>46</ele>
        <time>2022-11-11T14:55:19.476Z</time>
      </trkpt>
      <trkpt lat="50.50011" lon="3.25269">
        <ele>46</ele>
        <time>2022-11-11T14:55:24.601Z</time>
      </trkpt>
      <trkpt lat="50.49941" lon="3.25349">
        <ele>46</ele>
        <time>2022-11-11T14:55:29.738Z</time>
      </trkpt>
      <trkpt lat="50.49926" lon="3.25372">
        <ele>46</ele>
        <time>2022-11-11T14:55:34.878Z</time>
      </trkpt>
      <trkpt lat="50.49909" lon="3.25406">
        <ele>47</ele>
        <time>2022-11-11T14:55:40.022Z</time>
      </trkpt>
      <trkpt lat="50.49889" lon="3.25434">
        <ele>47</ele>
        <time>2022-11-11T14:55:45.170Z</time>
      </trkpt>
      <trkpt lat="50.49882" lon="3.25454">
        <ele>47</ele>
        <time>2022-11-11T14:55:50.320Z</time>
      </trkpt>
      <trkpt lat="50.49878" lon="3.25508">
        <ele>46</ele>
        <time>2022-11-11T14:55:55.475Z</time>
      </trkpt>
      <trkpt lat="50.49872" lon="3.25538">
        <ele>46</ele>
        <time>2022-11-11T14:56:00.633Z</time>
      </trkpt>
      <trkpt lat="50.49864" lon="3.25561">
        <ele>46</ele>
        <time>2022-11-11T14:56:05.793Z</time>
      </trkpt>
      <trkpt lat="50.49852" lon="3.25587">
        <ele>46</ele>
        <time>2022-11-11T14:56:10.956Z</time>
      </trkpt>
      <trkpt lat="50.49843" lon="3.25599">
        <ele>46</ele>
        <time>2022-11-11T14:56:16.121Z</time>
      </trkpt>
      <trkpt lat="50.49846" lon="3.25619">
        <ele>46</ele>
        <time>2022-11-11T14:56:21.288Z</time>
      </trkpt>
      <trkpt lat="50.49859" lon="3.25647">
        <ele>46</ele>
        <time>2022-11-11T14:56:26.458Z</time>
      </trkpt>
      <trkpt lat="50.49877" lon="3.25677">
        <ele>46</ele>
        <time>2022-11-11T14:56:31.631Z</time>
      </trkpt>
      <trkpt lat="50.49901" lon="3.25733">
        <ele>46</ele>
        <time>2022-11-11T14:56:36.811Z</time>
      </trkpt>
      <trkpt lat="50.49903" lon="3.25747">
        <ele>46</ele>
        <time>2022-11-11T14:56:41.992Z</time>
      </trkpt>
      <trkpt lat="50.49902" lon="3.25762">
        <ele>46</ele>
        <time>2022-11-11T14:56:47.174Z</time>
      </trkpt>
      <trkpt lat="50.49881" lon="3.25876">
        <ele>45</ele>
        <time>2022-11-11T14:56:52.367Z</time>
      </trkpt>
      <trkpt lat="50.49867" lon="3.25937">
        <ele>45</ele>
        <time>2022-11-11T14:56:57.566Z</time>
      </trkpt>
      <trkpt lat="50.49799" lon="3.26173">
        <ele>45</ele>
        <time>2022-11-11T14:57:02.788Z</time>
      </trkpt>
      <trkpt lat="50.4979" lon="3.26219">
        <ele>45</ele>
        <time>2022-11-11T14:57:08.015Z</time>
      </trkpt>
      <trkpt lat="50.49766" lon="3.26347">
        <ele>45</ele>
        <time>2022-11-11T14:57:13.254Z</time>
      </trkpt>
      <trkpt lat="50.49756" lon="3.26415">
        <ele>44</ele>
        <time>2022-11-11T14:57:18.499Z</time>
      </trkpt>
      <trkpt lat="50.49735" lon="3.26503">
        <ele>44</ele>
        <time>2022-11-11T14:57:23.753Z</time>
      </trkpt>
      <trkpt lat="50.49717" lon="3.26571">
        <ele>44</ele>
        <time>2022-11-11T14:57:29.013Z</time>
      </trkpt>
      <trkpt lat="50.49373" lon="3.26403">
        <ele>44</ele>
        <time>2022-11-11T14:57:34.324Z</time>
      </trkpt>
      <trkpt lat="50.49367" lon="3.26408">
        <ele>44</ele>
        <time>2022-11-11T14:57:39.636Z</time>
      </trkpt>
      <trkpt lat="50.49339" lon="3.26397">
        <ele>44</ele>
        <time>2022-11-11T14:57:44.952Z</time>
      </trkpt>
      <trkpt lat="50.4933" lon="3.26397">
        <ele>44</ele>
        <time>2022-11-11T14:57:50.270Z</time>
      </trkpt>
      <trkpt lat="50.49313" lon="3.26408">
        <ele>44</ele>
        <time>2022-11-11T14:57:55.590Z</time>
      </trkpt>
      <trkpt lat="50.49306" lon="3.26416">
        <ele>44</ele>
        <time>2022-11-11T14:58:00.912Z</time>
      </trkpt>
      <trkpt lat="50.49287" lon="3.26437">
        <ele>44</ele>
        <time>2022-11-11T14:58:06.237Z</time>
      </trkpt>
      <trkpt lat="50.49274" lon="3.26446">
        <ele>44</ele>
        <time>2022-11-11T14:58:11.564Z</time>
      </trkpt>
      <trkpt lat="50.49246" lon="3.26499">
        <ele>44</ele>
        <time>2022-11-11T14:58:16.897Z</time>
      </trkpt>
      <trkpt lat="50.49234" lon="3.26536">
        <ele>44</ele>
        <time>2022-11-11T14:58:22.234Z</time>
      </trkpt>
      <trkpt lat="50.49201" lon="3.26704">
        <ele>45</ele>
        <time>2022-11-11T14:58:27.587Z</time>
      </trkpt>
      <trkpt lat="50.49188" lon="3.26757">
        <ele>45</ele>
        <time>2022-11-11T14:58:32.945Z</time>
      </trkpt>
      <trkpt lat="50.49173" lon="3.2681">
        <ele>45</ele>
        <time>2022-11-11T14:58:38.308Z</time>
      </trkpt>
      <trkpt lat="50.49106" lon="3.27014">
        <ele>44</ele>
        <time>2022-11-11T14:58:43.692Z</time>
      </trkpt>
      <trkpt lat="50.49088" lon="3.27057">
        <ele>45</ele>
        <time>2022-11-11T14:58:49.081Z</time>
      </trkpt>
      <trkpt lat="50.49059" lon="3.27105">
        <ele>45</ele>
        <time>2022-11-11T14:58:54.476Z</time>
      </trkpt>
      <trkpt lat="50.48966" lon="3.27248">
        <ele>44</ele>
        <time>2022-11-11T14:58:59.889Z</time>
      </trkpt>
      <trkpt lat="50.48957" lon="3.27266">
        <ele>44</ele>
        <time>2022-11-11T14:59:05.304Z</time>
      </trkpt>
      <trkpt lat="50.48951" lon="3.27286">
        <ele>45</ele>
        <time>2022-11-11T14:59:10.721Z</time>
      </trkpt>
      <trkpt lat="50.48946" lon="3.27309">
        <ele>45</ele>
        <time>2022-11-11T14:59:16.140Z</time>
      </trkpt>
      <trkpt lat="50.48929" lon="3.27303">
        <ele>45</ele>
        <time>2022-11-11T14:59:21.562Z</time>
      </trkpt>
      <trkpt lat="50.48823" lon="3.27413">
        <ele>44</ele>
        <time>2022-11-11T14:59:27.002Z</time>
      </trkpt>
      <trkpt lat="50.48749" lon="3.27507">
        <ele>45</ele>
        <time>2022-11-11T14:59:32.456Z</time>
      </trkpt>
      <trkpt lat="50.48736" lon="3.27522">
        <ele>45</ele>
        <time>2022-11-11T14:59:37.912Z</time>
      </trkpt>
      <trkpt lat="50.48667" lon="3.27589">
        <ele>45</ele>
        <time>2022-11-11T14:59:43.379Z</time>
      </trkpt>
      <trkpt lat="50.48594" lon="3.27646">
        <ele>45</ele>
        <time>2022-11-11T14:59:48.858Z</time>
      </trkpt>
      <trkpt lat="50.4858" lon="3.27662">
        <ele>45</ele>
        <time>2022-11-11T14:59:54.339Z</time>
      </trkpt>
      <trkpt lat="50.4858" lon="3.27662">
        <ele>45</ele>
        <time>2022-11-11T14:59:59.820Z</time>
      </trkpt>
      <trkpt lat="50.48564" lon="3.27691">
        <ele>45</ele>
        <time>2022-11-11T15:00:05.305Z</time>
      </trkpt>
      <trkpt lat="50.48551" lon="3.27726">
        <ele>45</ele>
        <time>2022-11-11T15:00:10.794Z</time>
      </trkpt>
      <trkpt lat="50.48484" lon="3.27975">
        <ele>46</ele>
        <time>2022-11-11T15:00:16.307Z</time>
      </trkpt>
      <trkpt lat="50.48469" lon="3.2801">
        <ele>46</ele>
        <time>2022-11-11T15:00:21.824Z</time>
      </trkpt>
      <trkpt lat="50.48447" lon="3.28047">
        <ele>46</ele>
        <time>2022-11-11T15:00:27.345Z</time>
      </trkpt>
      <trkpt lat="50.48413" lon="3.28103">
        <ele>46</ele>
        <time>2022-11-11T15:00:32.873Z</time>
      </trkpt>
      <trkpt lat="50.48402" lon="3.28113">
        <ele>46</ele>
        <time>2022-11-11T15:00:38.403Z</time>
      </trkpt>
      <trkpt lat="50.48405" lon="3.28217">
        <ele>46</ele>
        <time>2022-11-11T15:00:43.943Z</time>
      </trkpt>
      <trkpt lat="50.48403" lon="3.28241">
        <ele>46</ele>
        <time>2022-11-11T15:00:49.485Z</time>
      </trkpt>
      <trkpt lat="50.484" lon="3.28262">
        <ele>47</ele>
        <time>2022-11-11T15:00:55.029Z</time>
      </trkpt>
      <trkpt lat="50.48368" lon="3.28351">
        <ele>47</ele>
        <time>2022-11-11T15:01:00.582Z</time>
      </trkpt>
      <trkpt lat="50.48362" lon="3.28379">
        <ele>47</ele>
        <time>2022-11-11T15:01:06.138Z</time>
      </trkpt>
      <trkpt lat="50.48363" lon="3.28401">
        <ele>47</ele>
        <time>2022-11-11T15:01:11.696Z</time>
      </trkpt>
      <trkpt lat="50.48365" lon="3.28418">
        <ele>46</ele>
        <time>2022-11-11T15:01:17.255Z</time>
      </trkpt>
      <trkpt lat="50.48366" lon="3.28435">
        <ele>46</ele>
        <time>2022-11-11T15:01:22.816Z</time>
      </trkpt>
      <trkpt lat="50.48365" lon="3.28455">
        <ele>46</ele>
        <time>2022-11-11T15:01:28.379Z</time>
      </trkpt>
      <trkpt lat="50.48351" lon="3.28504">
        <ele>46</ele>
        <time>2022-11-11T15:01:33.947Z</time>
      </trkpt>
      <trkpt lat="50.48323" lon="3.28589">
        <ele>45</ele>
        <time>2022-11-11T15:01:39.523Z</time>
      </trkpt>
      <trkpt lat="50.48323" lon="3.28589">
        <ele>45</ele>
        <time>2022-11-11T15:01:45.099Z</time>
      </trkpt>
      <trkpt lat="50.48319" lon="3.286">
        <ele>45</ele>
        <time>2022-11-11T15:01:50.676Z</time>
      </trkpt>
      <trkpt lat="50.48296" lon="3.28676">
        <ele>45</ele>
        <time>2022-11-11T15:01:56.261Z</time>
      </trkpt>
      <trkpt lat="50.48261" lon="3.28806">
        <ele>44</ele>
        <time>2022-11-11T15:02:01.859Z</time>
      </trkpt>
      <trkpt lat="50.48234" lon="3.28894">
        <ele>44</ele>
        <time>2022-11-11T15:02:07.466Z</time>
      </trkpt>
      <trkpt lat="50.48214" lon="3.28948">
        <ele>43</ele>
        <time>2022-11-11T15:02:13.078Z</time>
      </trkpt>
      <trkpt lat="50.48194" lon="3.2898">
        <ele>43</ele>
        <time>2022-11-11T15:02:18.694Z</time>
      </trkpt>
      <trkpt lat="50.48194" lon="3.2898">
        <ele>42</ele>
        <time>2022-11-11T15:02:24.310Z</time>
      </trkpt>
      <trkpt lat="50.48151" lon="3.29038">
        <ele>42</ele>
        <time>2022-11-11T15:02:29.934Z</time>
      </trkpt>
      <trkpt lat="50.4812" lon="3.29071">
        <ele>41</ele>
        <time>2022-11-11T15:02:35.564Z</time>
      </trkpt>
      <trkpt lat="50.48106" lon="3.29088">
        <ele>41</ele>
        <time>2022-11-11T15:02:41.196Z</time>
      </trkpt>
      <trkpt lat="50.48072" lon="3.29162">
        <ele>40</ele>
        <time>2022-11-11T15:02:46.836Z</time>
      </trkpt>
      <trkpt lat="50.48056" lon="3.29192">
        <ele>40</ele>
        <time>2022-11-11T15:02:52.480Z</time>
      </trkpt>
      <trkpt lat="50.48038" lon="3.29219">
        <ele>40</ele>
        <time>2022-11-11T15:02:58.128Z</time>
      </trkpt>
      <trkpt lat="50.48001" lon="3.29265">
        <ele>39</ele>
        <time>2022-11-11T15:03:03.782Z</time>
      </trkpt>
      <trkpt lat="50.47985" lon="3.29293">
        <ele>39</ele>
        <time>2022-11-11T15:03:09.440Z</time>
      </trkpt>
      <trkpt lat="50.47966" lon="3.29333">
        <ele>39</ele>
        <time>2022-11-11T15:03:15.102Z</time>
      </trkpt>
      <trkpt lat="50.47951" lon="3.29359">
        <ele>39</ele>
        <time>2022-11-11T15:03:20.767Z</time>
      </trkpt>
      <trkpt lat="50.4793" lon="3.29385">
        <ele>38</ele>
        <time>2022-11-11T15:03:26.436Z</time>
      </trkpt>
      <trkpt lat="50.47921" lon="3.29401">
        <ele>38</ele>
        <time>2022-11-11T15:03:32.107Z</time>
      </trkpt>
      <trkpt lat="50.47913" lon="3.29415">
        <ele>38</ele>
        <time>2022-11-11T15:03:37.780Z</time>
      </trkpt>
      <trkpt lat="50.47876" lon="3.29504">
        <ele>38</ele>
        <time>2022-11-11T15:03:43.462Z</time>
      </trkpt>
      <trkpt lat="50.47864" lon="3.29531">
        <ele>38</ele>
        <time>2022-11-11T15:03:49.147Z</time>
      </trkpt>
      <trkpt lat="50.47853" lon="3.29546">
        <ele>38</ele>
        <time>2022-11-11T15:03:54.834Z</time>
      </trkpt>
      <trkpt lat="50.47818" lon="3.29553">
        <ele>37</ele>
        <time>2022-11-11T15:04:00.527Z</time>
      </trkpt>
      <trkpt lat="50.47805" lon="3.29553">
        <ele>37</ele>
        <time>2022-11-11T15:04:06.221Z</time>
      </trkpt>
      <trkpt lat="50.47792" lon="3.2955">
        <ele>37</ele>
        <time>2022-11-11T15:04:11.917Z</time>
      </trkpt>
      <trkpt lat="50.47759" lon="3.29535">
        <ele>37</ele>
        <time>2022-11-11T15:04:17.618Z</time>
      </trkpt>
      <trkpt lat="50.47759" lon="3.29535">
        <ele>37</ele>
        <time>2022-11-11T15:04:23.319Z</time>
      </trkpt>
      <trkpt lat="50.47738" lon="3.29537">
        <ele>37</ele>
        <time>2022-11-11T15:04:29.023Z</time>
      </trkpt>
      <trkpt lat="50.47726" lon="3.29548">
        <ele>37</ele>
        <time>2022-11-11T15:04:34.729Z</time>
      </trkpt>
      <trkpt lat="50.47694" lon="3.29585">
        <ele>37</ele>
        <time>2022-11-11T15:04:40.441Z</time>
      </trkpt>
      <trkpt lat="50.47666" lon="3.29622">
        <ele>37</ele>
        <time>2022-11-11T15:04:46.158Z</time>
      </trkpt>
      <trkpt lat="50.47637" lon="3.29654">
        <ele>37</ele>
        <time>2022-11-11T15:04:51.880Z</time>
      </trkpt>
      <trkpt lat="50.47622" lon="3.2966">
        <ele>37</ele>
        <time>2022-11-11T15:04:57.604Z</time>
      </trkpt>
      <trkpt lat="50.47621" lon="3.29675">
        <ele>36</ele>
        <time>2022-11-11T15:05:03.329Z</time>
      </trkpt>
      <trkpt lat="50.47616" lon="3.29686">
        <ele>36</ele>
        <time>2022-11-11T15:05:09.056Z</time>
      </trkpt>
      <trkpt lat="50.47514" lon="3.29795">
        <ele>36</ele>
        <time>2022-11-11T15:05:14.800Z</time>
      </trkpt>
      <trkpt lat="50.47491" lon="3.29848">
        <ele>36</ele>
        <time>2022-11-11T15:05:20.550Z</time>
      </trkpt>
      <trkpt lat="50.47491" lon="3.29848">
        <ele>36</ele>
        <time>2022-11-11T15:05:26.300Z</time>
      </trkpt>
      <trkpt lat="50.47479" lon="3.2988">
        <ele>36</ele>
        <time>2022-11-11T15:05:32.053Z</time>
      </trkpt>
      <trkpt lat="50.47432" lon="3.29843">
        <ele>36</ele>
        <time>2022-11-11T15:05:37.814Z</time>
      </trkpt>
      <trkpt lat="50.47427" lon="3.29842">
        <ele>36</ele>
        <time>2022-11-11T15:05:43.576Z</time>
      </trkpt>
      <trkpt lat="50.47427" lon="3.29842">
        <ele>36</ele>
        <time>2022-11-11T15:05:49.338Z</time>
      </trkpt>
      <trkpt lat="50.47365" lon="3.29837">
        <ele>35</ele>
        <time>2022-11-11T15:05:55.108Z</time>
      </trkpt>
      <trkpt lat="50.4734" lon="3.29829">
        <ele>35</ele>
        <time>2022-11-11T15:06:00.882Z</time>
      </trkpt>
      <trkpt lat="50.4731" lon="3.29813">
        <ele>35</ele>
        <time>2022-11-11T15:06:06.660Z</time>
      </trkpt>
      <trkpt lat="50.4731" lon="3.29813">
        <ele>35</ele>
        <time>2022-11-11T15:06:12.438Z</time>
      </trkpt>
      <trkpt lat="50.4728" lon="3.29787">
        <ele>35</ele>
        <time>2022-11-11T15:06:18.221Z</time>
      </trkpt>
      <trkpt lat="50.47265" lon="3.2977">
        <ele>35</ele>
        <time>2022-11-11T15:06:24.007Z</time>
      </trkpt>
      <trkpt lat="50.47241" lon="3.29736">
        <ele>34</ele>
        <time>2022-11-11T15:06:29.798Z</time>
      </trkpt>
      <trkpt lat="50.47229" lon="3.2971">
        <ele>34</ele>
        <time>2022-11-11T15:06:35.591Z</time>
      </trkpt>
      <trkpt lat="50.47221" lon="3.29692">
        <ele>34</ele>
        <time>2022-11-11T15:06:41.386Z</time>
      </trkpt>
      <trkpt lat="50.47209" lon="3.29648">
        <ele>34</ele>
        <time>2022-11-11T15:06:47.186Z</time>
      </trkpt>
      <trkpt lat="50.47209" lon="3.29648">
        <ele>34</ele>
        <time>2022-11-11T15:06:52.986Z</time>
      </trkpt>
      <trkpt lat="50.47158" lon="3.29408">
        <ele>34</ele>
        <time>2022-11-11T15:06:58.809Z</time>
      </trkpt>
      <trkpt lat="50.4714" lon="3.29337">
        <ele>33</ele>
        <time>2022-11-11T15:07:04.639Z</time>
      </trkpt>
      <trkpt lat="50.47137" lon="3.29315">
        <ele>33</ele>
        <time>2022-11-11T15:07:10.471Z</time>
      </trkpt>
      <trkpt lat="50.47133" lon="3.29224">
        <ele>33</ele>
        <time>2022-11-11T15:07:16.311Z</time>
      </trkpt>
      <trkpt lat="50.47133" lon="3.29224">
        <ele>33</ele>
        <time>2022-11-11T15:07:22.151Z</time>
      </trkpt>
      <trkpt lat="50.47127" lon="3.29209">
        <ele>32</ele>
        <time>2022-11-11T15:07:27.993Z</time>
      </trkpt>
      <trkpt lat="50.4712" lon="3.29204">
        <ele>32</ele>
        <time>2022-11-11T15:07:33.836Z</time>
      </trkpt>
      <trkpt lat="50.47054" lon="3.29199">
        <ele>31</ele>
        <time>2022-11-11T15:07:39.688Z</time>
      </trkpt>
      <trkpt lat="50.47026" lon="3.29195">
        <ele>31</ele>
        <time>2022-11-11T15:07:45.544Z</time>
      </trkpt>
      <trkpt lat="50.4699" lon="3.2917">
        <ele>30</ele>
        <time>2022-11-11T15:07:51.406Z</time>
      </trkpt>
      <trkpt lat="50.46893" lon="3.29103">
        <ele>30</ele>
        <time>2022-11-11T15:07:57.283Z</time>
      </trkpt>
      <trkpt lat="50.46886" lon="3.29097">
        <ele>29</ele>
        <time>2022-11-11T15:08:03.161Z</time>
      </trkpt>
      <trkpt lat="50.46827" lon="3.29057">
        <ele>28</ele>
        <time>2022-11-11T15:08:09.048Z</time>
      </trkpt>
      <trkpt lat="50.46827" lon="3.29057">
        <ele>28</ele>
        <time>2022-11-11T15:08:14.935Z</time>
      </trkpt>
      <trkpt lat="50.46806" lon="3.29056">
        <ele>27</ele>
        <time>2022-11-11T15:08:20.825Z</time>
      </trkpt>
      <trkpt lat="50.46791" lon="3.2906">
        <ele>27</ele>
        <time>2022-11-11T15:08:26.717Z</time>
      </trkpt>
      <trkpt lat="50.4678" lon="3.29065">
        <ele>26</ele>
        <time>2022-11-11T15:08:32.611Z</time>
      </trkpt>
      <trkpt lat="50.46775" lon="3.29066">
        <ele>26</ele>
        <time>2022-11-11T15:08:38.505Z</time>
      </trkpt>
      <trkpt lat="50.46751" lon="3.29075">
        <ele>25</ele>
        <time>2022-11-11T15:08:44.403Z</time>
      </trkpt>
      <trkpt lat="50.46738" lon="3.29076">
        <ele>25</ele>
        <time>2022-11-11T15:08:50.303Z</time>
      </trkpt>
      <trkpt lat="50.46723" lon="3.29072">
        <ele>25</ele>
        <time>2022-11-11T15:08:56.205Z</time>
      </trkpt>
      <trkpt lat="50.46693" lon="3.29051">
        <ele>24</ele>
        <time>2022-11-11T15:09:02.112Z</time>
      </trkpt>
      <trkpt lat="50.46587" lon="3.28969">
        <ele>24</ele>
        <time>2022-11-11T15:09:08.035Z</time>
      </trkpt>
      <trkpt lat="50.46574" lon="3.28954">
        <ele>23</ele>
        <time>2022-11-11T15:09:13.961Z</time>
      </trkpt>
      <trkpt lat="50.46559" lon="3.28928">
        <ele>23</ele>
        <time>2022-11-11T15:09:19.890Z</time>
      </trkpt>
      <trkpt lat="50.46531" lon="3.28877">
        <ele>23</ele>
        <time>2022-11-11T15:09:25.825Z</time>
      </trkpt>
      <trkpt lat="50.46517" lon="3.28857">
        <ele>23</ele>
        <time>2022-11-11T15:09:31.763Z</time>
      </trkpt>
      <trkpt lat="50.46517" lon="3.28857">
        <ele>23</ele>
        <time>2022-11-11T15:09:37.701Z</time>
      </trkpt>
      <trkpt lat="50.46491" lon="3.28836">
        <ele>22</ele>
        <time>2022-11-11T15:09:43.643Z</time>
      </trkpt>
      <trkpt lat="50.46491" lon="3.28836">
        <ele>22</ele>
        <time>2022-11-11T15:09:49.585Z</time>
      </trkpt>
      <trkpt lat="50.46491" lon="3.28836">
        <ele>22</ele>
        <time>2022-11-11T15:09:55.527Z</time>
      </trkpt>
      <trkpt lat="50.46491" lon="3.28836">
        <ele>22</ele>
        <time>2022-11-11T15:10:01.469Z</time>
      </trkpt>
      <trkpt lat="50.4649" lon="3.28836">
        <ele>22</ele>
        <time>2022-11-11T15:10:07.411Z</time>
      </trkpt>
      <trkpt lat="50.4626" lon="3.28697">
        <ele>22</ele>
        <time>2022-11-11T15:10:13.388Z</time>
      </trkpt>
      <trkpt lat="50.46247" lon="3.28694">
        <ele>22</ele>
        <time>2022-11-11T15:10:19.367Z</time>
      </trkpt>
      <trkpt lat="50.46223" lon="3.28696">
        <ele>22</ele>
        <time>2022-11-11T15:10:25.349Z</time>
      </trkpt>
      <trkpt lat="50.46161" lon="3.28734">
        <ele>22</ele>
        <time>2022-11-11T15:10:31.341Z</time>
      </trkpt>
      <trkpt lat="50.46118" lon="3.28653">
        <ele>22</ele>
        <time>2022-11-11T15:10:37.342Z</time>
      </trkpt>
      <trkpt lat="50.46101" lon="3.28622">
        <ele>22</ele>
        <time>2022-11-11T15:10:43.347Z</time>
      </trkpt>
      <trkpt lat="50.46084" lon="3.28607">
        <ele>23</ele>
        <time>2022-11-11T15:10:49.355Z</time>
      </trkpt>
      <trkpt lat="50.4603" lon="3.28589">
        <ele>23</ele>
        <time>2022-11-11T15:10:55.370Z</time>
      </trkpt>
      <trkpt lat="50.46025" lon="3.28602">
        <ele>23</ele>
        <time>2022-11-11T15:11:01.387Z</time>
      </trkpt>
      <trkpt lat="50.45948" lon="3.28549">
        <ele>24</ele>
        <time>2022-11-11T15:11:19.485Z</time>
      </trkpt>
      <trkpt lat="50.45948" lon="3.28549">
        <ele>24</ele>
        <time>2022-11-11T17:07:50.327Z</time>
      </trkpt>
      <trkpt lat="50.45953" lon="3.28503">
        <ele>24</ele>
        <time>2022-11-11T17:08:01.745Z</time>
      </trkpt>
      <trkpt lat="50.45956" lon="3.28425">
        <ele>24</ele>
        <time>2022-11-11T17:08:13.170Z</time>
      </trkpt>
      <trkpt lat="50.45956" lon="3.28425">
        <ele>24</ele>
        <time>2022-11-11T17:08:24.595Z</time>
      </trkpt>
      <trkpt lat="50.45957" lon="3.28416">
        <ele>24</ele>
        <time>2022-11-11T17:08:36.021Z</time>
      </trkpt>
      <trkpt lat="50.45963" lon="3.28364">
        <ele>24</ele>
        <time>2022-11-11T17:08:47.452Z</time>
      </trkpt>
      <trkpt lat="50.46011" lon="3.28184">
        <ele>24</ele>
        <time>2022-11-11T17:08:58.900Z</time>
      </trkpt>
      <trkpt lat="50.46034" lon="3.281">
        <ele>24</ele>
        <time>2022-11-11T17:09:10.357Z</time>
      </trkpt>
      <trkpt lat="50.46034" lon="3.28099">
        <ele>25</ele>
        <time>2022-11-11T17:09:21.814Z</time>
      </trkpt>
      <trkpt lat="50.46034" lon="3.28099">
        <ele>25</ele>
        <time>2022-11-11T17:09:33.271Z</time>
      </trkpt>
      <trkpt lat="50.46034" lon="3.28099">
        <ele>25</ele>
        <time>2022-11-11T17:09:44.728Z</time>
      </trkpt>
      <trkpt lat="50.46035" lon="3.28099">
        <ele>25</ele>
        <time>2022-11-11T17:09:56.185Z</time>
      </trkpt>
      <trkpt lat="50.46099" lon="3.27864">
        <ele>25</ele>
        <time>2022-11-11T17:10:07.665Z</time>
      </trkpt>
      <trkpt lat="50.46219" lon="3.27408">
        <ele>25</ele>
        <time>2022-11-11T17:10:19.190Z</time>
      </trkpt>
      <trkpt lat="50.46219" lon="3.27408">
        <ele>25</ele>
        <time>2022-11-11T17:10:30.715Z</time>
      </trkpt>
      <trkpt lat="50.46279" lon="3.27181">
        <ele>24</ele>
        <time>2022-11-11T17:10:42.262Z</time>
      </trkpt>
      <trkpt lat="50.46348" lon="3.26919">
        <ele>24</ele>
        <time>2022-11-11T17:10:53.834Z</time>
      </trkpt>
      <trkpt lat="50.464" lon="3.26767">
        <ele>24</ele>
        <time>2022-11-11T17:11:05.422Z</time>
      </trkpt>
      <trkpt lat="50.46438" lon="3.26654">
        <ele>24</ele>
        <time>2022-11-11T17:11:17.022Z</time>
      </trkpt>
      <trkpt lat="50.46443" lon="3.26635">
        <ele>24</ele>
        <time>2022-11-11T17:11:28.624Z</time>
      </trkpt>
      <trkpt lat="50.46443" lon="3.26635">
        <ele>24</ele>
        <time>2022-11-11T17:11:40.226Z</time>
      </trkpt>
      <trkpt lat="50.46454" lon="3.26602">
        <ele>24</ele>
        <time>2022-11-11T17:11:51.831Z</time>
      </trkpt>
      <trkpt lat="50.46497" lon="3.26447">
        <ele>24</ele>
        <time>2022-11-11T17:12:03.451Z</time>
      </trkpt>
      <trkpt lat="50.46533" lon="3.2631">
        <ele>24</ele>
        <time>2022-11-11T17:12:15.085Z</time>
      </trkpt>
      <trkpt lat="50.46536" lon="3.26302">
        <ele>24</ele>
        <time>2022-11-11T17:12:26.720Z</time>
      </trkpt>
      <trkpt lat="50.46547" lon="3.26275">
        <ele>24</ele>
        <time>2022-11-11T17:12:38.358Z</time>
      </trkpt>
      <trkpt lat="50.46554" lon="3.26265">
        <ele>24</ele>
        <time>2022-11-11T17:12:49.997Z</time>
      </trkpt>
      <trkpt lat="50.46554" lon="3.26265">
        <ele>24</ele>
        <time>2022-11-11T17:13:01.636Z</time>
      </trkpt>
      <trkpt lat="50.46562" lon="3.26253">
        <ele>24</ele>
        <time>2022-11-11T17:13:13.276Z</time>
      </trkpt>
      <trkpt lat="50.46567" lon="3.26254">
        <ele>24</ele>
        <time>2022-11-11T17:13:24.917Z</time>
      </trkpt>
      <trkpt lat="50.46574" lon="3.26252">
        <ele>24</ele>
        <time>2022-11-11T17:13:36.559Z</time>
      </trkpt>
      <trkpt lat="50.46577" lon="3.26249">
        <ele>24</ele>
        <time>2022-11-11T17:13:48.202Z</time>
      </trkpt>
      <trkpt lat="50.46583" lon="3.2624">
        <ele>24</ele>
        <time>2022-11-11T17:13:59.846Z</time>
      </trkpt>
      <trkpt lat="50.46585" lon="3.26229">
        <ele>24</ele>
        <time>2022-11-11T17:14:11.491Z</time>
      </trkpt>
      <trkpt lat="50.46583" lon="3.26211">
        <ele>25</ele>
        <time>2022-11-11T17:14:23.137Z</time>
      </trkpt>
      <trkpt lat="50.46581" lon="3.26207">
        <ele>25</ele>
        <time>2022-11-11T17:14:34.784Z</time>
      </trkpt>
      <trkpt lat="50.46577" lon="3.26186">
        <ele>25</ele>
        <time>2022-11-11T17:14:46.433Z</time>
      </trkpt>
      <trkpt lat="50.46577" lon="3.26172">
        <ele>25</ele>
        <time>2022-11-11T17:14:58.083Z</time>
      </trkpt>
      <trkpt lat="50.46583" lon="3.26129">
        <ele>26</ele>
        <time>2022-11-11T17:15:09.737Z</time>
      </trkpt>
      <trkpt lat="50.46592" lon="3.26077">
        <ele>26</ele>
        <time>2022-11-11T17:15:21.396Z</time>
      </trkpt>
      <trkpt lat="50.4662" lon="3.25959">
        <ele>26</ele>
        <time>2022-11-11T17:15:33.066Z</time>
      </trkpt>
      <trkpt lat="50.46677" lon="3.25733">
        <ele>27</ele>
        <time>2022-11-11T17:15:44.758Z</time>
      </trkpt>
      <trkpt lat="50.46703" lon="3.25633">
        <ele>27</ele>
        <time>2022-11-11T17:15:56.460Z</time>
      </trkpt>
      <trkpt lat="50.46735" lon="3.25508">
        <ele>28</ele>
        <time>2022-11-11T17:16:08.174Z</time>
      </trkpt>
      <trkpt lat="50.46759" lon="3.25426">
        <ele>28</ele>
        <time>2022-11-11T17:16:19.897Z</time>
      </trkpt>
      <trkpt lat="50.46789" lon="3.25343">
        <ele>29</ele>
        <time>2022-11-11T17:16:31.628Z</time>
      </trkpt>
      <trkpt lat="50.46806" lon="3.25297">
        <ele>29</ele>
        <time>2022-11-11T17:16:43.364Z</time>
      </trkpt>
      <trkpt lat="50.46833" lon="3.25223">
        <ele>30</ele>
        <time>2022-11-11T17:16:55.108Z</time>
      </trkpt>
      <trkpt lat="50.46845" lon="3.25196">
        <ele>30</ele>
        <time>2022-11-11T17:17:06.855Z</time>
      </trkpt>
      <trkpt lat="50.46899" lon="3.25083">
        <ele>31</ele>
        <time>2022-11-11T17:17:18.615Z</time>
      </trkpt>
      <trkpt lat="50.46905" lon="3.25073">
        <ele>31</ele>
        <time>2022-11-11T17:17:30.376Z</time>
      </trkpt>
      <trkpt lat="50.46949" lon="3.24985">
        <ele>31</ele>
        <time>2022-11-11T17:17:42.147Z</time>
      </trkpt>
      <trkpt lat="50.46973" lon="3.2495">
        <ele>32</ele>
        <time>2022-11-11T17:17:53.923Z</time>
      </trkpt>
      <trkpt lat="50.4699" lon="3.24936">
        <ele>32</ele>
        <time>2022-11-11T17:18:05.701Z</time>
      </trkpt>
      <trkpt lat="50.47015" lon="3.24907">
        <ele>33</ele>
        <time>2022-11-11T17:18:17.484Z</time>
      </trkpt>
      <trkpt lat="50.4706" lon="3.24835">
        <ele>33</ele>
        <time>2022-11-11T17:18:29.276Z</time>
      </trkpt>
      <trkpt lat="50.4706" lon="3.24835">
        <ele>34</ele>
        <time>2022-11-11T17:18:41.068Z</time>
      </trkpt>
      <trkpt lat="50.47064" lon="3.2483">
        <ele>34</ele>
        <time>2022-11-11T17:18:52.861Z</time>
      </trkpt>
      <trkpt lat="50.47122" lon="3.24868">
        <ele>34</ele>
        <time>2022-11-11T17:19:04.663Z</time>
      </trkpt>
      <trkpt lat="50.47134" lon="3.24872">
        <ele>35</ele>
        <time>2022-11-11T17:19:16.466Z</time>
      </trkpt>
      <trkpt lat="50.47145" lon="3.24873">
        <ele>35</ele>
        <time>2022-11-11T17:19:28.271Z</time>
      </trkpt>
      <trkpt lat="50.47157" lon="3.24866">
        <ele>35</ele>
        <time>2022-11-11T17:19:40.078Z</time>
      </trkpt>
      <trkpt lat="50.4721" lon="3.24817">
        <ele>35</ele>
        <time>2022-11-11T17:19:51.894Z</time>
      </trkpt>
      <trkpt lat="50.4729" lon="3.24721">
        <ele>36</ele>
        <time>2022-11-11T17:20:03.724Z</time>
      </trkpt>
      <trkpt lat="50.4729" lon="3.24721">
        <ele>36</ele>
        <time>2022-11-11T17:20:15.554Z</time>
      </trkpt>
      <trkpt lat="50.47364" lon="3.24632">
        <ele>36</ele>
        <time>2022-11-11T17:20:27.397Z</time>
      </trkpt>
      <trkpt lat="50.4738" lon="3.24615">
        <ele>36</ele>
        <time>2022-11-11T17:20:39.243Z</time>
      </trkpt>
      <trkpt lat="50.47393" lon="3.24605">
        <ele>36</ele>
        <time>2022-11-11T17:20:51.091Z</time>
      </trkpt>
      <trkpt lat="50.47397" lon="3.24603">
        <ele>37</ele>
        <time>2022-11-11T17:21:02.939Z</time>
      </trkpt>
      <trkpt lat="50.47429" lon="3.24583">
        <ele>37</ele>
        <time>2022-11-11T17:21:14.792Z</time>
      </trkpt>
      <trkpt lat="50.47474" lon="3.24548">
        <ele>37</ele>
        <time>2022-11-11T17:21:26.652Z</time>
      </trkpt>
      <trkpt lat="50.47512" lon="3.24479">
        <ele>37</ele>
        <time>2022-11-11T17:21:38.521Z</time>
      </trkpt>
      <trkpt lat="50.4752" lon="3.24462">
        <ele>37</ele>
        <time>2022-11-11T17:21:50.392Z</time>
      </trkpt>
      <trkpt lat="50.47523" lon="3.24449">
        <ele>37</ele>
        <time>2022-11-11T17:22:02.264Z</time>
      </trkpt>
      <trkpt lat="50.47523" lon="3.24449">
        <ele>37</ele>
        <time>2022-11-11T17:22:14.136Z</time>
      </trkpt>
      <trkpt lat="50.47522" lon="3.24413">
        <ele>37</ele>
        <time>2022-11-11T17:22:26.011Z</time>
      </trkpt>
      <trkpt lat="50.47534" lon="3.24394">
        <ele>37</ele>
        <time>2022-11-11T17:22:37.889Z</time>
      </trkpt>
      <trkpt lat="50.47569" lon="3.24334">
        <ele>37</ele>
        <time>2022-11-11T17:22:49.774Z</time>
      </trkpt>
      <trkpt lat="50.47614" lon="3.24306">
        <ele>37</ele>
        <time>2022-11-11T17:23:01.666Z</time>
      </trkpt>
      <trkpt lat="50.47641" lon="3.24266">
        <ele>37</ele>
        <time>2022-11-11T17:23:13.563Z</time>
      </trkpt>
      <trkpt lat="50.47641" lon="3.24266">
        <ele>37</ele>
        <time>2022-11-11T17:23:25.460Z</time>
      </trkpt>
      <trkpt lat="50.47658" lon="3.24244">
        <ele>37</ele>
        <time>2022-11-11T17:23:37.360Z</time>
      </trkpt>
      <trkpt lat="50.47736" lon="3.24155">
        <ele>37</ele>
        <time>2022-11-11T17:23:49.274Z</time>
      </trkpt>
      <trkpt lat="50.47736" lon="3.24155">
        <ele>37</ele>
        <time>2022-11-11T17:24:01.188Z</time>
      </trkpt>
      <trkpt lat="50.47763" lon="3.24128">
        <ele>37</ele>
        <time>2022-11-11T17:24:13.107Z</time>
      </trkpt>
      <trkpt lat="50.47775" lon="3.24116">
        <ele>36</ele>
        <time>2022-11-11T17:24:25.028Z</time>
      </trkpt>
      <trkpt lat="50.47796" lon="3.241">
        <ele>36</ele>
        <time>2022-11-11T17:24:36.952Z</time>
      </trkpt>
      <trkpt lat="50.47807" lon="3.2409">
        <ele>36</ele>
        <time>2022-11-11T17:24:48.878Z</time>
      </trkpt>
      <trkpt lat="50.47814" lon="3.24088">
        <ele>36</ele>
        <time>2022-11-11T17:25:00.805Z</time>
      </trkpt>
      <trkpt lat="50.47818" lon="3.24084">
        <ele>36</ele>
        <time>2022-11-11T17:25:12.732Z</time>
      </trkpt>
      <trkpt lat="50.4782" lon="3.24076">
        <ele>36</ele>
        <time>2022-11-11T17:25:24.660Z</time>
      </trkpt>
      <trkpt lat="50.47821" lon="3.24068">
        <ele>36</ele>
        <time>2022-11-11T17:25:36.589Z</time>
      </trkpt>
      <trkpt lat="50.47826" lon="3.24062">
        <ele>36</ele>
        <time>2022-11-11T17:25:48.519Z</time>
      </trkpt>
      <trkpt lat="50.47823" lon="3.24055">
        <ele>36</ele>
        <time>2022-11-11T17:26:00.450Z</time>
      </trkpt>
      <trkpt lat="50.4782" lon="3.24051">
        <ele>36</ele>
        <time>2022-11-11T17:26:12.381Z</time>
      </trkpt>
      <trkpt lat="50.47811" lon="3.24045">
        <ele>36</ele>
        <time>2022-11-11T17:26:24.314Z</time>
      </trkpt>
      <trkpt lat="50.47804" lon="3.24031">
        <ele>36</ele>
        <time>2022-11-11T17:26:36.248Z</time>
      </trkpt>
      <trkpt lat="50.47765" lon="3.23948">
        <ele>36</ele>
        <time>2022-11-11T17:26:48.192Z</time>
      </trkpt>
      <trkpt lat="50.47726" lon="3.23872">
        <ele>36</ele>
        <time>2022-11-11T17:27:00.144Z</time>
      </trkpt>
      <trkpt lat="50.47726" lon="3.23872">
        <ele>36</ele>
        <time>2022-11-11T17:27:12.096Z</time>
      </trkpt>
      <trkpt lat="50.47661" lon="3.23742">
        <ele>36</ele>
        <time>2022-11-11T17:27:24.063Z</time>
      </trkpt>
      <trkpt lat="50.47661" lon="3.23742">
        <ele>36</ele>
        <time>2022-11-11T17:27:36.030Z</time>
      </trkpt>
      <trkpt lat="50.47593" lon="3.23599">
        <ele>36</ele>
        <time>2022-11-11T17:27:48.013Z</time>
      </trkpt>
      <trkpt lat="50.47591" lon="3.23588">
        <ele>36</ele>
        <time>2022-11-11T17:27:59.997Z</time>
      </trkpt>
      <trkpt lat="50.47593" lon="3.23577">
        <ele>37</ele>
        <time>2022-11-11T17:28:11.983Z</time>
      </trkpt>
      <trkpt lat="50.47599" lon="3.23569">
        <ele>37</ele>
        <time>2022-11-11T17:28:23.970Z</time>
      </trkpt>
      <trkpt lat="50.47597" lon="3.23561">
        <ele>37</ele>
        <time>2022-11-11T17:28:35.957Z</time>
      </trkpt>
      <trkpt lat="50.47594" lon="3.23553">
        <ele>37</ele>
        <time>2022-11-11T17:28:47.945Z</time>
      </trkpt>
      <trkpt lat="50.47592" lon="3.23547">
        <ele>37</ele>
        <time>2022-11-11T17:28:59.934Z</time>
      </trkpt>
      <trkpt lat="50.47587" lon="3.23548">
        <ele>37</ele>
        <time>2022-11-11T17:29:11.924Z</time>
      </trkpt>
      <trkpt lat="50.4757" lon="3.23542">
        <ele>38</ele>
        <time>2022-11-11T17:29:23.916Z</time>
      </trkpt>
      <trkpt lat="50.47562" lon="3.23542">
        <ele>38</ele>
        <time>2022-11-11T17:29:35.909Z</time>
      </trkpt>
      <trkpt lat="50.47554" lon="3.23546">
        <ele>38</ele>
        <time>2022-11-11T17:29:47.903Z</time>
      </trkpt>
      <trkpt lat="50.47554" lon="3.23546">
        <ele>38</ele>
        <time>2022-11-11T17:29:59.897Z</time>
      </trkpt>
      <trkpt lat="50.47546" lon="3.23542">
        <ele>38</ele>
        <time>2022-11-11T17:30:11.893Z</time>
      </trkpt>
      <trkpt lat="50.47515" lon="3.23513">
        <ele>39</ele>
        <time>2022-11-11T17:30:23.894Z</time>
      </trkpt>
      <trkpt lat="50.47444" lon="3.23454">
        <ele>39</ele>
        <time>2022-11-11T17:30:35.906Z</time>
      </trkpt>
      <trkpt lat="50.47391" lon="3.23397">
        <ele>39</ele>
        <time>2022-11-11T17:30:47.927Z</time>
      </trkpt>
      <trkpt lat="50.47363" lon="3.23361">
        <ele>40</ele>
        <time>2022-11-11T17:30:59.953Z</time>
      </trkpt>
      <trkpt lat="50.47363" lon="3.23361">
        <ele>40</ele>
        <time>2022-11-11T17:31:11.979Z</time>
      </trkpt>
      <trkpt lat="50.47342" lon="3.23332">
        <ele>41</ele>
        <time>2022-11-11T17:31:24.009Z</time>
      </trkpt>
      <trkpt lat="50.47328" lon="3.23295">
        <ele>41</ele>
        <time>2022-11-11T17:31:36.043Z</time>
      </trkpt>
      <trkpt lat="50.47324" lon="3.23291">
        <ele>41</ele>
        <time>2022-11-11T17:31:48.078Z</time>
      </trkpt>
      <trkpt lat="50.47319" lon="3.23271">
        <ele>42</ele>
        <time>2022-11-11T17:32:00.115Z</time>
      </trkpt>
      <trkpt lat="50.47317" lon="3.23235">
        <ele>42</ele>
        <time>2022-11-11T17:32:12.155Z</time>
      </trkpt>
      <trkpt lat="50.47318" lon="3.23231">
        <ele>43</ele>
        <time>2022-11-11T17:32:24.196Z</time>
      </trkpt>
      <trkpt lat="50.47331" lon="3.23216">
        <ele>43</ele>
        <time>2022-11-11T17:32:36.239Z</time>
      </trkpt>
      <trkpt lat="50.47336" lon="3.23204">
        <ele>43</ele>
        <time>2022-11-11T17:32:48.283Z</time>
      </trkpt>
      <trkpt lat="50.47333" lon="3.23194">
        <ele>44</ele>
        <time>2022-11-11T17:33:00.328Z</time>
      </trkpt>
      <trkpt lat="50.47329" lon="3.23175">
        <ele>44</ele>
        <time>2022-11-11T17:33:12.375Z</time>
      </trkpt>
      <trkpt lat="50.47266" lon="3.22917">
        <ele>44</ele>
        <time>2022-11-11T17:33:24.447Z</time>
      </trkpt>
      <trkpt lat="50.47266" lon="3.22917">
        <ele>44</ele>
        <time>2022-11-11T17:33:36.519Z</time>
      </trkpt>
      <trkpt lat="50.47262" lon="3.22893">
        <ele>45</ele>
        <time>2022-11-11T17:33:48.593Z</time>
      </trkpt>
      <trkpt lat="50.47261" lon="3.22862">
        <ele>45</ele>
        <time>2022-11-11T17:34:00.670Z</time>
      </trkpt>
      <trkpt lat="50.47268" lon="3.22805">
        <ele>45</ele>
        <time>2022-11-11T17:34:12.752Z</time>
      </trkpt>
      <trkpt lat="50.47299" lon="3.22692">
        <ele>45</ele>
        <time>2022-11-11T17:34:24.845Z</time>
      </trkpt>
      <trkpt lat="50.47299" lon="3.22691">
        <ele>45</ele>
        <time>2022-11-11T17:34:36.939Z</time>
      </trkpt>
      <trkpt lat="50.47299" lon="3.22691">
        <ele>44</ele>
        <time>2022-11-11T17:34:49.033Z</time>
      </trkpt>
      <trkpt lat="50.473" lon="3.2269">
        <ele>44</ele>
        <time>2022-11-11T17:35:01.127Z</time>
      </trkpt>
      <trkpt lat="50.473" lon="3.2269">
        <ele>44</ele>
        <time>2022-11-11T17:35:13.221Z</time>
      </trkpt>
      <trkpt lat="50.47356" lon="3.22481">
        <ele>44</ele>
        <time>2022-11-11T17:35:25.335Z</time>
      </trkpt>
      <trkpt lat="50.47378" lon="3.22395">
        <ele>44</ele>
        <time>2022-11-11T17:35:37.458Z</time>
      </trkpt>
      <trkpt lat="50.47387" lon="3.22389">
        <ele>43</ele>
        <time>2022-11-11T17:35:49.582Z</time>
      </trkpt>
      <trkpt lat="50.47424" lon="3.22417">
        <ele>43</ele>
        <time>2022-11-11T17:36:01.712Z</time>
      </trkpt>
      <trkpt lat="50.47459" lon="3.22463">
        <ele>42</ele>
        <time>2022-11-11T17:36:13.848Z</time>
      </trkpt>
      <trkpt lat="50.47491" lon="3.22542">
        <ele>42</ele>
        <time>2022-11-11T17:36:25.993Z</time>
      </trkpt>
      <trkpt lat="50.47592" lon="3.22632">
        <ele>42</ele>
        <time>2022-11-11T17:36:38.154Z</time>
      </trkpt>
      <trkpt lat="50.4767" lon="3.22714">
        <ele>42</ele>
        <time>2022-11-11T17:36:50.329Z</time>
      </trkpt>
      <trkpt lat="50.47685" lon="3.22762">
        <ele>41</ele>
        <time>2022-11-11T17:37:02.508Z</time>
      </trkpt>
      <trkpt lat="50.47688" lon="3.22829">
        <ele>41</ele>
        <time>2022-11-11T17:37:14.694Z</time>
      </trkpt>
      <trkpt lat="50.47692" lon="3.22854">
        <ele>41</ele>
        <time>2022-11-11T17:37:26.882Z</time>
      </trkpt>
      <trkpt lat="50.47729" lon="3.22938">
        <ele>40</ele>
        <time>2022-11-11T17:37:39.079Z</time>
      </trkpt>
      <trkpt lat="50.47839" lon="3.23109">
        <ele>40</ele>
        <time>2022-11-11T17:37:51.298Z</time>
      </trkpt>
      <trkpt lat="50.47912" lon="3.2325">
        <ele>40</ele>
        <time>2022-11-11T17:38:03.534Z</time>
      </trkpt>
      <trkpt lat="50.47913" lon="3.23252">
        <ele>40</ele>
        <time>2022-11-11T17:38:15.770Z</time>
      </trkpt>
      <trkpt lat="50.47913" lon="3.23253">
        <ele>39</ele>
        <time>2022-11-11T17:38:28.006Z</time>
      </trkpt>
      <trkpt lat="50.47913" lon="3.23253">
        <ele>39</ele>
        <time>2022-11-11T17:38:40.242Z</time>
      </trkpt>
      <trkpt lat="50.47913" lon="3.23254">
        <ele>39</ele>
        <time>2022-11-11T17:38:52.478Z</time>
      </trkpt>
      <trkpt lat="50.47913" lon="3.23254">
        <ele>38</ele>
        <time>2022-11-11T17:39:04.714Z</time>
      </trkpt>
      <trkpt lat="50.47962" lon="3.23388">
        <ele>38</ele>
        <time>2022-11-11T17:39:16.964Z</time>
      </trkpt>
      <trkpt lat="50.47969" lon="3.23413">
        <ele>38</ele>
        <time>2022-11-11T17:39:29.217Z</time>
      </trkpt>
      <trkpt lat="50.47968" lon="3.23433">
        <ele>37</ele>
        <time>2022-11-11T17:39:41.471Z</time>
      </trkpt>
      <trkpt lat="50.47953" lon="3.23487">
        <ele>37</ele>
        <time>2022-11-11T17:39:53.731Z</time>
      </trkpt>
      <trkpt lat="50.47956" lon="3.23508">
        <ele>37</ele>
        <time>2022-11-11T17:40:05.993Z</time>
      </trkpt>
      <trkpt lat="50.47957" lon="3.23517">
        <ele>36</ele>
        <time>2022-11-11T17:40:18.255Z</time>
      </trkpt>
      <trkpt lat="50.47988" lon="3.23566">
        <ele>36</ele>
        <time>2022-11-11T17:40:30.524Z</time>
      </trkpt>
      <trkpt lat="50.48047" lon="3.2345">
        <ele>36</ele>
        <time>2022-11-11T17:40:42.806Z</time>
      </trkpt>
      <trkpt lat="50.48079" lon="3.23383">
        <ele>35</ele>
        <time>2022-11-11T17:40:55.096Z</time>
      </trkpt>
      <trkpt lat="50.48344" lon="3.22894">
        <ele>35</ele>
        <time>2022-11-11T17:41:07.444Z</time>
      </trkpt>
      <trkpt lat="50.48461" lon="3.22697">
        <ele>34</ele>
        <time>2022-11-11T17:41:19.816Z</time>
      </trkpt>
      <trkpt lat="50.48532" lon="3.22611">
        <ele>34</ele>
        <time>2022-11-11T17:41:32.201Z</time>
      </trkpt>
      <trkpt lat="50.48622" lon="3.22409">
        <ele>34</ele>
        <time>2022-11-11T17:41:44.608Z</time>
      </trkpt>
      <trkpt lat="50.48657" lon="3.22298">
        <ele>34</ele>
        <time>2022-11-11T17:41:57.026Z</time>
      </trkpt>
      <trkpt lat="50.48668" lon="3.22243">
        <ele>33</ele>
        <time>2022-11-11T17:42:09.450Z</time>
      </trkpt>
      <trkpt lat="50.48673" lon="3.22231">
        <ele>33</ele>
        <time>2022-11-11T17:42:21.875Z</time>
      </trkpt>
      <trkpt lat="50.48674" lon="3.2223">
        <ele>33</ele>
        <time>2022-11-11T17:42:34.300Z</time>
      </trkpt>
      <trkpt lat="50.48674" lon="3.2223">
        <ele>33</ele>
        <time>2022-11-11T17:42:46.725Z</time>
      </trkpt>
      <trkpt lat="50.48674" lon="3.22229">
        <ele>33</ele>
        <time>2022-11-11T17:42:59.150Z</time>
      </trkpt>
      <trkpt lat="50.48674" lon="3.22229">
        <ele>33</ele>
        <time>2022-11-11T17:43:11.575Z</time>
      </trkpt>
      <trkpt lat="50.48685" lon="3.22203">
        <ele>32</ele>
        <time>2022-11-11T17:43:24.003Z</time>
      </trkpt>
      <trkpt lat="50.48698" lon="3.22193">
        <ele>32</ele>
        <time>2022-11-11T17:43:36.433Z</time>
      </trkpt>
      <trkpt lat="50.48698" lon="3.22193">
        <ele>32</ele>
        <time>2022-11-11T17:43:48.863Z</time>
      </trkpt>
      <trkpt lat="50.48724" lon="3.22199">
        <ele>32</ele>
        <time>2022-11-11T17:44:01.297Z</time>
      </trkpt>
      <trkpt lat="50.48745" lon="3.22129">
        <ele>32</ele>
        <time>2022-11-11T17:44:13.738Z</time>
      </trkpt>
      <trkpt lat="50.48769" lon="3.22065">
        <ele>33</ele>
        <time>2022-11-11T17:44:26.186Z</time>
      </trkpt>
      <trkpt lat="50.48811" lon="3.21996">
        <ele>33</ele>
        <time>2022-11-11T17:44:38.642Z</time>
      </trkpt>
      <trkpt lat="50.48872" lon="3.2187">
        <ele>33</ele>
        <time>2022-11-11T17:44:51.112Z</time>
      </trkpt>
      <trkpt lat="50.48931" lon="3.21735">
        <ele>33</ele>
        <time>2022-11-11T17:45:03.597Z</time>
      </trkpt>
      <trkpt lat="50.4895" lon="3.21649">
        <ele>34</ele>
        <time>2022-11-11T17:45:16.091Z</time>
      </trkpt>
      <trkpt lat="50.48945" lon="3.21574">
        <ele>34</ele>
        <time>2022-11-11T17:45:28.591Z</time>
      </trkpt>
      <trkpt lat="50.48903" lon="3.21419">
        <ele>34</ele>
        <time>2022-11-11T17:45:41.107Z</time>
      </trkpt>
      <trkpt lat="50.48882" lon="3.21345">
        <ele>34</ele>
        <time>2022-11-11T17:45:53.630Z</time>
      </trkpt>
      <trkpt lat="50.48872" lon="3.21307">
        <ele>35</ele>
        <time>2022-11-11T17:46:06.157Z</time>
      </trkpt>
      <trkpt lat="50.48868" lon="3.21285">
        <ele>35</ele>
        <time>2022-11-11T17:46:18.686Z</time>
      </trkpt>
      <trkpt lat="50.48866" lon="3.21245">
        <ele>35</ele>
        <time>2022-11-11T17:46:31.218Z</time>
      </trkpt>
      <trkpt lat="50.48866" lon="3.21226">
        <ele>35</ele>
        <time>2022-11-11T17:46:43.752Z</time>
      </trkpt>
      <trkpt lat="50.48871" lon="3.21184">
        <ele>36</ele>
        <time>2022-11-11T17:46:56.290Z</time>
      </trkpt>
      <trkpt lat="50.48885" lon="3.21121">
        <ele>36</ele>
        <time>2022-11-11T17:47:08.834Z</time>
      </trkpt>
      <trkpt lat="50.48845" lon="3.21097">
        <ele>36</ele>
        <time>2022-11-11T17:47:21.384Z</time>
      </trkpt>
      <trkpt lat="50.48845" lon="3.21097">
        <ele>37</ele>
        <time>2022-11-11T17:47:33.934Z</time>
      </trkpt>
      <trkpt lat="50.48808" lon="3.2108">
        <ele>37</ele>
        <time>2022-11-11T17:47:46.490Z</time>
      </trkpt>
      <trkpt lat="50.48727" lon="3.21053">
        <ele>37</ele>
        <time>2022-11-11T17:47:59.057Z</time>
      </trkpt>
      <trkpt lat="50.48702" lon="3.2105">
        <ele>38</ele>
        <time>2022-11-11T17:48:11.628Z</time>
      </trkpt>
      <trkpt lat="50.48657" lon="3.21052">
        <ele>38</ele>
        <time>2022-11-11T17:48:24.205Z</time>
      </trkpt>
      <trkpt lat="50.48599" lon="3.21042">
        <ele>38</ele>
        <time>2022-11-11T17:48:36.791Z</time>
      </trkpt>
      <trkpt lat="50.48526" lon="3.21015">
        <ele>39</ele>
        <time>2022-11-11T17:48:49.387Z</time>
      </trkpt>
      <trkpt lat="50.48466" lon="3.2099">
        <ele>39</ele>
        <time>2022-11-11T17:49:01.992Z</time>
      </trkpt>
      <trkpt lat="50.48432" lon="3.20984">
        <ele>40</ele>
        <time>2022-11-11T17:49:14.602Z</time>
      </trkpt>
      <trkpt lat="50.48431" lon="3.20984">
        <ele>40</ele>
        <time>2022-11-11T17:49:27.212Z</time>
      </trkpt>
      <trkpt lat="50.48431" lon="3.20984">
        <ele>41</ele>
        <time>2022-11-11T17:49:39.822Z</time>
      </trkpt>
      <trkpt lat="50.48431" lon="3.20984">
        <ele>41</ele>
        <time>2022-11-11T17:49:52.432Z</time>
      </trkpt>
      <trkpt lat="50.48431" lon="3.20984">
        <ele>42</ele>
        <time>2022-11-11T17:50:05.042Z</time>
      </trkpt>
      <trkpt lat="50.4841" lon="3.2098">
        <ele>42</ele>
        <time>2022-11-11T17:50:17.655Z</time>
      </trkpt>
      <trkpt lat="50.48355" lon="3.20937">
        <ele>43</ele>
        <time>2022-11-11T17:50:30.277Z</time>
      </trkpt>
      <trkpt lat="50.48223" lon="3.20824">
        <ele>43</ele>
        <time>2022-11-11T17:50:42.920Z</time>
      </trkpt>
      <trkpt lat="50.48167" lon="3.20771">
        <ele>44</ele>
        <time>2022-11-11T17:50:55.572Z</time>
      </trkpt>
      <trkpt lat="50.48167" lon="3.20771">
        <ele>44</ele>
        <time>2022-11-11T17:51:08.224Z</time>
      </trkpt>
      <trkpt lat="50.48158" lon="3.20762">
        <ele>45</ele>
        <time>2022-11-11T17:51:20.878Z</time>
      </trkpt>
      <trkpt lat="50.48124" lon="3.2072">
        <ele>45</ele>
        <time>2022-11-11T17:51:33.538Z</time>
      </trkpt>
      <trkpt lat="50.48093" lon="3.20651">
        <ele>45</ele>
        <time>2022-11-11T17:51:46.206Z</time>
      </trkpt>
      <trkpt lat="50.48058" lon="3.20586">
        <ele>46</ele>
        <time>2022-11-11T17:51:58.882Z</time>
      </trkpt>
      <trkpt lat="50.48006" lon="3.20505">
        <ele>46</ele>
        <time>2022-11-11T17:52:11.568Z</time>
      </trkpt>
      <trkpt lat="50.47954" lon="3.2048">
        <ele>46</ele>
        <time>2022-11-11T17:52:24.262Z</time>
      </trkpt>
      <trkpt lat="50.47955" lon="3.20469">
        <ele>47</ele>
        <time>2022-11-11T17:52:36.957Z</time>
      </trkpt>
      <trkpt lat="50.47958" lon="3.20434">
        <ele>47</ele>
        <time>2022-11-11T17:52:49.655Z</time>
      </trkpt>
      <trkpt lat="50.47976" lon="3.20417">
        <ele>47</ele>
        <time>2022-11-11T17:53:02.356Z</time>
      </trkpt>
      <trkpt lat="50.47976" lon="3.204">
        <ele>46</ele>
        <time>2022-11-11T17:53:15.059Z</time>
      </trkpt>
      <trkpt lat="50.47979" lon="3.20375">
        <ele>46</ele>
        <time>2022-11-11T17:53:27.764Z</time>
      </trkpt>
      <trkpt lat="50.47987" lon="3.20351">
        <ele>46</ele>
        <time>2022-11-11T17:53:40.471Z</time>
      </trkpt>
      <trkpt lat="50.47998" lon="3.20328">
        <ele>46</ele>
        <time>2022-11-11T17:53:53.181Z</time>
      </trkpt>
      <trkpt lat="50.481" lon="3.20158">
        <ele>45</ele>
        <time>2022-11-11T17:54:05.912Z</time>
      </trkpt>
      <trkpt lat="50.48109" lon="3.20138">
        <ele>45</ele>
        <time>2022-11-11T17:54:18.645Z</time>
      </trkpt>
      <trkpt lat="50.48114" lon="3.20121">
        <ele>45</ele>
        <time>2022-11-11T17:54:31.380Z</time>
      </trkpt>
      <trkpt lat="50.48133" lon="3.20002">
        <ele>44</ele>
        <time>2022-11-11T17:54:44.126Z</time>
      </trkpt>
      <trkpt lat="50.48149" lon="3.19944">
        <ele>44</ele>
        <time>2022-11-11T17:54:56.878Z</time>
      </trkpt>
      <trkpt lat="50.48149" lon="3.19944">
        <ele>43</ele>
        <time>2022-11-11T17:55:09.630Z</time>
      </trkpt>
      <trkpt lat="50.48179" lon="3.1986">
        <ele>43</ele>
        <time>2022-11-11T17:55:22.391Z</time>
      </trkpt>
      <trkpt lat="50.48281" lon="3.19649">
        <ele>42</ele>
        <time>2022-11-11T17:55:35.176Z</time>
      </trkpt>
      <trkpt lat="50.48288" lon="3.19624">
        <ele>42</ele>
        <time>2022-11-11T17:55:47.963Z</time>
      </trkpt>
      <trkpt lat="50.48288" lon="3.19617">
        <ele>41</ele>
        <time>2022-11-11T17:56:00.751Z</time>
      </trkpt>
      <trkpt lat="50.48288" lon="3.19596">
        <ele>41</ele>
        <time>2022-11-11T17:56:13.540Z</time>
      </trkpt>
      <trkpt lat="50.48276" lon="3.19557">
        <ele>40</ele>
        <time>2022-11-11T17:56:26.333Z</time>
      </trkpt>
      <trkpt lat="50.48222" lon="3.19399">
        <ele>40</ele>
        <time>2022-11-11T17:56:39.143Z</time>
      </trkpt>
      <trkpt lat="50.48217" lon="3.19281">
        <ele>39</ele>
        <time>2022-11-11T17:56:51.963Z</time>
      </trkpt>
      <trkpt lat="50.48215" lon="3.19214">
        <ele>39</ele>
        <time>2022-11-11T17:57:04.789Z</time>
      </trkpt>
      <trkpt lat="50.48248" lon="3.19094">
        <ele>39</ele>
        <time>2022-11-11T17:57:17.627Z</time>
      </trkpt>
      <trkpt lat="50.48292" lon="3.19026">
        <ele>38</ele>
        <time>2022-11-11T17:57:30.474Z</time>
      </trkpt>
      <trkpt lat="50.48352" lon="3.18877">
        <ele>38</ele>
        <time>2022-11-11T17:57:43.337Z</time>
      </trkpt>
      <trkpt lat="50.48396" lon="3.18714">
        <ele>38</ele>
        <time>2022-11-11T17:57:56.216Z</time>
      </trkpt>
      <trkpt lat="50.48415" lon="3.18667">
        <ele>38</ele>
        <time>2022-11-11T17:58:09.100Z</time>
      </trkpt>
      <trkpt lat="50.48437" lon="3.18622">
        <ele>38</ele>
        <time>2022-11-11T17:58:21.989Z</time>
      </trkpt>
      <trkpt lat="50.48458" lon="3.18597">
        <ele>39</ele>
        <time>2022-11-11T17:58:34.882Z</time>
      </trkpt>
      <trkpt lat="50.48477" lon="3.18583">
        <ele>39</ele>
        <time>2022-11-11T17:58:47.778Z</time>
      </trkpt>
      <trkpt lat="50.48496" lon="3.18583">
        <ele>39</ele>
        <time>2022-11-11T17:59:00.677Z</time>
      </trkpt>
      <trkpt lat="50.48528" lon="3.18607">
        <ele>40</ele>
        <time>2022-11-11T17:59:13.581Z</time>
      </trkpt>
      <trkpt lat="50.48528" lon="3.18607">
        <ele>40</ele>
        <time>2022-11-11T17:59:26.485Z</time>
      </trkpt>
      <trkpt lat="50.48583" lon="3.18557">
        <ele>41</ele>
        <time>2022-11-11T17:59:39.398Z</time>
      </trkpt>
      <trkpt lat="50.48603" lon="3.18535">
        <ele>42</ele>
        <time>2022-11-11T17:59:52.314Z</time>
      </trkpt>
      <trkpt lat="50.48643" lon="3.18481">
        <ele>42</ele>
        <time>2022-11-11T18:00:05.238Z</time>
      </trkpt>
      <trkpt lat="50.48658" lon="3.18453">
        <ele>43</ele>
        <time>2022-11-11T18:00:18.165Z</time>
      </trkpt>
      <trkpt lat="50.48668" lon="3.18422">
        <ele>44</ele>
        <time>2022-11-11T18:00:31.095Z</time>
      </trkpt>
      <trkpt lat="50.48776" lon="3.17967">
        <ele>45</ele>
        <time>2022-11-11T18:00:44.069Z</time>
      </trkpt>
      <trkpt lat="50.48836" lon="3.17728">
        <ele>46</ele>
        <time>2022-11-11T18:00:57.066Z</time>
      </trkpt>
      <trkpt lat="50.48904" lon="3.17536">
        <ele>47</ele>
        <time>2022-11-11T18:01:10.083Z</time>
      </trkpt>
      <trkpt lat="50.48911" lon="3.17514">
        <ele>48</ele>
        <time>2022-11-11T18:01:23.102Z</time>
      </trkpt>
      <trkpt lat="50.48918" lon="3.17483">
        <ele>49</ele>
        <time>2022-11-11T18:01:36.124Z</time>
      </trkpt>
      <trkpt lat="50.48954" lon="3.17266">
        <ele>50</ele>
        <time>2022-11-11T18:01:49.167Z</time>
      </trkpt>
      <trkpt lat="50.48965" lon="3.17203">
        <ele>51</ele>
        <time>2022-11-11T18:02:02.216Z</time>
      </trkpt>
      <trkpt lat="50.48973" lon="3.17164">
        <ele>52</ele>
        <time>2022-11-11T18:02:15.268Z</time>
      </trkpt>
      <trkpt lat="50.48977" lon="3.17148">
        <ele>52</ele>
        <time>2022-11-11T18:02:28.322Z</time>
      </trkpt>
      <trkpt lat="50.48933" lon="3.17011">
        <ele>53</ele>
        <time>2022-11-11T18:02:41.390Z</time>
      </trkpt>
      <trkpt lat="50.48816" lon="3.16633">
        <ele>54</ele>
        <time>2022-11-11T18:02:54.496Z</time>
      </trkpt>
      <trkpt lat="50.48774" lon="3.16525">
        <ele>54</ele>
        <time>2022-11-11T18:03:07.613Z</time>
      </trkpt>
      <trkpt lat="50.48725" lon="3.16401">
        <ele>55</ele>
        <time>2022-11-11T18:03:20.744Z</time>
      </trkpt>
      <trkpt lat="50.48725" lon="3.16401">
        <ele>55</ele>
        <time>2022-11-11T18:03:33.875Z</time>
      </trkpt>
      <trkpt lat="50.48631" lon="3.16098">
        <ele>55</ele>
        <time>2022-11-11T18:03:47.036Z</time>
      </trkpt>
      <trkpt lat="50.48502" lon="3.16205">
        <ele>56</ele>
        <time>2022-11-11T18:04:00.218Z</time>
      </trkpt>
      <trkpt lat="50.48395" lon="3.15815">
        <ele>56</ele>
        <time>2022-11-11T18:04:13.438Z</time>
      </trkpt>
      <trkpt lat="50.48385" lon="3.1579">
        <ele>56</ele>
        <time>2022-11-11T18:04:26.661Z</time>
      </trkpt>
      <trkpt lat="50.48377" lon="3.15794">
        <ele>56</ele>
        <time>2022-11-11T18:04:39.885Z</time>
      </trkpt>
      <trkpt lat="50.48349" lon="3.15812">
        <ele>56</ele>
        <time>2022-11-11T18:04:53.113Z</time>
      </trkpt>
      <trkpt lat="50.48347" lon="3.15804">
        <ele>56</ele>
        <time>2022-11-11T18:05:06.342Z</time>
      </trkpt>
      <trkpt lat="50.48346" lon="3.15803">
        <ele>56</ele>
        <time>2022-11-11T18:05:19.571Z</time>
      </trkpt>
      <trkpt lat="50.48346" lon="3.15803">
        <ele>56</ele>
        <time>2022-11-11T18:05:32.800Z</time>
      </trkpt>
      <trkpt lat="50.48325" lon="3.15719">
        <ele>56</ele>
        <time>2022-11-11T18:05:46.037Z</time>
      </trkpt>
      <trkpt lat="50.48303" lon="3.15624">
        <ele>55</ele>
        <time>2022-11-11T18:05:59.284Z</time>
      </trkpt>
      <trkpt lat="50.48276" lon="3.15484">
        <ele>55</ele>
        <time>2022-11-11T18:06:12.544Z</time>
      </trkpt>
      <trkpt lat="50.48255" lon="3.1537">
        <ele>55</ele>
        <time>2022-11-11T18:06:25.815Z</time>
      </trkpt>
      <trkpt lat="50.4824" lon="3.15293">
        <ele>55</ele>
        <time>2022-11-11T18:06:39.093Z</time>
      </trkpt>
      <trkpt lat="50.48221" lon="3.15224">
        <ele>55</ele>
        <time>2022-11-11T18:06:52.378Z</time>
      </trkpt>
      <trkpt lat="50.48193" lon="3.15138">
        <ele>54</ele>
        <time>2022-11-11T18:07:05.671Z</time>
      </trkpt>
      <trkpt lat="50.48167" lon="3.1499">
        <ele>54</ele>
        <time>2022-11-11T18:07:18.978Z</time>
      </trkpt>
      <trkpt lat="50.48151" lon="3.14904">
        <ele>54</ele>
        <time>2022-11-11T18:07:32.293Z</time>
      </trkpt>
      <trkpt lat="50.48093" lon="3.14838">
        <ele>54</ele>
        <time>2022-11-11T18:07:45.619Z</time>
      </trkpt>
      <trkpt lat="50.48062" lon="3.14798">
        <ele>54</ele>
        <time>2022-11-11T18:07:58.950Z</time>
      </trkpt>
      <trkpt lat="50.48033" lon="3.14763">
        <ele>53</ele>
        <time>2022-11-11T18:08:12.287Z</time>
      </trkpt>
      <trkpt lat="50.47968" lon="3.14695">
        <ele>53</ele>
        <time>2022-11-11T18:08:25.635Z</time>
      </trkpt>
      <trkpt lat="50.48006" lon="3.14543">
        <ele>53</ele>
        <time>2022-11-11T18:08:38.998Z</time>
      </trkpt>
      <trkpt lat="50.48039" lon="3.14454">
        <ele>53</ele>
        <time>2022-11-11T18:08:52.370Z</time>
      </trkpt>
      <trkpt lat="50.48058" lon="3.14401">
        <ele>53</ele>
        <time>2022-11-11T18:09:05.747Z</time>
      </trkpt>
      <trkpt lat="50.48062" lon="3.14384">
        <ele>53</ele>
        <time>2022-11-11T18:09:19.126Z</time>
      </trkpt>
      <trkpt lat="50.48083" lon="3.14329">
        <ele>53</ele>
        <time>2022-11-11T18:09:32.511Z</time>
      </trkpt>
      <trkpt lat="50.48103" lon="3.14272">
        <ele>53</ele>
        <time>2022-11-11T18:09:45.902Z</time>
      </trkpt>
      <trkpt lat="50.48132" lon="3.14276">
        <ele>53</ele>
        <time>2022-11-11T18:09:59.297Z</time>
      </trkpt>
      <trkpt lat="50.48146" lon="3.14277">
        <ele>53</ele>
        <time>2022-11-11T18:10:12.694Z</time>
      </trkpt>
      <trkpt lat="50.48181" lon="3.14303">
        <ele>53</ele>
        <time>2022-11-11T18:10:26.096Z</time>
      </trkpt>
      <trkpt lat="50.48192" lon="3.14311">
        <ele>53</ele>
        <time>2022-11-11T18:10:39.500Z</time>
      </trkpt>
      <trkpt lat="50.4821" lon="3.143">
        <ele>53</ele>
        <time>2022-11-11T18:10:52.907Z</time>
      </trkpt>
      <trkpt lat="50.48246" lon="3.14293">
        <ele>53</ele>
        <time>2022-11-11T18:11:06.319Z</time>
      </trkpt>
      <trkpt lat="50.48271" lon="3.14293">
        <ele>53</ele>
        <time>2022-11-11T18:11:19.735Z</time>
      </trkpt>
      <trkpt lat="50.48343" lon="3.14293">
        <ele>53</ele>
        <time>2022-11-11T18:11:33.161Z</time>
      </trkpt>
      <trkpt lat="50.4835" lon="3.14288">
        <ele>53</ele>
        <time>2022-11-11T18:11:46.588Z</time>
      </trkpt>
      <trkpt lat="50.48385" lon="3.14253">
        <ele>53</ele>
        <time>2022-11-11T18:12:00.021Z</time>
      </trkpt>
      <trkpt lat="50.48475" lon="3.14144">
        <ele>53</ele>
        <time>2022-11-11T18:12:13.470Z</time>
      </trkpt>
      <trkpt lat="50.48519" lon="3.14086">
        <ele>53</ele>
        <time>2022-11-11T18:12:26.927Z</time>
      </trkpt>
      <trkpt lat="50.48528" lon="3.14072">
        <ele>53</ele>
        <time>2022-11-11T18:12:40.386Z</time>
      </trkpt>
      <trkpt lat="50.48528" lon="3.14072">
        <ele>53</ele>
        <time>2022-11-11T18:12:53.845Z</time>
      </trkpt>
      <trkpt lat="50.48582" lon="3.13987">
        <ele>53</ele>
        <time>2022-11-11T18:13:07.315Z</time>
      </trkpt>
      <trkpt lat="50.48608" lon="3.1394">
        <ele>53</ele>
        <time>2022-11-11T18:13:20.790Z</time>
      </trkpt>
      <trkpt lat="50.4862" lon="3.13897">
        <ele>53</ele>
        <time>2022-11-11T18:13:34.270Z</time>
      </trkpt>
      <trkpt lat="50.48639" lon="3.13811">
        <ele>53</ele>
        <time>2022-11-11T18:13:47.758Z</time>
      </trkpt>
      <trkpt lat="50.48823" lon="3.13414">
        <ele>52</ele>
        <time>2022-11-11T18:14:01.264Z</time>
      </trkpt>
      <trkpt lat="50.49248" lon="3.13114">
        <ele>52.2</ele>
      </trkpt>
      <trkpt lat="50.49277" lon="3.1312">
        <ele>53</ele>
      </trkpt>
      <trkpt lat="50.49208" lon="3.12814">
        <ele>49.1</ele>
      </trkpt>
      <trkpt lat="50.49064" lon="3.12729">
        <ele>50.7</ele>
      </trkpt>
      <trkpt lat="50.48826" lon="3.1244">
        <ele>52.2</ele>
      </trkpt>
      <trkpt lat="50.48571" lon="3.12095">
        <ele>51.5</ele>
      </trkpt>
      <trkpt lat="50.48718" lon="3.12112">
        <ele>49.2</ele>
      </trkpt>
      <trkpt lat="50.48816" lon="3.12106">
        <ele>49</ele>
      </trkpt>
      <trkpt lat="50.48898" lon="3.12044">
        <ele>48.3</ele>
      </trkpt>
      <trkpt lat="50.49064" lon="3.11812">
        <ele>51.5</ele>
      </trkpt>
      <trkpt lat="50.4923" lon="3.1171">
        <ele>48.9</ele>
      </trkpt>
      <trkpt lat="50.49219" lon="3.11659">
        <ele>49</ele>
      </trkpt>
      <trkpt lat="50.49194" lon="3.11619">
        <ele>49</ele>
      </trkpt>
      <trkpt lat="50.49208" lon="3.11596">
        <ele>49</ele>
      </trkpt>
      <trkpt lat="50.48935" lon="3.10985">
        <ele>56.5</ele>
      </trkpt>
      <trkpt lat="50.48693" lon="3.10373">
        <ele>65.1</ele>
      </trkpt>
      <trkpt lat="50.47957" lon="3.10501">
        <ele>76</ele>
        <time>2022-11-11T18:29:45.586Z</time>
      </trkpt>
      <trkpt lat="50.47942" lon="3.1047">
        <ele>77</ele>
        <time>2022-11-11T18:29:59.503Z</time>
      </trkpt>
      <trkpt lat="50.47937" lon="3.10471">
        <ele>76</ele>
        <time>2022-11-11T18:30:13.420Z</time>
      </trkpt>
      <trkpt lat="50.47937" lon="3.10471">
        <ele>77</ele>
        <time>2022-11-11T18:30:27.337Z</time>
      </trkpt>
      <trkpt lat="50.47932" lon="3.10466">
        <ele>76</ele>
        <time>2022-11-11T18:30:41.255Z</time>
      </trkpt>
      <trkpt lat="50.47931" lon="3.10459">
        <ele>76</ele>
        <time>2022-11-11T18:30:55.174Z</time>
      </trkpt>
      <trkpt lat="50.47892" lon="3.10438">
        <ele>75</ele>
        <time>2022-11-11T18:31:09.099Z</time>
      </trkpt>
      <trkpt lat="50.47777" lon="3.10352">
        <ele>74</ele>
        <time>2022-11-11T18:31:23.042Z</time>
      </trkpt>
      <trkpt lat="50.4777" lon="3.10348">
        <ele>73</ele>
        <time>2022-11-11T18:31:36.986Z</time>
      </trkpt>
      <trkpt lat="50.47738" lon="3.10322">
        <ele>71</ele>
        <time>2022-11-11T18:31:50.935Z</time>
      </trkpt>
      <trkpt lat="50.47705" lon="3.10307">
        <ele>70</ele>
        <time>2022-11-11T18:32:04.889Z</time>
      </trkpt>
      <trkpt lat="50.47665" lon="3.10296">
        <ele>68</ele>
        <time>2022-11-11T18:32:18.849Z</time>
      </trkpt>
      <trkpt lat="50.47593" lon="3.1031">
        <ele>66</ele>
        <time>2022-11-11T18:32:32.819Z</time>
      </trkpt>
      <trkpt lat="50.47529" lon="3.10323">
        <ele>64</ele>
        <time>2022-11-11T18:32:46.798Z</time>
      </trkpt>
      <trkpt lat="50.47526" lon="3.10324">
        <ele>62</ele>
        <time>2022-11-11T18:33:00.778Z</time>
      </trkpt>
      <trkpt lat="50.4749" lon="3.10332">
        <ele>60</ele>
        <time>2022-11-11T18:33:14.763Z</time>
      </trkpt>
      <trkpt lat="50.47451" lon="3.10333">
        <ele>58</ele>
        <time>2022-11-11T18:33:28.753Z</time>
      </trkpt>
      <trkpt lat="50.4743" lon="3.10334">
        <ele>56</ele>
        <time>2022-11-11T18:33:42.746Z</time>
      </trkpt>
      <trkpt lat="50.47401" lon="3.10329">
        <ele>54</ele>
        <time>2022-11-11T18:33:56.743Z</time>
      </trkpt>
      <trkpt lat="50.47358" lon="3.1032">
        <ele>52</ele>
        <time>2022-11-11T18:34:10.746Z</time>
      </trkpt>
      <trkpt lat="50.47279" lon="3.10285">
        <ele>51</ele>
        <time>2022-11-11T18:34:24.761Z</time>
      </trkpt>
      <trkpt lat="50.47279" lon="3.10285">
        <ele>49</ele>
        <time>2022-11-11T18:34:38.776Z</time>
      </trkpt>
      <trkpt lat="50.47103" lon="3.10206">
        <ele>48</ele>
        <time>2022-11-11T18:34:52.817Z</time>
      </trkpt>
      <trkpt lat="50.46988" lon="3.10178">
        <ele>46</ele>
        <time>2022-11-11T18:35:06.875Z</time>
      </trkpt>
      <trkpt lat="50.46851" lon="3.10146">
        <ele>45</ele>
        <time>2022-11-11T18:35:20.952Z</time>
      </trkpt>
      <trkpt lat="50.46802" lon="3.10131">
        <ele>44</ele>
        <time>2022-11-11T18:35:35.036Z</time>
      </trkpt>
      <trkpt lat="50.46753" lon="3.10107">
        <ele>44</ele>
        <time>2022-11-11T18:35:49.128Z</time>
      </trkpt>
      <trkpt lat="50.46748" lon="3.10104">
        <ele>43</ele>
        <time>2022-11-11T18:36:03.220Z</time>
      </trkpt>
      <trkpt lat="50.46735" lon="3.10097">
        <ele>43</ele>
        <time>2022-11-11T18:36:17.314Z</time>
      </trkpt>
      <trkpt lat="50.46706" lon="3.10075">
        <ele>43</ele>
        <time>2022-11-11T18:36:31.413Z</time>
      </trkpt>
      <trkpt lat="50.46677" lon="3.10051">
        <ele>43</ele>
        <time>2022-11-11T18:36:45.517Z</time>
      </trkpt>
      <trkpt lat="50.46587" lon="3.0996">
        <ele>44</ele>
        <time>2022-11-11T18:36:59.636Z</time>
      </trkpt>
      <trkpt lat="50.46459" lon="3.09815">
        <ele>45</ele>
        <time>2022-11-11T18:37:13.777Z</time>
      </trkpt>
      <trkpt lat="50.46399" lon="3.09747">
        <ele>45</ele>
        <time>2022-11-11T18:37:27.929Z</time>
      </trkpt>
      <trkpt lat="50.46386" lon="3.09718">
        <ele>46</ele>
        <time>2022-11-11T18:37:42.084Z</time>
      </trkpt>
      <trkpt lat="50.46266" lon="3.09554">
        <ele>47</ele>
        <time>2022-11-11T18:37:56.262Z</time>
      </trkpt>
      <trkpt lat="50.4625" lon="3.09517">
        <ele>48</ele>
        <time>2022-11-11T18:38:10.444Z</time>
      </trkpt>
      <trkpt lat="50.46245" lon="3.09508">
        <ele>49</ele>
        <time>2022-11-11T18:38:24.627Z</time>
      </trkpt>
      <trkpt lat="50.4622" lon="3.09426">
        <ele>51</ele>
        <time>2022-11-11T18:38:38.818Z</time>
      </trkpt>
      <trkpt lat="50.46204" lon="3.0937">
        <ele>52</ele>
        <time>2022-11-11T18:38:53.015Z</time>
      </trkpt>
      <trkpt lat="50.462" lon="3.09351">
        <ele>53</ele>
        <time>2022-11-11T18:39:07.213Z</time>
      </trkpt>
      <trkpt lat="50.4615" lon="3.092">
        <ele>54</ele>
        <time>2022-11-11T18:39:21.427Z</time>
      </trkpt>
      <trkpt lat="50.46119" lon="3.09139">
        <ele>55</ele>
        <time>2022-11-11T18:39:35.648Z</time>
      </trkpt>
      <trkpt lat="50.46084" lon="3.09052">
        <ele>56</ele>
        <time>2022-11-11T18:39:49.878Z</time>
      </trkpt>
      <trkpt lat="50.46073" lon="3.09008">
        <ele>58</ele>
        <time>2022-11-11T18:40:04.112Z</time>
      </trkpt>
      <trkpt lat="50.46073" lon="3.08995">
        <ele>59</ele>
        <time>2022-11-11T18:40:18.348Z</time>
      </trkpt>
      <trkpt lat="50.45952" lon="3.08834">
        <ele>64</ele>
        <time>2022-11-11T18:41:43.864Z</time>
      </trkpt>
      <trkpt lat="50.45937" lon="3.08826">
        <ele>65</ele>
        <time>2022-11-11T18:41:58.126Z</time>
      </trkpt>
      <trkpt lat="50.45923" lon="3.08827">
        <ele>61</ele>
        <time>2022-11-11T18:42:12.390Z</time>
      </trkpt>
      <trkpt lat="50.45905" lon="3.08818">
        <ele>63</ele>
        <time>2022-11-11T18:42:26.657Z</time>
      </trkpt>
      <trkpt lat="50.45821" lon="3.08754">
        <ele>64</ele>
        <time>2022-11-11T18:42:40.937Z</time>
      </trkpt>
      <trkpt lat="50.45792" lon="3.08724">
        <ele>65</ele>
        <time>2022-11-11T18:42:55.222Z</time>
      </trkpt>
      <trkpt lat="50.45768" lon="3.08687">
        <ele>66</ele>
        <time>2022-11-11T18:43:09.512Z</time>
      </trkpt>
      <trkpt lat="50.45735" lon="3.0865">
        <ele>67</ele>
        <time>2022-11-11T18:43:23.808Z</time>
      </trkpt>
      <trkpt lat="50.45718" lon="3.08634">
        <ele>68</ele>
        <time>2022-11-11T18:43:38.106Z</time>
      </trkpt>
      <trkpt lat="50.45698" lon="3.08621">
        <ele>69</ele>
        <time>2022-11-11T18:43:52.408Z</time>
      </trkpt>
      <trkpt lat="50.4569" lon="3.08614">
        <ele>69</ele>
        <time>2022-11-11T18:44:06.711Z</time>
      </trkpt>
      <trkpt lat="50.4568" lon="3.08611">
        <ele>70</ele>
        <time>2022-11-11T18:44:21.015Z</time>
      </trkpt>
      <trkpt lat="50.45661" lon="3.08596">
        <ele>70</ele>
        <time>2022-11-11T18:44:35.322Z</time>
      </trkpt>
      <trkpt lat="50.45655" lon="3.08588">
        <ele>71</ele>
        <time>2022-11-11T18:44:49.630Z</time>
      </trkpt>
      <trkpt lat="50.45602" lon="3.08503">
        <ele>71</ele>
        <time>2022-11-11T18:45:03.949Z</time>
      </trkpt>
      <trkpt lat="50.45568" lon="3.08461">
        <ele>72</ele>
        <time>2022-11-11T18:45:18.274Z</time>
      </trkpt>
      <trkpt lat="50.45558" lon="3.08447">
        <ele>72</ele>
        <time>2022-11-11T18:45:32.601Z</time>
      </trkpt>
      <trkpt lat="50.45552" lon="3.08434">
        <ele>72</ele>
        <time>2022-11-11T18:45:46.930Z</time>
      </trkpt>
      <trkpt lat="50.45511" lon="3.08324">
        <ele>73</ele>
        <time>2022-11-11T18:46:01.270Z</time>
      </trkpt>
      <trkpt lat="50.45502" lon="3.08308">
        <ele>73</ele>
        <time>2022-11-11T18:46:15.612Z</time>
      </trkpt>
      <trkpt lat="50.45486" lon="3.08285">
        <ele>73</ele>
        <time>2022-11-11T18:46:29.957Z</time>
      </trkpt>
      <trkpt lat="50.45472" lon="3.08267">
        <ele>73</ele>
        <time>2022-11-11T18:46:44.305Z</time>
      </trkpt>
      <trkpt lat="50.45463" lon="3.08255">
        <ele>74</ele>
        <time>2022-11-11T18:46:58.655Z</time>
      </trkpt>
      <trkpt lat="50.45454" lon="3.0824">
        <ele>75</ele>
        <time>2022-11-11T18:47:13.006Z</time>
      </trkpt>
      <trkpt lat="50.45442" lon="3.08211">
        <ele>75</ele>
        <time>2022-11-11T18:47:27.361Z</time>
      </trkpt>
      <trkpt lat="50.45406" lon="3.08093">
        <ele>76</ele>
        <time>2022-11-11T18:47:41.727Z</time>
      </trkpt>
      <trkpt lat="50.45373" lon="3.08018">
        <ele>76</ele>
        <time>2022-11-11T18:47:56.102Z</time>
      </trkpt>
      <trkpt lat="50.45359" lon="3.07958">
        <ele>76</ele>
        <time>2022-11-11T18:48:10.482Z</time>
      </trkpt>
      <trkpt lat="50.45349" lon="3.07928">
        <ele>76</ele>
        <time>2022-11-11T18:48:24.865Z</time>
      </trkpt>
      <trkpt lat="50.45346" lon="3.07922">
        <ele>76</ele>
        <time>2022-11-11T18:48:39.249Z</time>
      </trkpt>
      <trkpt lat="50.45301" lon="3.07805">
        <ele>76</ele>
        <time>2022-11-11T18:48:53.646Z</time>
      </trkpt>
      <trkpt lat="50.45276" lon="3.07748">
        <ele>76</ele>
        <time>2022-11-11T18:49:08.049Z</time>
      </trkpt>
      <trkpt lat="50.4524" lon="3.07688">
        <ele>77</ele>
        <time>2022-11-11T18:49:22.459Z</time>
      </trkpt>
      <trkpt lat="50.45201" lon="3.0762">
        <ele>77</ele>
        <time>2022-11-11T18:49:36.878Z</time>
      </trkpt>
      <trkpt lat="50.45201" lon="3.0762">
        <ele>77</ele>
        <time>2022-11-11T18:49:51.297Z</time>
      </trkpt>
      <trkpt lat="50.45184" lon="3.0759">
        <ele>76</ele>
        <time>2022-11-11T18:50:05.719Z</time>
      </trkpt>
      <trkpt lat="50.45165" lon="3.0757">
        <ele>76</ele>
        <time>2022-11-11T18:50:20.144Z</time>
      </trkpt>
      <trkpt lat="50.45147" lon="3.07566">
        <ele>76</ele>
        <time>2022-11-11T18:50:34.572Z</time>
      </trkpt>
      <trkpt lat="50.45117" lon="3.07569">
        <ele>75</ele>
        <time>2022-11-11T18:50:49.004Z</time>
      </trkpt>
      <trkpt lat="50.45091" lon="3.07567">
        <ele>74</ele>
        <time>2022-11-11T18:51:03.440Z</time>
      </trkpt>
      <trkpt lat="50.45065" lon="3.07559">
        <ele>74</ele>
        <time>2022-11-11T18:51:17.880Z</time>
      </trkpt>
      <trkpt lat="50.45042" lon="3.07534">
        <ele>73</ele>
        <time>2022-11-11T18:51:32.324Z</time>
      </trkpt>
      <trkpt lat="50.45018" lon="3.0749">
        <ele>71</ele>
        <time>2022-11-11T18:51:46.773Z</time>
      </trkpt>
      <trkpt lat="50.44964" lon="3.07408">
        <ele>70</ele>
        <time>2022-11-11T18:52:01.233Z</time>
      </trkpt>
      <trkpt lat="50.44955" lon="3.07401">
        <ele>69</ele>
        <time>2022-11-11T18:52:15.694Z</time>
      </trkpt>
      <trkpt lat="50.44946" lon="3.07397">
        <ele>67</ele>
        <time>2022-11-11T18:52:30.157Z</time>
      </trkpt>
      <trkpt lat="50.44928" lon="3.07401">
        <ele>66</ele>
        <time>2022-11-11T18:52:44.622Z</time>
      </trkpt>
      <trkpt lat="50.4492" lon="3.07403">
        <ele>64</ele>
        <time>2022-11-11T18:52:59.088Z</time>
      </trkpt>
      <trkpt lat="50.44911" lon="3.07401">
        <ele>62</ele>
        <time>2022-11-11T18:53:13.555Z</time>
      </trkpt>
      <trkpt lat="50.44902" lon="3.07387">
        <ele>61</ele>
        <time>2022-11-11T18:53:28.024Z</time>
      </trkpt>
      <trkpt lat="50.44851" lon="3.07298">
        <ele>59</ele>
        <time>2022-11-11T18:53:42.504Z</time>
      </trkpt>
      <trkpt lat="50.4474" lon="3.07115">
        <ele>56</ele>
        <time>2022-11-11T18:53:57.007Z</time>
      </trkpt>
      <trkpt lat="50.44732" lon="3.07097">
        <ele>54</ele>
        <time>2022-11-11T18:54:11.512Z</time>
      </trkpt>
      <trkpt lat="50.44711" lon="3.07067">
        <ele>52</ele>
        <time>2022-11-11T18:54:26.021Z</time>
      </trkpt>
      <trkpt lat="50.44711" lon="3.07067">
        <ele>50</ele>
        <time>2022-11-11T18:54:40.530Z</time>
      </trkpt>
      <trkpt lat="50.44663" lon="3.06981">
        <ele>48</ele>
        <time>2022-11-11T18:54:55.049Z</time>
      </trkpt>
      <trkpt lat="50.44646" lon="3.06938">
        <ele>46</ele>
        <time>2022-11-11T18:55:09.573Z</time>
      </trkpt>
      <trkpt lat="50.44643" lon="3.06933">
        <ele>44</ele>
        <time>2022-11-11T18:55:24.098Z</time>
      </trkpt>
      <trkpt lat="50.4457" lon="3.06743">
        <ele>41</ele>
        <time>2022-11-11T18:55:38.643Z</time>
      </trkpt>
      <trkpt lat="50.4454" lon="3.06667">
        <ele>39</ele>
        <time>2022-11-11T18:55:53.196Z</time>
      </trkpt>
      <trkpt lat="50.44525" lon="3.06636">
        <ele>38</ele>
        <time>2022-11-11T18:56:07.752Z</time>
      </trkpt>
      <trkpt lat="50.44373" lon="3.06433">
        <ele>36</ele>
        <time>2022-11-11T18:56:22.337Z</time>
      </trkpt>
      <trkpt lat="50.44369" lon="3.0643">
        <ele>34</ele>
        <time>2022-11-11T18:56:36.922Z</time>
      </trkpt>
      <trkpt lat="50.44304" lon="3.06347">
        <ele>33</ele>
        <time>2022-11-11T18:56:51.519Z</time>
      </trkpt>
      <trkpt lat="50.44291" lon="3.06332">
        <ele>32</ele>
        <time>2022-11-11T18:57:06.118Z</time>
      </trkpt>
      <trkpt lat="50.44277" lon="3.06325">
        <ele>30</ele>
        <time>2022-11-11T18:57:20.720Z</time>
      </trkpt>
      <trkpt lat="50.44265" lon="3.0632">
        <ele>30</ele>
        <time>2022-11-11T18:57:35.323Z</time>
      </trkpt>
      <trkpt lat="50.44265" lon="3.06315">
        <ele>28</ele>
        <time>2022-11-11T18:57:49.927Z</time>
      </trkpt>
      <trkpt lat="50.4426" lon="3.06307">
        <ele>26</ele>
        <time>2022-11-11T18:58:04.532Z</time>
      </trkpt>
      <trkpt lat="50.44257" lon="3.06308">
        <ele>26</ele>
        <time>2022-11-11T18:58:19.137Z</time>
      </trkpt>
      <trkpt lat="50.44254" lon="3.0631">
        <ele>26</ele>
        <time>2022-11-11T18:58:33.743Z</time>
      </trkpt>
      <trkpt lat="50.44252" lon="3.06316">
        <ele>26</ele>
        <time>2022-11-11T18:58:48.349Z</time>
      </trkpt>
      <trkpt lat="50.44252" lon="3.06317">
        <ele>29.1</ele>
        <time>2022-11-11T18:59:32.215Z</time>
      </trkpt>
      <trkpt lat="50.44258" lon="3.06323">
        <ele>29.3</ele>
        <time>2022-11-11T18:59:46.839Z</time>
      </trkpt>
      <trkpt lat="50.44257" lon="3.06315">
        <ele>29.3</ele>
      </trkpt>
      <trkpt lat="50.44263" lon="3.06285">
        <ele>29.4</ele>
        <time>2022-11-11T19:00:01.467Z</time>
      </trkpt>
      <trkpt lat="50.44314" lon="3.06147">
        <ele>30</ele>
        <time>2022-11-11T19:00:16.101Z</time>
      </trkpt>
      <trkpt lat="50.44171" lon="3.05944">
        <ele>28</ele>
        <time>2022-11-11T19:00:30.738Z</time>
      </trkpt>
      <trkpt lat="50.44141" lon="3.05898">
        <ele>27.7</ele>
      </trkpt>
      <trkpt lat="50.44093" lon="3.0583">
        <ele>26.9</ele>
        <time>2022-11-11T19:01:14.674Z</time>
      </trkpt>
      <trkpt lat="50.44004" lon="3.05735">
        <ele>25</ele>
        <time>2022-11-11T19:03:56.132Z</time>
      </trkpt>
      <trkpt lat="50.44009" lon="3.05734">
        <ele>25</ele>
        <time>2022-11-11T19:04:10.832Z</time>
      </trkpt>
      <trkpt lat="50.4401" lon="3.05727">
        <ele>25</ele>
        <time>2022-11-11T19:04:25.533Z</time>
      </trkpt>
      <trkpt lat="50.44009" lon="3.05724">
        <ele>25</ele>
        <time>2022-11-11T19:04:40.234Z</time>
      </trkpt>
      <trkpt lat="50.44006" lon="3.05721">
        <ele>25</ele>
        <time>2022-11-11T19:04:54.935Z</time>
      </trkpt>
      <trkpt lat="50.44004" lon="3.05723">
        <ele>25</ele>
        <time>2022-11-11T19:05:09.637Z</time>
      </trkpt>
      <trkpt lat="50.44006" lon="3.05563">
        <ele>25</ele>
        <time>2022-11-11T19:05:24.353Z</time>
      </trkpt>
      <trkpt lat="50.44004" lon="3.05508">
        <ele>25</ele>
        <time>2022-11-11T19:05:39.074Z</time>
      </trkpt>
      <trkpt lat="50.43997" lon="3.05429">
        <ele>24</ele>
        <time>2022-11-11T19:05:53.803Z</time>
      </trkpt>
      <trkpt lat="50.43995" lon="3.05402">
        <ele>24</ele>
        <time>2022-11-11T19:06:08.534Z</time>
      </trkpt>
      <trkpt lat="50.43995" lon="3.05402">
        <ele>24</ele>
        <time>2022-11-11T19:06:23.265Z</time>
      </trkpt>
      <trkpt lat="50.43978" lon="3.05211">
        <ele>24</ele>
        <time>2022-11-11T19:06:38.013Z</time>
      </trkpt>
      <trkpt lat="50.43977" lon="3.05169">
        <ele>24</ele>
        <time>2022-11-11T19:06:52.765Z</time>
      </trkpt>
      <trkpt lat="50.43978" lon="3.05116">
        <ele>24</ele>
        <time>2022-11-11T19:07:07.522Z</time>
      </trkpt>
      <trkpt lat="50.43992" lon="3.04917">
        <ele>24</ele>
        <time>2022-11-11T19:07:22.297Z</time>
      </trkpt>
      <trkpt lat="50.43991" lon="3.04857">
        <ele>24</ele>
        <time>2022-11-11T19:07:37.078Z</time>
      </trkpt>
      <trkpt lat="50.43991" lon="3.04788">
        <ele>24</ele>
        <time>2022-11-11T19:07:51.865Z</time>
      </trkpt>
      <trkpt lat="50.43996" lon="3.04753">
        <ele>24</ele>
        <time>2022-11-11T19:08:06.655Z</time>
      </trkpt>
      <trkpt lat="50.44001" lon="3.04741">
        <ele>24</ele>
        <time>2022-11-11T19:08:21.447Z</time>
      </trkpt>
      <trkpt lat="50.44004" lon="3.04728">
        <ele>24</ele>
        <time>2022-11-11T19:08:36.240Z</time>
      </trkpt>
      <trkpt lat="50.44001" lon="3.04716">
        <ele>24</ele>
        <time>2022-11-11T19:08:51.034Z</time>
      </trkpt>
      <trkpt lat="50.43998" lon="3.04708">
        <ele>24</ele>
        <time>2022-11-11T19:09:05.829Z</time>
      </trkpt>
      <trkpt lat="50.43992" lon="3.04701">
        <ele>24</ele>
        <time>2022-11-11T19:09:20.625Z</time>
      </trkpt>
      <trkpt lat="50.43986" lon="3.0469">
        <ele>24</ele>
        <time>2022-11-11T19:09:35.422Z</time>
      </trkpt>
      <trkpt lat="50.43964" lon="3.04622">
        <ele>24</ele>
        <time>2022-11-11T19:09:50.226Z</time>
      </trkpt>
      <trkpt lat="50.43947" lon="3.04524">
        <ele>24</ele>
        <time>2022-11-11T19:10:05.039Z</time>
      </trkpt>
      <trkpt lat="50.43945" lon="3.04513">
        <ele>24</ele>
        <time>2022-11-11T19:10:19.853Z</time>
      </trkpt>
      <trkpt lat="50.43908" lon="3.04386">
        <ele>24</ele>
        <time>2022-11-11T19:10:34.680Z</time>
      </trkpt>
      <trkpt lat="50.43901" lon="3.04358">
        <ele>24</ele>
        <time>2022-11-11T19:10:49.510Z</time>
      </trkpt>
      <trkpt lat="50.43897" lon="3.04337">
        <ele>24</ele>
        <time>2022-11-11T19:11:04.342Z</time>
      </trkpt>
      <trkpt lat="50.43894" lon="3.04302">
        <ele>24</ele>
        <time>2022-11-11T19:11:19.177Z</time>
      </trkpt>
      <trkpt lat="50.43895" lon="3.04281">
        <ele>24</ele>
        <time>2022-11-11T19:11:34.014Z</time>
      </trkpt>
      <trkpt lat="50.43897" lon="3.04262">
        <ele>24</ele>
        <time>2022-11-11T19:11:48.852Z</time>
      </trkpt>
      <trkpt lat="50.43935" lon="3.04161">
        <ele>24</ele>
        <time>2022-11-11T19:12:03.701Z</time>
      </trkpt>
      <trkpt lat="50.43935" lon="3.04153">
        <ele>24</ele>
        <time>2022-11-11T19:12:18.551Z</time>
      </trkpt>
      <trkpt lat="50.43894" lon="3.04057">
        <ele>24</ele>
        <time>2022-11-11T19:12:33.411Z</time>
      </trkpt>
      <trkpt lat="50.43887" lon="3.04045">
        <ele>24</ele>
        <time>2022-11-11T19:12:48.273Z</time>
      </trkpt>
      <trkpt lat="50.43861" lon="3.04025">
        <ele>24</ele>
        <time>2022-11-11T19:13:03.139Z</time>
      </trkpt>
      <trkpt lat="50.43839" lon="3.03991">
        <ele>24</ele>
        <time>2022-11-11T19:13:18.009Z</time>
      </trkpt>
      <trkpt lat="50.43821" lon="3.03963">
        <ele>24</ele>
        <time>2022-11-11T19:13:32.883Z</time>
      </trkpt>
      <trkpt lat="50.43813" lon="3.03947">
        <ele>24</ele>
        <time>2022-11-11T19:13:47.759Z</time>
      </trkpt>
      <trkpt lat="50.43804" lon="3.03914">
        <ele>24</ele>
        <time>2022-11-11T19:14:02.638Z</time>
      </trkpt>
      <trkpt lat="50.438" lon="3.03885">
        <ele>24</ele>
        <time>2022-11-11T19:14:17.520Z</time>
      </trkpt>
      <trkpt lat="50.43796" lon="3.03854">
        <ele>24</ele>
        <time>2022-11-11T19:14:32.405Z</time>
      </trkpt>
      <trkpt lat="50.43796" lon="3.03807">
        <ele>24</ele>
        <time>2022-11-11T19:14:47.294Z</time>
      </trkpt>
      <trkpt lat="50.43805" lon="3.03744">
        <ele>24</ele>
        <time>2022-11-11T19:15:02.189Z</time>
      </trkpt>
      <trkpt lat="50.43798" lon="3.03663">
        <ele>25</ele>
        <time>2022-11-11T19:15:17.091Z</time>
      </trkpt>
      <trkpt lat="50.43796" lon="3.03639">
        <ele>25</ele>
        <time>2022-11-11T19:15:31.995Z</time>
      </trkpt>
      <trkpt lat="50.43795" lon="3.0362">
        <ele>25</ele>
        <time>2022-11-11T19:15:46.901Z</time>
      </trkpt>
      <trkpt lat="50.43796" lon="3.03601">
        <ele>25</ele>
        <time>2022-11-11T19:16:01.809Z</time>
      </trkpt>
      <trkpt lat="50.43823" lon="3.03498">
        <ele>25</ele>
        <time>2022-11-11T19:16:16.727Z</time>
      </trkpt>
      <trkpt lat="50.43832" lon="3.03467">
        <ele>25</ele>
        <time>2022-11-11T19:16:31.648Z</time>
      </trkpt>
      <trkpt lat="50.43834" lon="3.0343">
        <ele>25</ele>
        <time>2022-11-11T19:16:46.572Z</time>
      </trkpt>
      <trkpt lat="50.43834" lon="3.03415">
        <ele>26</ele>
        <time>2022-11-11T19:17:01.498Z</time>
      </trkpt>
      <trkpt lat="50.43834" lon="3.03329">
        <ele>26</ele>
        <time>2022-11-11T19:17:16.431Z</time>
      </trkpt>
      <trkpt lat="50.4383" lon="3.03261">
        <ele>26</ele>
        <time>2022-11-11T19:17:31.371Z</time>
      </trkpt>
      <trkpt lat="50.43825" lon="3.03204">
        <ele>26</ele>
        <time>2022-11-11T19:17:46.316Z</time>
      </trkpt>
      <trkpt lat="50.43825" lon="3.03191">
        <ele>26</ele>
        <time>2022-11-11T19:18:01.262Z</time>
      </trkpt>
      <trkpt lat="50.43825" lon="3.03151">
        <ele>26</ele>
        <time>2022-11-11T19:18:16.212Z</time>
      </trkpt>
      <trkpt lat="50.43829" lon="3.03124">
        <ele>26</ele>
        <time>2022-11-11T19:18:31.164Z</time>
      </trkpt>
      <trkpt lat="50.43837" lon="3.03093">
        <ele>26</ele>
        <time>2022-11-11T19:18:46.119Z</time>
      </trkpt>
      <trkpt lat="50.43857" lon="3.03057">
        <ele>26</ele>
        <time>2022-11-11T19:19:01.078Z</time>
      </trkpt>
      <trkpt lat="50.43872" lon="3.03021">
        <ele>26</ele>
        <time>2022-11-11T19:19:16.041Z</time>
      </trkpt>
      <trkpt lat="50.43874" lon="3.03009">
        <ele>26</ele>
        <time>2022-11-11T19:19:31.005Z</time>
      </trkpt>
      <trkpt lat="50.43878" lon="3.02986">
        <ele>27</ele>
        <time>2022-11-11T19:19:45.972Z</time>
      </trkpt>
      <trkpt lat="50.43878" lon="3.02986">
        <ele>27</ele>
        <time>2022-11-11T19:20:00.939Z</time>
      </trkpt>
      <trkpt lat="50.43879" lon="3.02939">
        <ele>27</ele>
        <time>2022-11-11T19:20:15.910Z</time>
      </trkpt>
      <trkpt lat="50.43882" lon="3.02811">
        <ele>27</ele>
        <time>2022-11-11T19:20:30.893Z</time>
      </trkpt>
      <trkpt lat="50.43884" lon="3.02744">
        <ele>27</ele>
        <time>2022-11-11T19:20:45.882Z</time>
      </trkpt>
      <trkpt lat="50.43893" lon="3.02709">
        <ele>27</ele>
        <time>2022-11-11T19:21:00.874Z</time>
      </trkpt>
      <trkpt lat="50.43919" lon="3.02604">
        <ele>27</ele>
        <time>2022-11-11T19:21:15.876Z</time>
      </trkpt>
      <trkpt lat="50.43945" lon="3.02496">
        <ele>28</ele>
        <time>2022-11-11T19:21:30.889Z</time>
      </trkpt>
      <trkpt lat="50.4396" lon="3.02435">
        <ele>28</ele>
        <time>2022-11-11T19:21:45.908Z</time>
      </trkpt>
      <trkpt lat="50.44028" lon="3.02155">
        <ele>28</ele>
        <time>2022-11-11T19:22:00.954Z</time>
      </trkpt>
      <trkpt lat="50.4405" lon="3.02067">
        <ele>28</ele>
        <time>2022-11-11T19:22:16.008Z</time>
      </trkpt>
      <trkpt lat="50.44141" lon="3.01827">
        <ele>28</ele>
        <time>2022-11-11T19:22:31.088Z</time>
      </trkpt>
      <trkpt lat="50.44188" lon="3.01702">
        <ele>28</ele>
        <time>2022-11-11T19:22:46.181Z</time>
      </trkpt>
      <trkpt lat="50.44207" lon="3.01643">
        <ele>28</ele>
        <time>2022-11-11T19:23:01.280Z</time>
      </trkpt>
      <trkpt lat="50.4423" lon="3.01541">
        <ele>28</ele>
        <time>2022-11-11T19:23:16.389Z</time>
      </trkpt>
      <trkpt lat="50.44233" lon="3.01514">
        <ele>28</ele>
        <time>2022-11-11T19:23:31.500Z</time>
      </trkpt>
      <trkpt lat="50.44236" lon="3.01493">
        <ele>28</ele>
        <time>2022-11-11T19:23:46.613Z</time>
      </trkpt>
      <trkpt lat="50.44246" lon="3.01308">
        <ele>28</ele>
        <time>2022-11-11T19:24:01.743Z</time>
      </trkpt>
      <trkpt lat="50.4425" lon="3.01274">
        <ele>28</ele>
        <time>2022-11-11T19:24:16.876Z</time>
      </trkpt>
      <trkpt lat="50.44261" lon="3.01241">
        <ele>28</ele>
        <time>2022-11-11T19:24:32.012Z</time>
      </trkpt>
      <trkpt lat="50.44291" lon="3.01176">
        <ele>28</ele>
        <time>2022-11-11T19:24:47.156Z</time>
      </trkpt>
      <trkpt lat="50.44308" lon="3.01139">
        <ele>28</ele>
        <time>2022-11-11T19:25:02.304Z</time>
      </trkpt>
      <trkpt lat="50.44313" lon="3.0113">
        <ele>28</ele>
        <time>2022-11-11T19:25:17.453Z</time>
      </trkpt>
      <trkpt lat="50.44311" lon="3.01125">
        <ele>28</ele>
        <time>2022-11-11T19:25:32.602Z</time>
      </trkpt>
      <trkpt lat="50.44322" lon="3.01095">
        <ele>28</ele>
        <time>2022-11-11T19:25:47.754Z</time>
      </trkpt>
      <trkpt lat="50.4432" lon="3.01087">
        <ele>28</ele>
        <time>2022-11-11T19:26:02.907Z</time>
      </trkpt>
      <trkpt lat="50.443" lon="3.01055">
        <ele>27</ele>
        <time>2022-11-11T19:26:18.064Z</time>
      </trkpt>
      <trkpt lat="50.44274" lon="3.00999">
        <ele>27</ele>
        <time>2022-11-11T19:26:33.228Z</time>
      </trkpt>
      <trkpt lat="50.4425" lon="3.00937">
        <ele>27</ele>
        <time>2022-11-11T19:26:48.398Z</time>
      </trkpt>
      <trkpt lat="50.44217" lon="3.00855">
        <ele>27</ele>
        <time>2022-11-11T19:27:03.577Z</time>
      </trkpt>
      <trkpt lat="50.44198" lon="3.00801">
        <ele>27</ele>
        <time>2022-11-11T19:27:18.762Z</time>
      </trkpt>
      <trkpt lat="50.44188" lon="3.00754">
        <ele>27</ele>
        <time>2022-11-11T19:27:33.951Z</time>
      </trkpt>
      <trkpt lat="50.44181" lon="3.00692">
        <ele>27</ele>
        <time>2022-11-11T19:27:49.146Z</time>
      </trkpt>
      <trkpt lat="50.44179" lon="3.00643">
        <ele>27</ele>
        <time>2022-11-11T19:28:04.345Z</time>
      </trkpt>
      <trkpt lat="50.44184" lon="3.00581">
        <ele>27</ele>
        <time>2022-11-11T19:28:19.550Z</time>
      </trkpt>
      <trkpt lat="50.44198" lon="3.00515">
        <ele>27</ele>
        <time>2022-11-11T19:28:34.761Z</time>
      </trkpt>
      <trkpt lat="50.44215" lon="3.00461">
        <ele>27</ele>
        <time>2022-11-11T19:28:49.978Z</time>
      </trkpt>
      <trkpt lat="50.44228" lon="3.0043">
        <ele>27</ele>
        <time>2022-11-11T19:29:05.198Z</time>
      </trkpt>
      <trkpt lat="50.44236" lon="3.00416">
        <ele>27</ele>
        <time>2022-11-11T19:29:20.420Z</time>
      </trkpt>
      <trkpt lat="50.44236" lon="3.00416">
        <ele>27</ele>
        <time>2022-11-11T19:29:35.642Z</time>
      </trkpt>
      <trkpt lat="50.44246" lon="3.00398">
        <ele>27</ele>
        <time>2022-11-11T19:29:50.866Z</time>
      </trkpt>
      <trkpt lat="50.44257" lon="3.00367">
        <ele>27</ele>
        <time>2022-11-11T19:30:06.093Z</time>
      </trkpt>
      <trkpt lat="50.44258" lon="3.00337">
        <ele>27</ele>
        <time>2022-11-11T19:30:21.323Z</time>
      </trkpt>
      <trkpt lat="50.44262" lon="3.00314">
        <ele>27</ele>
        <time>2022-11-11T19:30:36.555Z</time>
      </trkpt>
      <trkpt lat="50.44275" lon="3.00304">
        <ele>27</ele>
        <time>2022-11-11T19:30:51.789Z</time>
      </trkpt>
      <trkpt lat="50.44284" lon="3.00296">
        <ele>27</ele>
        <time>2022-11-11T19:31:07.024Z</time>
      </trkpt>
      <trkpt lat="50.44269" lon="3.00252">
        <ele>27</ele>
        <time>2022-11-11T19:31:22.264Z</time>
      </trkpt>
      <trkpt lat="50.44211" lon="2.99991">
        <ele>27</ele>
        <time>2022-11-11T19:31:37.529Z</time>
      </trkpt>
      <trkpt lat="50.44181" lon="2.99865">
        <ele>27</ele>
        <time>2022-11-11T19:31:52.806Z</time>
      </trkpt>
      <trkpt lat="50.44181" lon="2.99865">
        <ele>27</ele>
        <time>2022-11-11T19:32:08.083Z</time>
      </trkpt>
      <trkpt lat="50.44147" lon="2.99719">
        <ele>27</ele>
        <time>2022-11-11T19:32:23.374Z</time>
      </trkpt>
      <trkpt lat="50.44134" lon="2.99673">
        <ele>27</ele>
        <time>2022-11-11T19:32:38.670Z</time>
      </trkpt>
      <trkpt lat="50.44122" lon="2.99639">
        <ele>26</ele>
        <time>2022-11-11T19:32:53.969Z</time>
      </trkpt>
      <trkpt lat="50.44118" lon="2.99629">
        <ele>26</ele>
        <time>2022-11-11T19:33:09.269Z</time>
      </trkpt>
      <trkpt lat="50.44086" lon="2.99568">
        <ele>26</ele>
        <time>2022-11-11T19:33:24.577Z</time>
      </trkpt>
      <trkpt lat="50.44014" lon="2.99497">
        <ele>26</ele>
        <time>2022-11-11T19:33:39.897Z</time>
      </trkpt>
      <trkpt lat="50.4399" lon="2.99455">
        <ele>26</ele>
        <time>2022-11-11T19:33:55.222Z</time>
      </trkpt>
      <trkpt lat="50.43979" lon="2.99428">
        <ele>26</ele>
        <time>2022-11-11T19:34:10.550Z</time>
      </trkpt>
      <trkpt lat="50.43979" lon="2.99428">
        <ele>26</ele>
        <time>2022-11-11T19:34:25.878Z</time>
      </trkpt>
      <trkpt lat="50.43961" lon="2.99387">
        <ele>26</ele>
        <time>2022-11-11T19:34:41.210Z</time>
      </trkpt>
      <trkpt lat="50.43926" lon="2.99312">
        <ele>26</ele>
        <time>2022-11-11T19:34:56.551Z</time>
      </trkpt>
      <trkpt lat="50.43901" lon="2.99254">
        <ele>26</ele>
        <time>2022-11-11T19:35:11.898Z</time>
      </trkpt>
      <trkpt lat="50.43905" lon="2.99242">
        <ele>26</ele>
        <time>2022-11-11T19:35:27.246Z</time>
      </trkpt>
      <trkpt lat="50.43904" lon="2.99233">
        <ele>26</ele>
        <time>2022-11-11T19:35:42.595Z</time>
      </trkpt>
      <trkpt lat="50.43901" lon="2.99226">
        <ele>26</ele>
        <time>2022-11-11T19:35:57.945Z</time>
      </trkpt>
      <trkpt lat="50.43895" lon="2.99224">
        <ele>26</ele>
        <time>2022-11-11T19:36:13.296Z</time>
      </trkpt>
      <trkpt lat="50.43888" lon="2.99227">
        <ele>26</ele>
        <time>2022-11-11T19:36:28.648Z</time>
      </trkpt>
      <trkpt lat="50.43876" lon="2.99204">
        <ele>26</ele>
        <time>2022-11-11T19:36:44.002Z</time>
      </trkpt>
      <trkpt lat="50.43861" lon="2.99183">
        <ele>26</ele>
        <time>2022-11-11T19:36:59.359Z</time>
      </trkpt>
      <trkpt lat="50.4381" lon="2.9912">
        <ele>27</ele>
        <time>2022-11-11T19:37:14.725Z</time>
      </trkpt>
      <trkpt lat="50.438" lon="2.99101">
        <ele>27</ele>
        <time>2022-11-11T19:37:30.094Z</time>
      </trkpt>
      <trkpt lat="50.43788" lon="2.99073">
        <ele>27</ele>
        <time>2022-11-11T19:37:45.466Z</time>
      </trkpt>
      <trkpt lat="50.43783" lon="2.9905">
        <ele>27</ele>
        <time>2022-11-11T19:38:00.840Z</time>
      </trkpt>
      <trkpt lat="50.43777" lon="2.99026">
        <ele>27</ele>
        <time>2022-11-11T19:38:16.216Z</time>
      </trkpt>
      <trkpt lat="50.43705" lon="2.98938">
        <ele>27</ele>
        <time>2022-11-11T19:38:31.605Z</time>
      </trkpt>
      <trkpt lat="50.43647" lon="2.98866">
        <ele>28</ele>
        <time>2022-11-11T19:38:47.005Z</time>
      </trkpt>
      <trkpt lat="50.43601" lon="2.98815">
        <ele>28</ele>
        <time>2022-11-11T19:39:02.413Z</time>
      </trkpt>
      <trkpt lat="50.43557" lon="2.98776">
        <ele>28</ele>
        <time>2022-11-11T19:39:17.828Z</time>
      </trkpt>
      <trkpt lat="50.4348" lon="2.98726">
        <ele>28</ele>
        <time>2022-11-11T19:39:33.255Z</time>
      </trkpt>
      <trkpt lat="50.4348" lon="2.98726">
        <ele>28</ele>
        <time>2022-11-11T19:39:48.682Z</time>
      </trkpt>
      <trkpt lat="50.43474" lon="2.98723">
        <ele>28</ele>
        <time>2022-11-11T19:40:04.110Z</time>
      </trkpt>
      <trkpt lat="50.43464" lon="2.98718">
        <ele>28</ele>
        <time>2022-11-11T19:40:19.539Z</time>
      </trkpt>
      <trkpt lat="50.43412" lon="2.98691">
        <ele>28</ele>
        <time>2022-11-11T19:40:34.976Z</time>
      </trkpt>
      <trkpt lat="50.43386" lon="2.98668">
        <ele>28</ele>
        <time>2022-11-11T19:40:50.417Z</time>
      </trkpt>
      <trkpt lat="50.43379" lon="2.98677">
        <ele>28</ele>
        <time>2022-11-11T19:41:05.860Z</time>
      </trkpt>
      <trkpt lat="50.43372" lon="2.98683">
        <ele>28</ele>
        <time>2022-11-11T19:41:21.304Z</time>
      </trkpt>
      <trkpt lat="50.43366" lon="2.98683">
        <ele>28</ele>
        <time>2022-11-11T19:41:36.749Z</time>
      </trkpt>
      <trkpt lat="50.4332" lon="2.98669">
        <ele>28</ele>
        <time>2022-11-11T19:41:52.200Z</time>
      </trkpt>
      <trkpt lat="50.4332" lon="2.98669">
        <ele>28</ele>
        <time>2022-11-11T19:42:07.651Z</time>
      </trkpt>
      <trkpt lat="50.43302" lon="2.98665">
        <ele>28</ele>
        <time>2022-11-11T19:42:23.105Z</time>
      </trkpt>
      <trkpt lat="50.43295" lon="2.98669">
        <ele>28</ele>
        <time>2022-11-11T19:42:38.560Z</time>
      </trkpt>
      <trkpt lat="50.43244" lon="2.98783">
        <ele>28</ele>
        <time>2022-11-11T19:43:40.422Z</time>
      </trkpt>
      <trkpt lat="50.43237" lon="2.98796">
        <ele>28</ele>
        <time>2022-11-11T19:43:55.891Z</time>
      </trkpt>
      <trkpt lat="50.43209" lon="2.98839">
        <ele>28</ele>
        <time>2022-11-11T19:44:11.366Z</time>
      </trkpt>
      <trkpt lat="50.43199" lon="2.98822">
        <ele>28</ele>
        <time>2022-11-11T19:44:26.843Z</time>
      </trkpt>
      <trkpt lat="50.43199" lon="2.98822">
        <ele>28</ele>
        <time>2022-11-11T19:44:42.320Z</time>
      </trkpt>
      <trkpt lat="50.43178" lon="2.98796">
        <ele>28</ele>
        <time>2022-11-11T19:44:57.800Z</time>
      </trkpt>
      <trkpt lat="50.43159" lon="2.98773">
        <ele>28</ele>
        <time>2022-11-11T19:45:13.284Z</time>
      </trkpt>
      <trkpt lat="50.43158" lon="2.98772">
        <ele>28</ele>
        <time>2022-11-11T19:45:28.768Z</time>
      </trkpt>
      <trkpt lat="50.43158" lon="2.98772">
        <ele>28</ele>
        <time>2022-11-11T19:45:44.252Z</time>
      </trkpt>
      <trkpt lat="50.43158" lon="2.98772">
        <ele>28</ele>
        <time>2022-11-11T19:45:59.736Z</time>
      </trkpt>
      <trkpt lat="50.43158" lon="2.98771">
        <ele>28</ele>
        <time>2022-11-11T19:46:15.220Z</time>
      </trkpt>
      <trkpt lat="50.43158" lon="2.98771">
        <ele>28</ele>
        <time>2022-11-11T19:46:30.704Z</time>
      </trkpt>
      <trkpt lat="50.43157" lon="2.98771">
        <ele>28</ele>
        <time>2022-11-11T19:46:46.188Z</time>
      </trkpt>
      <trkpt lat="50.43131" lon="2.9874">
        <ele>28</ele>
        <time>2022-11-11T19:47:01.677Z</time>
      </trkpt>
      <trkpt lat="50.43116" lon="2.98726">
        <ele>28</ele>
        <time>2022-11-11T19:47:17.168Z</time>
      </trkpt>
      <trkpt lat="50.43116" lon="2.98726">
        <ele>28</ele>
        <time>2022-11-11T19:47:32.659Z</time>
      </trkpt>
      <trkpt lat="50.43116" lon="2.98725">
        <ele>28</ele>
        <time>2022-11-11T19:47:48.150Z</time>
      </trkpt>
    </trkseg>
  </trk>
</gpx>